[[{"header":{"parameterUnit":"m.s-1","parameterCategory":1,"la1":31.0,"la2":29.5877,"lo1":-88.7671,"lo2":-86.6584,"dy":0.0162,"dx":0.0185,"nx":115,"ny":88,"refTime":"2026-05-19T00:00:00:Z","depth":0,"parameterNumber":2,"parameterNumberName":"U-component_of_WINDS"},"data":[0.0,0.0,0.0,0.0,0.0,0.0,0.0,0.0,0.0,0.0,0.0,0.0,0.0,0.0,0.0,0.0,0.0,0.0,0.0,0.0,0.0,0.0,0.0,0.0,0.0,0.0,0.0,0.0,0.0,0.0,0.0,0.0,0.0,0.0,0.0,0.0,0.0,0.0,0.0,0.0,0.0,0.0,0.0,0.0,0.0,0.0,0.0,0.0,0.0,0.0,0.0,0.0,0.0,0.0,0.0,0.0,0.0,0.0,0.0,0.0,0.0,0.0,0.0,0.0,0.0,0.0,0.0,0.0,0.0,0.0,0.0,0.0,0.0,0.0,0.0,0.0,0.0,0.0,0.0,0.0,0.0,0.0,0.0,0.0,0.0,0.0,0.0,0.0,0.0,0.0,0.0,0.0,0.0,0.0,0.0,0.0,0.0,0.0,0.0,0.0,0.0,0.0,0.0,0.0,0.0,0.0,0.0,0.0,0.0,0.0,0.0,0.0,0.0,0.0,0.0,0.0,0.0,0.0,0.0,0.0,0.0,0.0,0.0,0.0,0.0,0.0,0.0,0.0,0.0,0.0,0.0,0.0,0.0,0.0,0.0,0.0,0.0,0.0,0.0,0.0,0.0,0.0,0.0,0.0,0.0,0.0,0.0,0.0,0.0,0.0,0.0,0.0,0.0,0.0,0.0,0.0,0.0,0.0,0.0,0.0,0.0,0.0,0.0,0.0,0.0,0.0,0.0,0.0,0.0,0.0,0.0,0.0,0.0,0.0,0.0,0.0,0.0,0.0,0.0,0.0,0.0,0.0,0.0,0.0,0.0,0.0,0.0,0.0,0.0,0.0,0.0,0.0,0.0,0.0,0.0,0.0,0.0,0.0,0.0,0.0,0.0,0.0,0.0,0.0,0.0,0.0,0.0,0.0,0.0,0.0,0.0,0.0,0.0,0.0,0.0,0.0,0.0,0.0,0.0,0.0,0.0,0.0,0.0,0.0,0.0,0.0,0.0,0.0,0.0,0.0,0.0,0.0,0.0,0.0,0.0,0.0,0.0,0.0,0.0,0.0,0.0,0.0,0.0,0.0,0.0,0.0,0.0,0.0,0.0,0.0,0.0,0.0,0.0,0.0,0.0,0.0,0.0,0.0,0.0,0.0,0.0,0.0,0.0,0.0,0.0,0.0,0.0,0.0,0.0,0.0,0.0,0.0,0.0,0.0,0.0,0.0,0.0,0.0,0.0,0.0,0.0,0.0,0.0,0.0,0.0,0.0,0.0,0.0,0.0,0.0,0.0,0.0,0.0,0.0,0.0,0.0,0.0,0.0,0.0,0.0,0.0,0.0,0.0,0.0,0.0,0.0,0.0,0.0,0.0,0.0,0.0,0.0,0.0,0.0,0.0,0.0,0.0,0.0,0.0,0.0,0.0,0.0,0.0,0.0,0.0,0.0,0.0,0.0,0.0,0.0,0.0,0.0,0.0,0.0,0.0,0.0,0.0,0.0,0.0,0.0,0.0,0.0,0.0,0.0,0.0,0.0,0.0,0.0,0.0,0.0,0.0,0.0,0.0,0.0,0.0,0.0,0.0,0.0,0.0,0.0,0.0,0.0,0.0,0.0,0.0,0.0,0.0,0.0,0.0,0.0,0.0,0.0,0.0,0.0,0.0,0.0,0.0,0.0,0.0,0.0,0.0,0.0,0.0,0.0,0.0,0.0,0.0,0.0,0.0,0.0,0.0,0.0,0.0,0.0,0.0,0.0,0.0,0.0,0.0,0.0,0.0,0.0,0.0,0.0,0.0,0.0,0.0,0.0,0.0,0.0,0.0,0.0,0.0,0.0,0.0,0.0,0.0,0.0,0.0,0.0,0.0,0.0,0.0,0.0,0.0,0.0,0.0,0.0,0.0,0.0,0.0,0.0,0.0,0.0,0.0,0.0,0.0,0.0,0.0,0.0,0.0,0.0,0.0,0.0,0.0,0.0,0.0,0.0,0.0,0.0,0.0,0.0,0.0,0.0,0.0,0.0,0.0,0.0,0.0,0.0,0.0,0.0,0.0,0.0,0.0,0.0,0.0,0.0,0.0,0.0,0.0,0.0,0.0,0.0,0.0,0.0,0.0,0.0,0.0,0.0,0.0,0.0,0.0,0.0,0.0,0.0,0.0,0.0,0.0,0.0,0.0,0.0,0.0,0.0,0.0,0.0,0.0,0.0,0.0,0.0,0.0,0.0,0.0,0.0,0.0,0.0,0.0,0.0,0.0,0.0,0.0,0.0,0.0,0.0,0.0,0.0,0.0,0.0,0.0,0.0,0.0,0.0,0.0,0.0,0.0,0.0,0.0,0.0,0.0,0.0,0.0,0.0,0.0,0.0,0.0,0.0,0.0,0.0,0.0,0.0,0.0,0.0,0.0,0.0,0.0,0.0,0.0,0.0,0.0,0.0,0.0,0.0,0.0,0.0,0.0,0.0,0.0,0.0,0.0,0.0,0.0,0.0,0.0,0.0,0.0,0.0,0.0,0.0,0.0,0.0,0.0,0.0,0.0,0.0,0.0,0.0,0.0,0.0,0.0,0.0,0.0,0.0,0.0,0.0,0.0,0.0,0.0,0.0,0.0,0.0,0.0,0.0,0.0,0.0,0.0,0.0,0.0,0.0,0.0,0.0,0.0,0.0,0.0,0.0,0.0,0.0,0.0,0.0,0.0,0.0,0.0,0.0,0.0,0.0,0.0,0.0,0.0,0.0,0.0,0.0,0.0,0.0,0.0,0.0,0.0,0.0,0.0,0.0,0.0,0.0,0.0,0.0,0.0,0.0,0.0,0.0,0.0,0.0,0.0,0.0,0.0,0.0,0.0,0.0,0.0,0.0,0.0,0.0,0.0,0.0,0.0,0.0,0.0,0.0,0.0,0.0,0.0,0.0,0.0,0.0,0.0,0.0,0.0,0.0,0.0,0.0,0.0,0.0,0.0,0.0,0.0,0.0,0.0,0.0,0.0,0.0,0.0,0.0,0.0,0.0,0.0,0.0,0.0,0.0,0.0,0.0,0.0,0.0,0.0,0.0,0.0,0.0,0.0,0.0,0.0,0.0,0.0,0.0,0.0,0.0,0.0,0.0,0.0,0.0,0.0,0.0,0.0,0.0,0.0,0.0,0.0,0.0,0.0,0.0,0.0,0.0,0.0,0.0,0.0,0.0,0.0,0.0,0.0,0.0,0.0,0.0,0.0,0.0,0.0,0.0,0.0,0.0,0.0,0.0,0.0,0.0,0.0,0.0,0.0,0.0,0.0,0.0,0.0,0.0,0.0,0.0,0.0,0.0,0.0,0.0,0.0,0.0,0.0,0.0,0.0,0.0,0.0,0.0,0.0,0.0,0.0,0.0,0.0,0.0,0.0,0.0,0.0,0.0,0.0,0.0,0.0,0.0,0.0,0.0,0.0,0.0,0.0,0.0,0.0,0.0,0.0,0.0,0.0,0.0,0.0,0.0,0.0,0.0,0.0,0.0,0.0,0.0,0.0,0.0,0.0,0.0,0.0,0.0,0.0,0.0,0.0,0.0,0.0,0.0,0.0,0.0,0.0,0.0,0.0,0.0,0.0,0.0,0.0,0.0,0.0,0.0,0.0,0.0,0.0,0.0,0.0,0.0,0.0,0.0,0.0,0.0,0.0,0.0,0.0,0.0,0.0,0.0,0.0,0.0,0.0,0.0,0.0,0.0,0.0,0.0,0.0,0.0,0.0,0.0,0.0,0.0,0.0,0.0,0.0,0.0,0.0,0.0,0.0,0.0,0.0,0.0,0.0,0.0,0.0,0.0,0.0,0.0,0.0,0.0,0.0,0.0,0.0,0.0,0.0,0.0,0.0,0.0,0.0,0.0,0.0,0.0,0.0,0.0,0.0,0.0,0.0,0.0,0.0,0.0,0.0,0.0,0.0,0.0,0.0,0.0,0.0,0.0,0.0,0.0,0.0,0.0,0.0,0.0,0.0,0.0,0.0,0.0,0.0,0.0,0.0,0.0,0.0,0.0,0.0,0.0,0.0,0.0,0.0,0.0,0.0,0.0,0.0,0.0,0.0,0.0,0.0,0.0,0.0,0.0,0.0,0.0,0.0,0.0,0.0,0.0,0.0,0.0,0.0,0.0,0.0,0.0,0.0,0.0,0.0,0.0,0.0,0.0,0.0,0.0,0.0,0.0,0.0,0.0,0.0,0.0,0.0,0.0,0.0,0.0,0.0,0.0,0.0,0.0,0.0,0.0,0.0,0.0,0.0,0.0,0.0,0.0,-0.6278,0.0,0.0,0.0,0.0,0.0,0.0,0.0,0.0,0.0,0.0,0.0,0.0,0.0,0.0,0.0,0.0,0.0,0.0,0.0,0.0,0.0,0.0,0.0,0.0,0.0,0.0,0.0,0.0,0.0,0.0,0.0,0.0,0.0,0.0,0.0,0.0,0.0,0.0,0.0,0.0,0.0,0.0,0.0,0.0,0.0,0.0,0.0,0.0,0.0,0.0,0.0,0.0,0.0,0.0,0.0,0.0,0.0,0.0,0.0,0.0,0.0,0.0,0.0,0.0,0.0,0.0,0.0,0.0,0.0,0.0,0.0,0.0,0.0,0.0,0.0,0.0,0.0,0.0,0.0,0.0,0.0,0.0,0.0,0.0,0.0,0.0,0.0,0.0,0.0,0.0,0.0,0.0,0.0,0.0,0.0,0.0,0.0,0.0,0.0,0.0,0.0,0.0,0.0,0.0,0.0,0.0,0.0,0.0,0.0,0.0,-0.6437,-0.6263,-0.6284,-0.6284,-0.6263,0.0,0.0,0.0,0.0,0.0,0.0,0.0,0.0,0.0,0.0,0.0,0.0,0.0,0.0,0.0,0.0,0.0,0.0,0.0,0.0,0.0,0.0,0.0,0.0,0.0,0.0,0.0,0.0,0.0,0.0,0.0,0.0,0.0,0.0,0.0,0.0,0.0,0.0,0.0,0.0,0.0,0.0,0.0,0.0,0.0,0.0,0.0,0.0,0.0,0.0,0.0,0.0,0.0,0.0,0.0,0.0,0.0,0.0,0.0,0.0,0.0,0.0,0.0,0.0,0.0,0.0,0.0,0.0,0.0,0.0,0.0,0.0,0.0,0.0,0.0,0.0,0.0,0.0,0.0,0.0,0.0,0.0,0.0,0.0,0.0,0.0,0.0,0.0,0.0,0.0,0.0,0.0,0.0,0.0,0.0,0.0,0.0,0.0,0.0,0.0,0.0,0.0,0.0,0.0,0.0,0.0,0.0,0.0,0.0,0.0,0.0,0.0,-0.649,-0.6448,-0.628,0.0,0.0,0.0,0.0,0.0,0.0,0.0,0.0,0.0,0.0,0.0,0.0,0.0,0.0,0.0,0.0,0.0,0.0,0.0,0.0,0.0,0.0,0.0,0.0,0.0,0.0,0.0,0.0,0.0,0.0,0.0,0.0,0.0,0.0,0.0,0.0,0.0,0.0,0.0,0.0,0.0,0.0,0.0,0.0,0.0,0.0,0.0,0.0,0.0,0.0,0.0,0.0,0.0,0.0,0.0,0.0,0.0,0.0,0.0,0.0,0.0,0.0,0.0,0.0,0.0,0.0,0.0,0.0,0.0,0.0,0.0,0.0,0.0,0.0,0.0,0.0,0.0,0.0,0.0,0.0,0.0,0.0,0.0,0.0,0.0,0.0,0.0,0.0,0.0,0.0,0.0,0.0,0.0,0.0,0.0,0.0,0.0,0.0,0.0,0.0,0.0,0.0,0.0,0.0,0.0,0.0,0.0,0.0,0.0,0.0,-0.7239,-0.7132,-0.7174,0.0,-0.6533,0.0,0.0,0.0,0.0,0.0,0.0,0.0,0.0,0.0,0.0,0.0,0.0,0.0,0.0,0.0,0.0,0.0,0.0,0.0,0.0,0.0,0.0,0.0,0.0,0.0,0.0,0.0,0.0,0.0,0.0,0.0,0.0,0.0,0.0,0.0,0.0,0.0,0.0,0.0,0.0,0.0,0.0,0.0,0.0,0.0,0.0,0.0,0.0,0.0,0.0,0.0,0.0,0.0,0.0,0.0,0.0,0.0,0.0,0.0,0.0,0.0,0.0,0.0,0.0,0.0,0.0,0.0,0.0,0.0,0.0,0.0,0.0,0.0,0.0,0.0,0.0,0.0,0.0,0.0,0.0,0.0,0.0,0.0,0.0,0.0,0.0,0.0,0.0,0.0,0.0,0.0,0.0,0.0,0.0,0.0,0.0,0.0,0.0,0.0,0.0,0.0,0.0,0.0,0.0,0.0,0.0,0.0,0.0,0.0,0.0,-0.7546,-0.7852,-0.7874,-0.7613,0.0,0.0,0.0,0.0,0.0,0.0,0.0,0.0,0.0,0.0,0.0,0.0,0.0,0.0,0.0,0.0,0.0,0.0,0.0,0.0,0.0,0.0,0.0,0.0,0.0,0.0,0.0,0.0,0.0,0.0,0.0,0.0,0.0,0.0,0.0,0.0,0.0,0.0,0.0,0.0,0.0,0.0,0.0,0.0,0.0,0.0,0.0,0.0,0.0,0.0,0.0,0.0,0.0,0.0,0.0,0.0,0.0,0.0,0.0,0.0,0.0,0.0,0.0,0.0,0.0,0.0,0.0,0.0,0.0,0.0,0.0,0.0,0.0,0.0,0.0,0.0,0.0,0.0,0.0,0.0,0.0,0.0,0.0,0.0,0.0,0.0,0.0,0.0,0.0,0.0,0.0,0.0,0.0,0.0,0.0,0.0,0.0,0.0,0.0,0.0,0.0,0.0,0.0,0.0,0.0,0.0,0.0,0.0,0.0,0.0,-0.7119,0.0,-0.8026,-0.8212,-0.7939,-0.7184,0.0,0.0,0.0,0.0,0.0,0.0,0.0,0.0,0.0,0.0,0.0,0.0,0.0,0.0,0.0,0.0,0.0,0.0,0.0,0.0,0.0,0.0,0.0,0.0,0.0,0.0,0.0,0.0,0.0,0.0,0.0,0.0,0.0,0.0,0.0,0.0,0.0,0.0,0.0,0.0,0.0,0.0,0.0,0.0,0.0,0.0,0.0,0.0,0.0,0.0,0.0,0.0,0.0,0.0,0.0,0.0,0.0,0.0,0.0,0.0,0.0,0.0,0.0,0.0,0.0,0.0,0.0,0.0,0.0,0.0,0.0,0.0,0.0,0.0,0.0,0.0,0.0,0.0,0.0,0.0,0.0,0.0,0.0,0.0,0.0,0.0,0.0,0.0,0.0,0.0,0.0,0.0,0.0,0.0,0.0,0.0,0.0,0.0,0.0,0.0,0.0,0.0,0.0,0.0,0.0,0.0,0.0,0.0,0.0,-0.7131,-0.7418,-0.7471,-0.7989,-0.7741,0.0,0.0,0.0,0.0,0.0,0.0,0.0,0.0,0.0,0.0,0.0,0.0,0.0,0.0,0.0,0.0,0.0,0.0,0.0,0.0,0.0,0.0,0.0,0.0,0.0,0.0,0.0,0.0,0.0,0.0,0.0,0.0,0.0,0.0,0.0,0.0,0.0,0.0,0.0,0.0,0.0,0.0,0.0,0.0,0.0,0.0,0.0,0.0,0.0,0.0,0.0,0.0,0.0,0.0,0.0,0.0,0.0,0.0,0.0,0.0,0.0,0.0,0.0,0.0,0.0,0.0,0.0,0.0,0.0,0.0,0.0,0.0,0.0,0.0,0.0,0.0,0.0,0.0,0.0,0.0,0.0,0.0,0.0,0.0,0.0,0.0,0.0,0.0,0.0,0.0,0.0,0.0,0.0,0.0,0.0,0.0,0.0,0.0,0.0,0.0,0.0,0.0,0.0,0.0,0.0,0.0,0.0,0.0,0.0,-0.6637,-0.7501,-0.7987,-0.7966,-0.8187,-0.7893,0.0,0.0,0.0,0.0,0.0,0.0,0.0,0.0,0.0,0.0,0.0,0.0,0.0,0.0,0.0,0.0,0.0,0.0,0.0,0.0,0.0,0.0,0.0,0.0,0.0,0.0,0.0,0.0,0.0,0.0,0.0,0.0,0.0,0.0,0.0,0.0,0.0,0.0,0.0,0.0,0.0,0.0,0.0,0.0,0.0,0.0,0.0,0.0,0.0,0.0,0.0,0.0,0.0,0.0,0.0,0.0,0.0,0.0,0.0,0.0,0.0,0.0,0.0,0.0,0.0,0.0,0.0,0.0,0.0,0.0,0.0,0.0,0.0,0.0,0.0,0.0,0.0,0.0,0.0,0.0,0.0,0.0,0.0,0.0,0.0,0.0,0.0,0.0,0.0,0.0,0.0,0.0,0.0,0.0,0.0,0.0,0.0,0.0,0.0,0.0,0.0,0.0,0.0,0.0,0.0,0.0,0.0,0.0,0.0,-0.689,0.0,-0.8386,0.0,-0.8187,-0.7895,0.0,0.0,0.0,0.0,0.0,0.0,0.0,0.0,0.0,0.0,0.0,0.0,0.0,0.0,0.0,0.0,0.0,0.0,0.0,0.0,0.0,0.0,0.0,0.0,0.0,0.0,0.0,0.0,0.0,0.0,0.0,0.0,0.0,0.0,0.0,0.0,0.0,0.0,0.0,0.0,0.0,0.0,0.0,0.0,0.0,0.0,0.0,0.0,0.0,0.0,0.0,0.0,0.0,0.0,0.0,0.0,0.0,0.0,0.0,0.0,0.0,0.0,0.0,0.0,0.0,0.0,0.0,0.0,0.0,0.0,0.0,0.0,0.0,0.0,0.0,0.0,0.0,0.0,0.0,0.0,0.0,0.0,0.0,0.0,0.0,0.0,0.0,0.0,0.0,0.0,0.0,0.0,0.0,0.0,0.0,0.0,0.0,0.0,0.0,0.0,0.0,0.0,0.0,0.0,0.0,0.0,0.0,0.0,-0.689,-0.7418,-0.8523,-0.8561,-0.7471,-0.7976,-0.7721,0.0,0.0,0.0,0.0,0.0,0.0,0.0,0.0,0.0,0.0,0.0,0.0,0.0,0.0,0.0,0.0,0.0,0.0,0.0,0.0,0.0,0.0,0.0,0.0,0.0,0.0,0.0,0.0,0.0,0.0,0.0,0.0,0.0,0.0,0.0,0.0,0.0,0.0,0.0,0.0,0.0,0.0,0.0,0.0,0.0,0.0,0.0,0.0,0.0,0.0,0.0,0.0,0.0,0.0,0.0,0.0,0.0,0.0,0.0,0.0,0.0,0.0,0.0,0.0,0.0,0.0,0.0,0.0,0.0,0.0,0.0,0.0,0.0,0.0,0.0,0.0,0.0,0.0,0.0,0.0,0.0,0.0,0.0,0.0,0.0,0.0,0.0,0.0,0.0,0.0,0.0,0.0,0.0,0.0,0.0,0.0,0.0,0.0,0.0,0.0,0.0,0.0,0.0,0.0,0.0,0.0,0.0,0.0,0.0,-0.806,-0.8725,-0.8762,-0.8062,-0.7811,-0.7476,0.0,0.0,0.0,0.0,0.0,0.0,0.0,0.0,0.0,0.0,0.0,0.0,0.0,0.0,0.0,0.0,0.0,0.0,0.0,0.0,0.0,0.0,0.0,0.0,0.0,0.0,0.0,0.0,0.0,0.0,0.0,0.0,0.0,0.0,0.0,0.0,0.0,0.0,0.0,0.0,0.0,0.0,0.0,0.0,0.0,0.0,0.0,0.0,0.0,0.0,0.0,0.0,0.0,0.0,0.0,0.0,0.0,0.0,0.0,0.0,0.0,0.0,0.0,0.0,0.0,0.0,0.0,0.0,0.0,0.0,0.0,0.0,0.0,0.0,0.0,0.0,0.0,0.0,0.0,0.0,0.0,0.0,0.0,0.0,0.0,0.0,0.0,0.0,0.0,0.0,0.0,0.0,0.0,0.0,0.0,0.0,0.0,0.0,0.0,0.0,0.0,0.0,0.0,0.0,0.0,0.0,0.0,0.0,0.0,-0.9559,-0.9906,-0.9742,-0.8973,-0.836,-0.7808,-0.7325,0.0,0.0,0.0,0.0,0.0,0.0,0.0,0.0,0.0,0.0,0.0,0.0,0.0,0.0,0.0,0.0,0.0,0.0,0.0,0.0,0.0,0.0,0.0,0.0,0.0,0.0,0.0,0.0,0.0,0.0,0.0,0.0,0.0,0.0,0.0,0.0,0.0,0.0,0.0,0.0,0.0,0.0,0.0,0.0,0.0,0.0,0.0,0.0,0.0,0.0,0.0,0.0,0.0,0.0,0.0,0.0,0.0,0.0,0.0,0.0,0.0,0.0,0.0,0.0,0.0,0.0,0.0,0.0,0.0,0.0,0.0,0.0,0.0,0.0,0.0,0.0,0.0,0.0,0.0,0.0,0.0,0.0,0.0,0.0,0.0,0.0,0.0,0.0,0.0,0.0,0.0,0.0,0.0,0.0,0.0,0.0,0.0,0.0,0.0,0.0,0.0,0.0,0.0,0.0,0.0,0.0,0.0,0.0,-1.1667,-1.1856,-1.1368,-1.0161,-0.9489,-0.8636,0.0,0.0,0.0,0.0,0.0,0.0,0.0,0.0,0.0,0.0,0.0,0.0,0.0,0.0,0.0,0.0,0.0,0.0,0.0,0.0,0.0,0.0,0.0,0.0,0.0,0.0,0.0,0.0,0.0,0.0,0.0,0.0,0.0,0.0,0.0,0.0,0.0,0.0,0.0,0.0,0.0,0.0,0.0,0.0,0.0,0.0,0.0,0.0,0.0,0.0,0.0,0.0,0.0,0.0,0.0,0.0,0.0,0.0,0.0,0.0,0.0,0.0,0.0,0.0,0.0,0.0,0.0,0.0,0.0,0.0,0.0,0.0,0.0,0.0,0.0,0.0,0.0,0.0,0.0,0.0,0.0,0.0,0.0,0.0,0.0,0.0,0.0,0.0,0.0,0.0,0.0,0.0,0.0,0.0,0.0,0.0,0.0,0.0,0.0,0.0,0.0,0.0,0.0,0.0,0.0,0.0,0.0,0.0,0.0,-1.2538,-1.3315,-1.2791,-1.0911,-1.0097,-0.9366,0.0,0.0,0.0,0.0,0.0,0.0,0.0,0.0,0.0,0.0,0.0,0.0,0.0,0.0,0.0,0.0,0.0,0.0,0.0,0.0,0.0,0.0,0.0,0.0,0.0,0.0,0.0,0.0,0.0,0.0,0.0,0.0,0.0,0.0,0.0,0.0,0.0,0.0,0.0,0.0,0.0,0.0,0.0,0.0,0.0,0.0,0.0,0.0,0.0,0.0,0.0,0.0,0.0,0.0,0.0,0.0,0.0,0.0,0.0,0.0,0.0,0.0,0.0,0.0,0.0,0.0,0.0,0.0,0.0,0.0,0.0,0.0,0.0,0.0,0.0,0.0,0.0,0.0,0.0,0.0,0.0,0.0,0.0,0.0,0.0,0.0,0.0,0.0,0.0,0.0,0.0,0.0,0.0,0.0,0.0,0.0,0.0,0.0,0.0,0.0,0.0,0.0,0.0,0.0,0.0,0.0,0.0,0.0,-1.2468,-1.3554,-1.4305,-1.3925,-1.2277,-1.1002,-1.0097,0.0,0.0,0.0,0.0,0.0,0.0,0.0,0.0,0.0,0.0,0.0,0.0,0.0,0.0,0.0,0.0,0.0,0.0,0.0,0.0,0.0,0.0,0.0,0.0,0.0,0.0,0.0,0.0,0.0,0.0,0.0,0.0,0.0,0.0,0.0,0.0,0.0,0.0,0.0,0.0,0.0,0.0,0.0,0.0,0.0,0.0,0.0,0.0,0.0,0.0,0.0,0.0,0.0,0.0,0.0,0.0,0.0,0.0,0.0,0.0,0.0,0.0,0.0,0.0,0.0,0.0,0.0,0.0,0.0,0.0,0.0,0.0,0.0,0.0,0.0,0.0,0.0,0.0,0.0,0.0,0.0,0.0,0.0,0.0,0.0,0.0,0.0,0.0,0.0,0.0,0.0,0.0,0.0,0.0,0.0,0.0,0.0,0.0,0.0,0.0,0.0,0.0,0.0,0.0,0.0,0.0,0.0,0.0,-1.3359,-1.4492,-1.4935,-1.4756,-1.3908,-1.2149,-1.0894,0.0,0.0,0.0,0.0,0.0,0.0,0.0,0.0,0.0,0.0,0.0,0.0,0.0,0.0,0.0,0.0,0.0,0.0,0.0,0.0,0.0,0.0,0.0,0.0,0.0,0.0,0.0,0.0,0.0,0.0,0.0,0.0,0.0,0.0,0.0,0.0,0.0,0.0,0.0,0.0,0.0,0.0,0.0,0.0,0.0,0.0,0.0,0.0,0.0,0.0,0.0,0.0,0.0,0.0,0.0,0.0,0.0,0.0,0.0,0.0,0.0,0.0,0.0,0.0,0.0,0.0,0.0,0.0,0.0,0.0,0.0,0.0,0.0,0.0,0.0,0.0,0.0,0.0,0.0,0.0,0.0,0.0,0.0,0.0,0.0,0.0,0.0,0.0,0.0,0.0,0.0,0.0,0.0,0.0,0.0,0.0,0.0,0.0,0.0,0.0,0.0,0.0,0.0,0.0,0.0,0.0,0.0,0.0,-1.3411,-1.4615,-1.5096,-1.5152,-1.4738,-1.3337,-1.2054,0.0,0.0,0.0,0.0,0.0,0.0,0.0,0.0,0.0,0.0,0.0,0.0,0.0,0.0,0.0,0.0,0.0,0.0,0.0,0.0,0.0,0.0,0.0,0.0,0.0,0.0,0.0,0.0,0.0,0.0,0.0,0.0,0.0,0.0,0.0,0.0,0.0,0.0,0.0,0.0,0.0,0.0,0.0,0.0,0.0,0.0,0.0,0.0,-0.5693,0.0,0.0,0.0,0.0,0.0,0.0,0.0,0.0,0.0,0.0,0.0,0.0,0.0,0.0,0.0,0.0,0.0,0.0,0.0,0.0,0.0,0.0,0.0,0.0,0.0,0.0,0.0,0.0,0.0,0.0,0.0,0.0,0.0,0.0,0.0,0.0,0.0,0.0,0.0,0.0,0.0,0.0,0.0,0.0,0.0,0.0,0.0,0.0,0.0,0.0,0.0,0.0,0.0,0.0,0.0,0.0,0.0,0.0,0.0,-1.3914,-1.5158,-1.5475,-1.5463,-1.5225,-1.4415,-1.3276,0.0,0.0,0.0,0.0,0.0,0.0,0.0,0.0,0.0,0.0,0.0,0.0,0.0,0.0,0.0,0.0,0.0,0.0,0.0,0.0,0.0,0.0,0.0,0.0,0.0,0.0,0.0,0.0,0.0,0.0,0.0,0.0,0.0,0.0,0.0,0.0,0.0,0.0,0.0,0.0,0.0,0.0,0.0,0.0,0.0,0.0,0.0,0.0,0.0,0.0,0.0,0.0,0.0,0.0,0.0,0.0,0.0,0.0,0.0,0.0,0.0,0.0,0.0,0.0,0.0,0.0,0.0,0.0,0.0,0.0,0.0,0.0,0.0,0.0,0.0,0.0,0.0,0.0,0.0,0.0,0.0,0.0,0.0,0.0,0.0,0.0,0.0,0.0,0.0,0.0,0.0,0.0,0.0,0.0,0.0,0.0,0.0,0.0,0.0,0.0,0.0,0.0,0.0,0.0,0.0,0.0,0.0,-1.3136,-1.4453,-1.5739,-1.5814,-1.5712,-1.5507,-1.5183,-1.4225,-1.2608,0.0,0.0,0.0,0.0,0.0,0.0,0.0,0.0,0.0,0.0,0.0,0.0,0.0,0.0,0.0,0.0,0.0,0.0,0.0,0.0,0.0,0.0,0.0,0.0,0.0,0.0,0.0,0.0,0.0,0.0,0.0,0.0,0.0,0.0,0.0,0.0,0.0,0.0,-0.4898,-0.5321,0.0,0.0,0.0,0.0,0.0,0.0,0.0,0.0,-0.5172,0.0,0.0,0.0,0.0,0.0,0.0,0.0,0.0,0.0,0.0,0.0,0.0,0.0,0.0,0.0,0.0,0.0,0.0,0.0,0.0,0.0,0.0,0.0,0.0,0.0,0.0,0.0,0.0,0.0,0.0,0.0,0.0,0.0,0.0,0.0,0.0,0.0,0.0,0.0,0.0,0.0,0.0,0.0,0.0,0.0,0.0,0.0,0.0,0.0,0.0,0.0,0.0,0.0,0.0,0.0,0.0,-1.1805,-1.3124,-1.4438,-1.5754,-1.5814,-1.5711,-1.558,-1.4876,-1.4123,-1.3221,0.0,0.0,0.0,0.0,0.0,0.0,0.0,0.0,0.0,0.0,0.0,0.0,0.0,0.0,0.0,0.0,0.0,0.0,0.0,0.0,0.0,0.0,0.0,0.0,0.0,0.0,0.0,0.0,0.0,0.0,0.0,0.0,0.0,0.0,0.0,0.0,0.0,0.0,0.0,-0.5788,-0.6406,0.0,0.0,0.0,0.0,0.0,0.0,0.0,0.0,-0.5026,0.0,0.0,0.0,0.0,0.0,0.0,0.0,0.0,0.0,0.0,0.0,0.0,0.0,0.0,0.0,0.0,0.0,0.0,0.0,0.0,0.0,0.0,0.0,0.0,0.0,0.0,0.0,0.0,0.0,0.0,0.0,0.0,0.0,0.0,0.0,0.0,0.0,0.0,0.0,0.0,0.0,0.0,0.0,0.0,0.0,0.0,0.0,0.0,0.0,0.0,0.0,0.0,0.0,0.0,0.0,-1.2325,-1.3645,-1.4796,-1.5769,-1.5814,-1.577,-1.5668,-1.5001,-1.4132,0.0,0.0,0.0,0.0,0.0,0.0,0.0,0.0,0.0,0.0,0.0,0.0,0.0,0.0,0.0,0.0,0.0,0.0,0.0,0.0,0.0,0.0,0.0,0.0,0.0,0.0,0.0,0.0,0.0,0.0,0.0,0.0,0.0,0.0,0.0,0.0,0.0,0.0,0.0,0.0,-0.658,-0.724,-0.7959,0.0,0.0,0.0,0.0,0.0,0.0,-0.5881,-0.5313,0.0,0.0,0.0,0.0,0.0,0.0,0.0,0.0,0.0,0.0,0.0,0.0,0.0,0.0,0.0,0.0,0.0,0.0,0.0,0.0,0.0,0.0,0.0,0.0,0.0,0.0,0.0,0.0,0.0,0.0,0.0,0.0,0.0,0.0,0.0,0.0,0.0,0.0,0.0,0.0,0.0,0.0,0.0,0.0,0.0,0.0,0.0,0.0,0.0,0.0,0.0,0.0,0.0,0.0,0.0,-1.2812,-1.4122,-1.5125,-1.5784,-1.5814,-1.5814,-1.5799,-1.5035,-1.4032,0.0,0.0,0.0,0.0,0.0,0.0,0.0,0.0,0.0,0.0,0.0,0.0,0.0,0.0,0.0,0.0,0.0,0.0,0.0,0.0,0.0,0.0,0.0,0.0,0.0,0.0,0.0,0.0,0.0,0.0,0.0,0.0,0.0,0.0,0.0,0.0,0.0,0.0,0.0,0.0,0.0,-0.8001,-0.825,-0.7555,0.0,0.0,0.0,0.0,-0.712,-0.6575,0.0,0.0,0.0,0.0,0.0,0.0,0.0,0.0,0.0,0.0,0.0,0.0,0.0,0.0,0.0,0.0,0.0,0.0,0.0,0.0,0.0,0.0,0.0,0.0,0.0,0.0,0.0,0.0,0.0,0.0,0.0,0.0,0.0,0.0,0.0,0.0,0.0,0.0,0.0,0.0,0.0,0.0,0.0,0.0,0.0,0.0,0.0,0.0,0.0,0.0,0.0,0.0,0.0,0.0,0.0,0.0,-1.287,-1.4148,-1.5125,-1.5769,-1.5814,-1.5814,-1.5799,-1.4586,-1.3555,0.0,0.0,0.0,0.0,0.0,0.0,0.0,0.0,0.0,0.0,0.0,0.0,0.0,0.0,0.0,0.0,0.0,0.0,0.0,0.0,0.0,0.0,0.0,0.0,0.0,0.0,0.0,0.0,0.0,0.0,0.0,0.0,0.0,0.0,0.0,0.0,0.0,0.0,0.0,0.0,0.0,-0.8587,-0.8336,-0.8991,-0.8792,0.0,0.0,-0.8521,-0.9194,-0.7916,0.0,0.0,0.0,0.0,0.0,0.0,0.0,0.0,0.0,0.0,0.0,0.0,0.0,0.0,0.0,0.0,0.0,0.0,0.0,0.0,0.0,0.0,0.0,0.0,0.0,0.0,0.0,0.0,0.0,0.0,0.0,0.0,0.0,0.0,0.0,0.0,0.0,0.0,0.0,0.0,0.0,0.0,0.0,0.0,0.0,0.0,0.0,0.0,0.0,0.0,0.0,0.0,0.0,0.0,0.0,-1.2204,-1.3515,-1.4743,-1.55,-1.5784,-1.5814,-1.5814,-1.5814,-1.4871,-1.3897,0.0,0.0,0.0,0.0,0.0,0.0,0.0,0.0,0.0,0.0,0.0,0.0,0.0,0.0,0.0,0.0,0.0,0.0,0.0,0.0,0.0,0.0,0.0,0.0,0.0,0.0,0.0,0.0,0.0,0.0,0.0,0.0,0.0,0.0,0.0,0.0,0.0,0.0,0.0,0.0,0.0,0.0,-0.9228,-0.9604,0.0,0.0,0.0,-1.0093,-0.9865,0.0,0.0,0.0,0.0,0.0,0.0,0.0,0.0,0.0,0.0,0.0,0.0,0.0,0.0,0.0,0.0,0.0,0.0,0.0,0.0,0.0,0.0,0.0,0.0,0.0,0.0,0.0,0.0,0.0,0.0,0.0,0.0,0.0,0.0,0.0,0.0,0.0,0.0,0.0,0.0,0.0,0.0,0.0,0.0,0.0,0.0,0.0,0.0,0.0,0.0,0.0,0.0,0.0,0.0,0.0,0.0,0.0,-1.4087,-1.5273,-1.5899,-1.5899,-1.5899,-1.5885,-1.587,-1.5209,0.0,0.0,0.0,0.0,0.0,0.0,0.0,0.0,0.0,0.0,0.0,0.0,0.0,0.0,0.0,0.0,0.0,0.0,0.0,0.0,0.0,0.0,0.0,0.0,0.0,0.0,0.0,-0.3199,0.0,0.0,0.0,0.0,0.0,0.0,0.0,0.0,0.0,0.0,0.0,0.0,0.0,0.0,-1.0006,-1.0282,-1.0081,-0.9893,0.0,0.0,-1.1314,-1.0458,-0.9922,-0.913,0.0,0.0,0.0,0.0,0.0,0.0,0.0,0.0,0.0,0.0,0.0,0.0,0.0,0.0,0.0,0.0,0.0,0.0,0.0,0.0,0.0,0.0,0.0,0.0,0.0,0.0,0.0,0.0,0.0,0.0,0.0,0.0,0.0,0.0,0.0,0.0,0.0,0.0,0.0,0.0,0.0,0.0,0.0,0.0,0.0,0.0,0.0,0.0,0.0,0.0,0.0,0.0,0.0,0.0,0.0,-1.4354,-1.5556,-1.6166,-1.618,-1.618,-1.6153,-1.6066,-1.5371,-1.4334,0.0,0.0,0.0,0.0,0.0,0.0,0.0,0.0,0.0,0.0,0.0,0.0,0.0,0.0,0.0,0.0,0.0,0.0,0.0,0.0,0.0,0.0,0.0,0.0,0.0,0.0,0.0,0.0,0.0,0.0,0.0,0.0,0.0,0.0,0.0,0.0,0.0,0.0,0.0,0.0,0.0,-1.0282,-1.1339,-1.0571,-0.9905,0.0,0.0,-1.1578,-1.149,-1.0471,-0.9463,-0.8779,0.0,0.0,0.0,0.0,0.0,0.0,0.0,0.0,0.0,0.0,0.0,0.0,0.0,0.0,0.0,0.0,0.0,0.0,0.0,0.0,0.0,0.0,0.0,0.0,0.0,0.0,0.0,0.0,0.0,0.0,0.0,0.0,0.0,0.0,0.0,0.0,0.0,0.0,0.0,0.0,0.0,0.0,0.0,0.0,0.0,0.0,0.0,0.0,0.0,0.0,0.0,0.0,0.0,-1.3378,-1.4703,-1.5937,-1.6583,-1.657,-1.657,-1.6517,-1.6409,-1.5997,-1.5121,0.0,0.0,0.0,0.0,0.0,0.0,0.0,0.0,0.0,0.0,0.0,0.0,0.0,0.0,0.0,0.0,0.0,0.0,0.0,0.0,0.0,0.0,0.0,0.0,0.0,0.0,0.0,0.0,-0.3987,-0.3804,-0.3344,0.0,0.0,0.0,0.0,0.0,0.0,0.0,0.0,0.0,0.0,-1.1487,-1.159,-1.1789,0.0,0.0,-1.23,-1.2262,-1.1362,-1.103,-1.0438,-0.9205,-0.8588,0.0,0.0,0.0,0.0,0.0,0.0,0.0,0.0,0.0,0.0,0.0,0.0,0.0,0.0,0.0,0.0,0.0,0.0,0.0,0.0,0.0,0.0,0.0,0.0,0.0,0.0,0.0,0.0,0.0,0.0,0.0,0.0,0.0,0.0,0.0,0.0,0.0,0.0,0.0,0.0,0.0,0.0,0.0,0.0,0.0,0.0,0.0,0.0,0.0,0.0,0.0,0.0,-1.3625,-1.4989,-1.6265,-1.693,-1.6933,-1.6917,-1.6841,-1.6686,-1.6488,-1.5663,0.0,0.0,0.0,0.0,0.0,0.0,0.0,0.0,0.0,0.0,0.0,0.0,0.0,0.0,0.0,0.0,0.0,0.0,0.0,0.0,0.0,0.0,0.0,0.0,0.0,0.0,0.0,0.0,-0.4727,-0.4346,-0.3407,0.0,0.0,0.0,0.0,0.0,0.0,0.0,0.0,0.0,0.0,-1.2215,-1.1688,-1.2513,-1.321,-1.321,-1.321,-1.2776,-1.1525,-1.1575,-1.1234,-0.9818,0.0,0.0,0.0,0.0,0.0,0.0,0.0,0.0,0.0,0.0,0.0,0.0,0.0,0.0,0.0,0.0,0.0,0.0,0.0,0.0,0.0,0.0,0.0,0.0,0.0,0.0,0.0,0.0,0.0,0.0,-0.9863,0.0,0.0,0.0,0.0,0.0,0.0,0.0,0.0,0.0,0.0,0.0,0.0,0.0,0.0,0.0,0.0,0.0,0.0,0.0,0.0,0.0,0.0,-1.3795,-1.517,-1.6513,-1.7191,-1.7191,-1.7175,-1.7101,-1.6914,-1.6644,-1.5765,-1.4211,0.0,0.0,0.0,0.0,0.0,0.0,0.0,0.0,0.0,0.0,0.0,0.0,0.0,0.0,0.0,0.0,0.0,0.0,0.0,0.0,0.0,0.0,0.0,0.0,0.0,0.0,-0.5459,-0.5465,-0.4902,0.0,0.0,0.0,0.0,0.0,0.0,0.0,0.0,0.0,0.0,-1.2052,-1.2215,-1.1716,-1.2526,-1.321,-1.321,-1.321,-1.2939,-1.2178,-1.2074,-1.177,0.0,0.0,0.0,0.0,0.0,0.0,0.0,0.0,0.0,0.0,0.0,0.0,0.0,0.0,0.0,0.0,0.0,0.0,0.0,0.0,0.0,0.0,0.0,0.0,0.0,0.0,0.0,-1.1862,-1.1514,0.0,0.0,0.0,0.0,0.0,0.0,0.0,0.0,0.0,0.0,0.0,-1.703,-1.6431,0.0,0.0,0.0,0.0,0.0,0.0,0.0,0.0,0.0,0.0,0.0,0.0,-1.4008,-1.5459,-1.6859,-1.7601,-1.7601,-1.7601,-1.7496,-1.7236,-1.6892,-1.5609,-1.333,0.0,0.0,0.0,0.0,0.0,0.0,0.0,0.0,0.0,0.0,0.0,0.0,0.0,0.0,0.0,0.0,0.0,0.0,0.0,0.0,0.0,0.0,0.0,0.0,0.0,-0.6106,0.0,0.0,0.0,0.0,0.0,0.0,0.0,0.0,0.0,0.0,0.0,-1.1299,-1.2024,-1.2588,-1.286,-1.2689,-1.2947,-1.321,0.0,0.0,0.0,0.0,0.0,0.0,0.0,0.0,0.0,0.0,0.0,0.0,0.0,0.0,-1.181,-1.2341,-1.1539,-1.0534,-0.9744,0.0,0.0,0.0,0.0,0.0,0.0,0.0,0.0,0.0,0.0,0.0,0.0,0.0,0.0,-1.5106,0.0,-1.4463,0.0,0.0,0.0,0.0,0.0,0.0,0.0,0.0,-1.8547,-1.9071,-1.9417,-1.8654,-1.8404,0.0,-1.8898,-1.7741,0.0,0.0,0.0,0.0,0.0,0.0,0.0,0.0,-1.4522,-1.596,-1.7185,-1.7789,-1.7789,-1.7789,-1.767,-1.7396,-1.6701,-1.5421,-1.3563,-1.2415,-1.1202,0.0,0.0,0.0,0.0,0.0,0.0,0.0,0.0,0.0,0.0,0.0,0.0,0.0,0.0,0.0,0.0,0.0,0.0,0.0,0.0,0.0,0.0,0.0,-0.6812,0.0,0.0,0.0,0.0,0.0,0.0,0.0,0.0,0.0,-1.2102,-1.2276,-1.2494,-1.3044,-1.3484,-1.3609,-1.3253,0.0,0.0,0.0,0.0,0.0,0.0,0.0,-1.2346,-1.1939,-1.16,-1.1395,-1.1454,-1.0522,-1.0439,-1.2511,0.0,0.0,-1.321,-1.2675,-1.2025,-1.1375,-1.1693,-1.1907,-1.1372,-1.1806,-1.2161,0.0,0.0,0.0,0.0,0.0,0.0,0.0,0.0,-1.9034,-1.9279,0.0,-1.8531,0.0,0.0,0.0,0.0,0.0,-1.8393,0.0,0.0,-2.0645,-2.1055,-2.1715,-2.0734,-2.0319,-2.0499,-2.0626,-2.0384,-1.9683,-1.7058,0.0,0.0,0.0,0.0,0.0,0.0,-1.5291,-1.6699,-1.7473,-1.7834,-1.7839,-1.7817,-1.7658,-1.7356,-1.6131,-1.5242,-1.4748,-1.2954,-1.1895,-1.1801,-1.0028,0.0,0.0,0.0,0.0,0.0,0.0,0.0,0.0,0.0,0.0,0.0,0.0,0.0,0.0,0.0,0.0,0.0,0.0,0.0,0.0,-0.7453,0.0,0.0,0.0,0.0,0.0,0.0,0.0,0.0,0.0,0.0,-1.3416,-1.3591,-1.3882,-1.4457,0.0,0.0,0.0,0.0,-1.408,-1.6149,-1.4695,-1.3534,-1.4022,-1.3622,-1.306,-1.2563,0.0,0.0,-1.1728,-1.1544,-1.183,-1.2993,-1.3198,-1.321,-1.321,-1.3185,-1.3173,-1.3193,-1.3693,-1.3987,-1.3486,-1.3937,-1.4406,-2.3631,0.0,0.0,0.0,0.0,-2.0613,-2.0695,-2.0712,-2.0926,-2.1008,-2.1008,-2.0794,0.0,0.0,0.0,0.0,0.0,0.0,-2.1537,-2.1956,-2.2217,-2.2587,-2.3021,-2.2818,-2.2817,-2.2959,-2.2524,-2.2045,-2.1452,-1.9643,-1.7715,-1.575,0.0,0.0,0.0,0.0,-1.6525,-1.7473,-1.8217,-1.8589,-1.8589,-1.807,-1.7526,-1.6993,-1.6417,-1.5697,-1.4839,-1.4242,-1.3481,-1.2561,-1.1531,0.0,0.0,0.0,0.0,0.0,0.0,0.0,0.0,0.0,0.0,0.0,0.0,0.0,0.0,0.0,0.0,0.0,0.0,0.0,-0.8093,-0.8529,-0.8179,0.0,0.0,0.0,0.0,0.0,0.0,0.0,0.0,0.0,-1.5079,-1.5175,-1.5215,0.0,0.0,-1.5207,-1.4881,-1.553,-1.616,-1.6455,-1.5961,0.0,-1.4765,-1.4287,-1.403,-1.4167,-1.413,-1.3803,-1.2902,-1.2705,-1.2801,-1.3173,-1.321,-1.321,-1.321,-1.321,-1.3398,-1.3849,-1.4162,-1.4344,-1.4425,-1.4695,-1.4828,-2.7062,-2.5126,-2.419,-2.3757,-2.3712,-2.3996,-2.4129,-2.4146,-2.4462,-2.4612,-2.4562,-2.4246,-2.3462,-2.2326,-2.2132,0.0,0.0,0.0,-2.3848,-2.3881,-2.4166,-2.4414,-2.4607,-2.453,-2.4546,-2.4578,-2.3923,-2.3431,-2.3083,-2.164,-2.0264,-1.886,0.0,0.0,-1.6255,-1.7128,-1.7929,-1.8645,-1.9101,-1.9321,-1.9321,-1.8528,-1.7843,-1.727,-1.6698,-1.602,-1.5243,-1.4946,-1.4421,-1.3628,-1.2445,-1.1082,0.0,0.0,0.0,0.0,0.0,0.0,0.0,0.0,0.0,0.0,0.0,-0.4138,-0.4751,0.0,0.0,0.0,-0.7715,-0.8376,-0.8926,-0.9672,0.0,0.0,0.0,0.0,0.0,0.0,0.0,-1.4724,-1.5011,-1.5348,-1.6241,-1.6725,-1.6895,-1.6674,-1.6729,-1.6804,-1.6818,0.0,-1.7488,-1.6871,-1.6799,-1.6434,-1.5458,-1.4942,-1.4727,-1.4878,-1.4884,-1.4695,-1.4036,-1.3867,-1.4018,-1.4306,-1.3799,-1.3473,-1.4337,-1.45,-1.4632,-1.5071,-1.5184,-1.5196,-1.5248,-1.5387,-1.553,-2.9736,-3.0173,-2.8095,-2.7131,-2.7029,-2.7638,-2.7874,-2.7942,-2.8653,-2.8993,-2.8942,-2.823,-2.7486,-2.6742,-2.6082,0.0,-2.5598,-2.6075,-2.6283,-2.6298,-2.6234,-2.6272,-2.6364,-2.5916,-2.5693,-2.5676,-2.4931,-2.4592,-2.4508,-2.3141,-2.2465,-2.2398,-1.9642,-1.8504,-1.8978,-1.9046,-1.9406,-2.0086,-2.0086,-2.0065,-1.9985,-1.9094,-1.8378,-1.7907,-1.693,-1.6207,-1.5812,-1.5214,-1.4886,-1.4826,-1.3074,-1.2029,-1.1954,0.0,0.0,0.0,0.0,0.0,0.0,0.0,0.0,0.0,0.0,0.0,0.0,0.0,0.0,0.0,-0.9644,0.0,-1.0045,-1.0972,0.0,0.0,0.0,-1.1404,-1.1138,-1.172,-1.2799,-1.4513,0.0,0.0,-1.7075,-1.82,-1.8707,-1.7869,-1.8394,-1.886,-1.886,-1.8649,-1.8254,-1.7475,-1.7331,-1.7032,-1.6218,-1.5647,-1.528,-1.5162,-1.5041,-1.506,-1.5035,-1.5009,-1.5449,-1.6195,-1.4813,-1.4062,-1.6137,-1.635,-1.65,-1.6425,-1.645,-1.63,-1.5894,-1.612,-1.6387,-3.2459,-3.2557,-3.2036,-3.0835,-2.9262,-2.8873,-2.8704,-2.8721,-2.8925,-2.8993,-2.8976,-2.8807,-2.8281,-2.7519,-2.735,-2.7231,-2.7177,-2.7701,-2.7996,-2.8052,-2.7376,-2.7199,-2.7327,-2.6725,-2.6437,-2.6387,-2.5676,-2.5338,-2.5287,-2.4408,-2.3983,-2.3915,-2.2682,-2.1295,-1.9828,-2.0348,-2.0733,-2.0919,-2.0919,-2.0619,-2.0002,-1.9094,-1.8378,-1.7891,-1.693,-1.6207,-1.5827,-1.5649,-1.5559,-1.5559,-1.4616,-1.3989,-1.378,-1.21,0.0,0.0,0.0,0.0,0.0,0.0,0.0,0.0,0.0,-0.647,-0.7084,0.0,-0.8299,0.0,-0.9894,-1.1295,-1.2706,-1.3009,0.0,0.0,-1.3555,-1.4327,-1.4551,-1.4342,-1.5283,-1.8103,-1.7574,-1.7377,-1.8444,-1.9426,-1.9827,-1.9236,-1.9346,-1.9493,-1.949,-1.9176,-1.8822,-1.8495,-1.8403,-1.8123,-1.7317,-1.6628,-1.6145,-1.612,-1.612,-1.6132,-1.612,-1.6111,-1.6199,-1.6437,-1.6124,-1.5986,-1.64,-1.6513,-1.6513,-1.6513,-1.6513,-1.6484,-1.6325,-1.6412,-1.6513,-3.3592,-3.3863,-3.3541,-3.2882,-3.1968,-3.0922,-3.0482,-3.0448,-3.0127,-3.0161,-3.0465,-3.0465,-3.004,-2.9311,-2.933,-2.9293,-2.9289,-2.9563,-2.9561,-2.9297,-2.882,-2.8488,-2.8243,-2.7519,-2.7164,-2.7182,-2.6437,-2.6082,-2.6048,-2.5338,-2.4983,-2.4965,-2.4271,-2.3257,-2.2057,-2.1803,-2.1684,-2.1684,-2.1698,-2.1481,-2.0998,-1.9733,-1.8868,-1.8382,-1.7088,-1.6207,-1.5828,-1.5814,-1.5814,-1.5799,-1.5155,-1.4737,-1.4558,-1.2822,-1.1591,0.0,0.0,0.0,0.0,0.0,0.0,0.0,0.0,0.0,0.0,0.0,-1.0702,-1.1649,-1.246,-1.3457,-1.4752,-1.5061,-1.505,-1.4643,-1.562,-1.6186,-1.583,-1.5931,-1.6816,-1.8924,-1.9041,-1.9272,-2.0156,-2.0696,-2.0868,-2.0571,-2.006,-1.9723,-1.969,-1.9508,-1.9328,-1.9203,-1.9199,-1.8865,-1.7954,-1.7235,-1.682,-1.682,-1.6778,-1.6659,-1.6522,-1.6513,-1.6513,-1.6513,-1.6513,-1.6513,-1.6513,-1.6513,-1.6513,-1.6513,-1.6513,-1.6513,-1.6513,-1.6513,-1.6513,-3.4066,-3.4573,-3.3947,-3.4049,-3.4539,-3.3173,-3.2479,-3.2259,-3.1715,-3.1833,-3.2429,-3.2344,-3.1955,-3.1326,-3.1241,-3.119,-3.119,-3.119,-3.0852,-3.0243,-3.014,-2.9753,-2.9128,-2.8332,-2.7908,-2.7773,-2.7148,-2.6809,-2.6674,-2.6048,-2.5761,-2.5711,-2.4998,-2.4643,-2.4575,-2.3173,-2.2398,-2.2313,-2.2313,-2.2245,-2.2127,-2.0548,-1.9427,-1.8828,-1.7243,-1.6205,-1.5827,-1.5814,-1.5814,-1.5784,-1.5244,-1.4931,-1.4886,-1.3181,-1.2149,0.0,-1.0922,0.0,0.0,0.0,0.0,0.0,0.0,0.0,0.0,-1.1999,-1.3019,-1.5315,-1.5891,-1.623,-1.648,-1.7026,-1.7258,-1.7034,-1.7652,-1.7655,-1.6518,-1.7138,-1.8054,-1.8951,-2.0622,-2.1723,-2.1695,-2.1839,-2.1934,-2.162,-2.0961,-2.0262,-1.9768,-1.969,-1.9672,-1.9723,-1.9723,-1.931,-1.8475,-1.7821,-1.7413,-1.7331,-1.722,-1.6968,-1.6629,-1.6522,-1.6513,-1.6513,-1.6513,-1.6513,-1.6513,-1.6513,-1.6513,-1.6513,-1.6513,-1.6513,-1.6513,-1.6513,-1.6513,-3.5261,-3.5363,-3.5228,-3.5261,-3.5295,-3.4455,-3.3393,-3.2344,-3.2797,-3.3068,-3.3136,-3.2564,-3.2226,-3.2056,-3.1464,-3.119,-3.119,-3.119,-3.1123,-3.097,-3.0378,-3.0021,-2.9854,-2.9127,-2.8433,-2.7807,-2.7655,-2.7283,-2.6708,-2.6556,-2.6488,-2.6471,-2.5744,-2.5389,-2.5321,0.0,0.0,0.0,-2.2313,-2.2006,-2.1397,-2.0281,-1.92,-1.8113,-1.6993,0.0,-1.5827,-1.5814,-1.5814,-1.5799,-1.5664,0.0,0.0,0.0,0.0,0.0,0.0,0.0,0.0,0.0,0.0,0.0,-1.4903,-1.4634,-1.2819,-1.3118,-1.4027,-1.5477,-1.7604,-1.8691,-1.8131,-1.8561,-1.8895,-1.8917,-1.9771,-1.9989,-1.9109,-1.9163,-1.9937,-2.1867,-2.2723,-2.2867,-2.2203,-2.2718,-2.2817,-2.1979,-2.2368,-2.1934,-2.0037,-1.9783,-1.9723,-1.9723,-1.9723,-1.9599,-1.9284,-1.8798,-1.8311,-1.804,-1.7774,-1.7455,-1.6981,-1.6629,-1.6509,-1.65,-1.6513,-1.6513,-1.6513,-1.6513,-1.6513,-1.6513,-1.6513,-1.6513,-1.6513,-1.6513,-1.6513,-3.5616,0.0,-3.5616,-3.5616,0.0,-3.5194,-3.4404,-3.3393,-3.3389,-3.3389,-3.3406,-3.3372,-3.2987,-3.2293,-3.1921,-3.1546,-3.119,-3.119,-3.119,-3.1173,-3.0818,-3.0632,-3.0615,-2.9888,-2.933,-2.8922,-2.8162,-2.7621,-2.7232,-2.6877,-2.6708,-2.6708,-2.6319,-2.6133,-2.6099,-2.4616,-2.3289,-2.2163,-2.212,-2.1907,-2.1463,-2.0497,-1.9597,-1.8837,-1.751,0.0,0.0,0.0,0.0,0.0,0.0,0.0,0.0,0.0,0.0,-1.4781,-1.4152,-1.3777,-1.3807,-1.4679,-1.5397,-1.5711,-1.6622,-1.6622,-1.5321,-1.4975,-1.5441,-1.6993,-1.873,-1.9672,-1.9626,-1.9838,-2.0205,-2.0748,-2.0934,-2.1096,-2.1395,-2.0471,-2.0676,-2.2751,-2.3363,-2.3264,-2.2906,-2.3231,-2.334,-2.2757,-2.2877,-2.2823,-2.1759,-2.0501,-1.9723,-1.9723,-1.9723,-1.9672,-1.9614,-1.9435,-1.9068,-1.8563,-1.8212,-1.7942,-1.7604,-1.7073,-1.6663,-1.6543,-1.6513,-1.6513,-1.6513,-1.6513,-1.6513,-1.6513,-1.6513,-1.6513,-1.6513,-1.6513,-1.6513,-3.5616,-3.5616,-3.5616,-3.5616,-3.5616,-3.5616,-3.5245,-3.4641,0.0,0.0,0.0,-3.4286,-3.3833,-3.2682,-3.2429,-3.1972,-3.1393,-3.1258,-3.119,-3.119,-3.119,-3.119,-3.1173,-3.0581,-3.0243,-3.0057,-2.8686,-2.7942,-2.7773,-2.7046,-2.6708,-2.6708,-2.6708,-2.6539,-2.6201,-2.4893,-2.3428,-2.1951,-2.1838,-2.17,-2.1464,-2.0591,-1.9918,-1.9515,-1.8128,-1.7197,-1.6876,-1.6398,-1.6368,-1.6831,-1.6398,-1.6353,-1.6801,-1.5875,-1.5545,-1.6054,-1.5619,-1.5545,-1.6099,-1.6712,-1.7115,-1.7219,-1.7743,-1.7953,-1.7728,-1.6742,-1.6892,-1.8732,-1.9585,-2.0288,-2.0827,-2.1006,-2.1395,-2.2203,-2.1784,-2.2054,-2.3221,-2.1769,-2.1335,-2.314,-2.3458,-2.3414,-2.3522,-2.358,-2.3595,-2.352,-2.3212,-2.3017,-2.3206,-2.1799,-2.0412,-1.9842,-1.9723,-1.9723,-1.9708,-1.969,-1.9493,-1.9035,-1.8688,-1.8436,-1.8254,-1.7611,-1.6947,-1.6565,-1.65,-1.6513,-1.6513,-1.6513,-1.6513,-1.6513,-1.6513,-1.6513,-1.6513,-1.6513,-1.6513,-3.5616,-3.5616,-3.5616,-3.5616,-3.5616,-3.5616,-3.5532,-3.538,-3.4658,-3.4709,-3.5261,-3.4726,-3.4387,-3.4117,-3.2869,-3.2242,-3.2107,-3.1481,-3.119,-3.119,-3.119,-3.119,-3.119,-3.1089,-3.0717,-3.0074,-2.9247,-2.8467,-2.779,-2.7063,-2.6708,-2.6708,-2.6708,-2.5999,-2.4691,-2.4066,-2.2981,-2.1372,-2.1417,-2.1047,-2.0189,-1.9908,-1.9342,-1.847,-1.8145,-1.7849,-1.7579,-1.7459,-1.7474,-1.7548,-1.7474,-1.7474,-1.7549,-1.737,-1.734,-1.7429,-1.7355,-1.734,-1.7444,-1.8042,-1.8672,-1.9211,-1.9378,-1.8942,-1.7818,-1.7549,-1.8012,-1.9453,-2.0692,-2.144,-2.159,-2.2059,-2.2308,-2.2383,-2.2862,-2.3355,-2.3595,-2.3236,-2.3041,-2.352,-2.3573,-2.3523,-2.3538,-2.3566,-2.3595,-2.3595,-2.346,-2.349,-2.349,-2.331,-2.2084,-2.0322,-1.9723,-1.9723,-1.9902,-1.9738,-1.9743,-1.9599,-1.9242,-1.8974,-1.8893,-1.8062,-1.7206,-1.6595,-1.65,-1.6522,-1.6522,-1.6513,-1.6543,-1.6565,-1.6543,-1.6543,-1.6543,-1.6522,-1.65,-3.6485,-3.6789,-3.6417,-3.6248,-3.6214,-3.5769,-3.5616,-3.5583,-3.5267,-3.5284,-3.5532,-3.5245,-3.4878,-3.4404,-3.3372,-3.2662,-3.2259,-3.1549,-3.119,-3.119,-3.119,-3.119,-3.119,-3.119,-3.1021,-3.0649,-2.9534,-2.8805,-2.8383,-2.7266,-2.6708,-2.6708,-2.6607,-2.5715,-2.4148,-2.3686,-2.2585,-2.0762,-2.0958,-2.0799,-2.0239,-2.0109,-1.9773,-1.9252,-1.8796,-1.8434,-1.8253,-1.7893,-1.7878,-1.8222,-1.7908,-1.7863,-1.8207,-1.7908,-1.7878,-1.8207,-1.8237,-1.8418,-1.876,-1.942,-1.9914,-2.0228,-2.0572,-2.0543,-1.9929,-1.9178,-1.9361,-2.0681,-2.1964,-2.2592,-2.2298,-2.2523,-2.2778,-2.2996,-2.337,-2.3595,-2.3595,-2.3595,-2.3595,-2.3595,-2.3595,-2.3588,-2.3545,-2.3588,-2.3595,-2.3595,-2.3595,-2.3595,-2.3595,-2.3595,-2.3221,-2.1984,-2.0666,-2.0243,-2.0842,-2.0921,-2.0647,-2.0318,-1.9929,-1.954,-1.916,-1.8206,-1.7352,-1.6671,-1.6513,-1.6607,-1.682,-1.6884,-1.6871,-1.6871,-1.682,-1.6778,-1.6714,-1.6607,-1.65,-3.7388,-3.7838,-3.728,-3.6941,-3.6745,-3.5943,-3.5616,-3.5616,-3.56,-3.5616,-3.5616,-3.5616,-3.5284,-3.4692,-3.3812,-3.3085,-3.2476,-3.1596,-3.119,-3.119,-3.119,-3.119,-3.119,-3.119,-3.1123,-3.0818,-2.9619,-2.8908,-2.8604,-2.7368,-2.6674,-2.6607,-2.6418,-2.5443,-2.3786,-2.3363,-2.2191,-2.0405,-2.0478,-2.0495,-2.0323,-2.022,-2.0115,-1.9982,-1.942,-1.9028,-1.8897,-1.8433,-1.8388,-1.8867,-1.8433,-1.8386,-1.8867,-1.8431,-1.8371,-1.8852,-1.8927,-1.9211,-1.9869,-2.0408,-2.0748,-2.0927,-2.141,-2.1754,-2.1819,-2.0861,-2.0636,-2.1829,-2.2892,-2.3392,-2.3002,-2.2912,-2.3107,-2.3535,-2.3595,-2.3595,-2.3595,-2.3595,-2.3595,-2.3595,-2.3595,-2.3595,-2.3595,-2.3595,-2.3595,-2.3595,-2.3595,-2.3595,-2.3595,-2.3595,-2.3595,-2.3236,-2.1829,-2.1041,-2.2074,-2.2188,-2.171,-2.0927,-2.0433,-1.9918,-1.9266,-1.8338,-1.7557,-1.701,-1.6863,-1.7102,-1.7455,-1.7578,-1.7537,-1.7462,-1.731,-1.7149,-1.6939,-1.6693,-1.6522,-3.7855,-3.7905,-3.7855,-3.7415,-3.6728,-3.596,-3.5633,-3.5616,-3.5616,-3.5616,-3.5616,-3.5616,-3.5566,-3.5295,-3.4049,-3.3339,-3.3136,-3.1833,-3.119,-3.119,-3.119,-3.119,-3.119,-3.119,-3.0852,-3.0209,-2.9382,-2.8636,-2.7942,-2.7097,-2.6607,-2.6401,-2.61,-2.509,-2.3507,-2.2889,-2.1833,-2.0148,-1.996,-1.9836,-1.978,-1.9762,-1.9744,-1.9744,-1.9666,-1.9603,-1.9573,-1.9558,-1.9543,-1.9603,-1.9543,-1.951,-1.9573,-1.9525,-1.9543,-1.9588,-1.9603,-1.9899,-2.0528,-2.0658,-2.0987,-2.153,-2.1695,-2.2009,-2.2523,-2.1949,-2.1819,-2.2568,-2.3206,-2.3535,-2.3541,-2.349,-2.349,-2.3565,-2.3595,-2.3595,-2.3595,-2.3595,-2.3595,-2.3595,-2.3595,-2.3595,-2.3595,-2.3595,-2.3595,-2.3595,-2.3595,-2.3595,-2.3595,-2.3595,-2.3595,-2.3595,-2.3221,-2.2712,-2.2313,-2.2757,-2.2467,-2.1181,-2.058,-2.0184,-1.9534,-1.8741,-1.8049,-1.7962,-1.7808,-1.8036,-1.8484,-1.8635,-1.8436,-1.8078,-1.7821,-1.7563,-1.711,-1.6731,-1.6543,-3.8802,-3.9123,-3.8734,-3.7872,-3.6829,-3.6434,-3.6045,-3.5616,-3.5616,-3.5616,-3.5616,-3.5616,-3.5616,-3.5498,-3.4044,-3.3389,-3.3288,-3.1867,-3.119,-3.119,-3.119,-3.119,-3.119,-3.119,-3.0818,-3.0091,-2.9347,-2.8586,-2.7772,-2.6926,-2.6418,-2.6156,-2.5793,-2.4641,-2.2893,-2.2502,-2.1538,-1.9917,-1.9764,-1.9726,-1.9708,-1.9723,-1.9723,-1.9723,-1.9723,-1.9723,-1.9723,-1.9723,-1.9723,-1.9723,-1.9723,-1.9723,-1.9723,-1.9723,-1.9723,-1.9723,-2.0079,-2.0423,-2.0707,-2.1425,-2.1999,-2.2283,-2.2622,-2.2951,-2.3176,-2.2966,-2.2951,-2.3191,-2.346,-2.3595,-2.3595,-2.3595,-2.3595,-2.3595,-2.3595,-2.3595,-2.3595,-2.3595,-2.3595,-2.3595,-2.3595,-2.3595,-2.3595,-2.3595,-2.3595,-2.3595,-2.3595,-2.3595,-2.3595,-2.3595,-2.3595,-2.3595,-2.3595,-2.3415,-2.2936,-2.3176,-2.2981,-2.2213,-2.1739,-2.1302,-1.9905,-1.928,-1.8893,-1.8974,-1.9066,-1.9371,-1.9979,-1.9368,-1.8874,-1.8591,-1.8233,-1.7816,-1.7075,-1.6714,-1.6543,-3.9622,-3.9943,-3.9317,-3.8379,-3.7388,-3.6965,-3.6468,-3.5943,-3.5684,-3.5616,-3.5616,-3.5616,-3.5616,-3.5397,-3.4044,-3.3385,-3.3195,-3.1807,-3.1092,-3.1072,-3.1015,-3.1012,-3.0995,-3.1012,-3.0625,-2.9902,-2.9145,-2.8306,-2.7378,-2.6597,-2.6101,-2.5797,-2.5387,-2.4321,-2.2759,-2.2436,-2.1671,-2.04,-2.0262,-2.0247,-2.0243,-2.0082,-1.9869,-1.9738,-1.9723,-1.9723,-1.9723,-1.9723,-1.9723,-1.9723,-1.9723,-1.9723,-1.9723,-1.9723,-1.9783,-1.9989,-2.0423,-2.0868,-2.1216,-2.2164,-2.2778,-2.2957,-2.3392,-2.3595,-2.3595,-2.3595,-2.3595,-2.358,-2.3595,-2.3595,-2.3595,-2.3595,-2.3595,-2.3595,-2.3595,-2.3595,-2.3595,-2.3595,-2.3595,-2.3595,-2.3595,-2.3595,-2.3595,-2.3595,-2.3595,-2.3595,-2.3595,-2.3595,-2.3595,-2.3595,-2.3595,-2.3595,-2.3595,-2.358,-2.3595,-2.3565,-2.331,-2.2906,-2.2515,-2.1958,-2.0662,-2.0287,-2.0438,-2.0897,-2.075,-2.0558,-2.0713,-2.0112,-1.9369,-1.9176,-1.876,-1.8232,-1.7699,-1.7057,-1.6593,-4.0079,-3.9977,-3.9309,-3.8954,-3.8768,-3.7422,-3.6795,-3.6603,-3.5926,-3.5616,-3.5616,-3.5616,-3.5616,-3.5498,-3.4061,-3.336,-3.3085,-3.164,-3.0831,-3.0712,-3.0572,-3.0526,-3.0526,-3.0526,-3.0129,-2.938,-2.8652,-2.7613,-2.6337,-2.5917,-2.5629,-2.5403,-2.4899,-2.4131,-2.3116,-2.2819,-2.237,-2.1565,-2.1475,-2.153,-2.1485,-2.0961,-2.0363,-1.9842,-1.9723,-1.9723,-1.9723,-1.9723,-1.9723,-1.9723,-1.9723,-1.9723,-1.9705,-1.9753,-2.0064,-2.0587,-2.0737,-2.1306,-2.2328,-2.2658,-2.2957,-2.343,-2.355,-2.3595,-2.3595,-2.3595,-2.3595,-2.3595,-2.3595,-2.3595,-2.3595,-2.3595,-2.3595,-2.3595,-2.3595,-2.3595,-2.3595,-2.3595,-2.3595,-2.3595,-2.3595,-2.3595,-2.3595,-2.3595,-2.3595,-2.3595,-2.3595,-2.3595,-2.3595,-2.3595,-2.3595,-2.3595,-2.3595,-2.3595,-2.3595,-2.3595,-2.3325,-2.3026,-2.2832,-2.2607,-2.2263,-2.2054,-2.2443,-2.2772,-2.2742,-2.2352,-2.1653,-2.0921,-2.0233,-1.9785,-1.9243,-1.8741,-1.8209,-1.7298,-1.6807,-4.0113,-4.0079,-3.9825,-3.9453,-3.8886,-3.7922,-3.7229,-3.6728,-3.5921,-3.5616,-3.5616,-3.5616,-3.5616,-3.5532,-3.4044,-3.33,-3.3012,-3.132,-3.0414,-3.0241,-2.993,-2.9799,-2.9799,-2.9815,-2.9389,-2.8692,-2.8001,-2.6935,-2.5683,-2.531,-2.504,-2.4752,-2.4456,-2.3799,-2.2999,-2.2755,-2.2379,-2.1789,-2.1695,-2.1695,-2.171,-2.147,-2.1021,-2.0378,-1.9932,-1.9723,-1.9723,-1.9723,-1.9723,-1.9723,-1.9723,-1.9902,-2.0333,-2.0752,-2.1066,-2.1335,-2.1739,-2.2134,-2.2463,-2.2987,-2.3355,-2.355,-2.3595,-2.3595,-2.3595,-2.3595,-2.3595,-2.3595,-2.3595,-2.3595,-2.3595,-2.3595,-2.3595,-2.3595,-2.3595,-2.3595,-2.3595,-2.3595,-2.3595,-2.3595,-2.3595,-2.3595,-2.364,-2.3595,-2.3595,-2.3595,-2.3595,-2.3595,-2.3595,-2.3595,-2.3595,-2.3595,-2.3595,-2.3595,-2.3595,-2.3595,-2.3505,-2.3385,-2.3251,-2.3236,-2.3011,-2.2921,-2.3176,-2.3161,-2.3535,-2.3084,-2.1941,-2.1033,-2.0449,-1.9744,-1.9268,-1.9115,-1.8608,-1.8181,-1.7586,-4.0113,-4.0113,-4.0113,-3.98,-3.9242,-3.8328,-3.7618,-3.7043,-3.6056,-3.5616,-3.5616,-3.5616,-3.5616,-3.5363,-3.4066,-3.3431,-3.3232,-3.1537,-3.039,-2.9935,-2.9714,-2.9471,-2.9257,-2.918,-2.8903,-2.8364,-2.7491,-2.6481,-2.5393,-2.4929,-2.4578,-2.4302,-2.4105,-2.3691,-2.3083,-2.2987,-2.2727,-2.2368,-2.2308,-2.2323,-2.2278,-2.2099,-2.1834,-2.1335,-2.0677,-2.0112,-1.9753,-1.9723,-1.9723,-1.9738,-1.9899,-2.0333,-2.0991,-2.1455,-2.1799,-2.2039,-2.2433,-2.2733,-2.2772,-2.3266,-2.3595,-2.3595,-2.3595,-2.3595,-2.3595,-2.3595,-2.3595,-2.3595,-2.3595,-2.3595,-2.3595,-2.3595,-2.3595,-2.3595,-2.3595,-2.3595,-2.3595,-2.3595,-2.3595,-2.3595,-2.3595,-2.3714,-2.3976,-2.3969,-2.4073,-2.4178,-2.3939,-2.361,-2.3595,-2.3595,-2.3595,-2.3595,-2.3595,-2.3595,-2.3595,-2.3595,-2.3595,-2.3505,-2.3475,-2.3565,-2.3595,-2.3595,-2.3595,-2.3595,-2.3341,-2.2875,-2.214,-2.1192,-2.0408,-1.968,-1.9492,-1.9431,-1.9319,-1.9409,-1.8743,-4.0113,-4.0113,-4.0113,-4.0079,-3.9825,-3.8582,-3.7939,-3.7584,-3.6293,-3.5684,-3.5611,-3.5594,-3.5554,-3.529,-3.4059,-3.3674,-3.3668,-3.2249,-3.0893,-2.9998,-2.9964,-2.958,-2.8897,-2.8724,-2.8576,-2.8373,-2.729,-2.6318,-2.5497,-2.4771,-2.4296,-2.4094,-2.3888,-2.3694,-2.3565,-2.3505,-2.3535,-2.343,-2.34,-2.346,-2.3505,-2.2972,-2.2643,-2.2508,-2.1934,-2.1085,-1.9887,-1.9842,-1.9902,-1.9932,-2.0393,-2.1002,-2.159,-2.1814,-2.2054,-2.2583,-2.2733,-2.3017,-2.346,-2.3565,-2.3595,-2.3625,-2.3625,-2.3699,-2.3744,-2.3729,-2.3744,-2.3774,-2.3834,-2.3759,-2.367,-2.367,-2.367,-2.3595,-2.3595,-2.3595,-2.3595,-2.3595,-2.3595,-2.361,-2.367,-2.4036,-2.4635,-2.4747,-2.4784,-2.4993,-2.4522,-2.3759,-2.3655,-2.3595,-2.3595,-2.3595,-2.3595,-2.3595,-2.3595,-2.3595,-2.3595,-2.358,-2.3565,-2.3595,-2.3595,-2.3595,-2.3595,-2.3595,-2.3595,-2.3143,-2.2549,-2.1629,-2.0954,-2.0329,-2.0142,-1.9826,-1.9775,-1.975,-1.9711,-4.0113,-4.0113,-4.0113,-4.0113,-3.9977,-3.9056,-3.8396,-3.7838,-3.6823,-3.6101,-3.5588,-3.5429,-3.536,-3.505,-3.414,-3.3705,-3.3733,-3.2931,-3.1837,-3.0551,-2.9982,-2.9299,-2.8506,-2.8107,-2.7686,-2.7276,-2.6842,-2.6039,-2.5076,-2.4631,-2.4279,-2.3851,-2.3717,-2.3638,-2.3595,-2.3595,-2.3595,-2.3595,-2.3595,-2.3595,-2.3595,-2.3415,-2.3116,-2.2733,-2.2493,-2.1954,-2.116,-2.1085,-2.1085,-2.1051,-2.1276,-2.168,-2.2298,-2.2772,-2.3086,-2.3281,-2.331,-2.3355,-2.3535,-2.3595,-2.3595,-2.3684,-2.4014,-2.4261,-2.4306,-2.4448,-2.4545,-2.4635,-2.5054,-2.5069,-2.3984,-2.4036,-2.4066,-2.364,-2.3595,-2.361,-2.3714,-2.367,-2.3595,-2.3655,-2.3992,-2.4612,-2.5196,-2.533,-2.5382,-2.5615,-2.5226,-2.4747,-2.3924,-2.3804,-2.3595,-2.3595,-2.3595,-2.3804,-2.3909,-2.4014,-2.3999,-2.3879,-2.3774,-2.361,-2.3595,-2.3595,-2.3595,-2.3595,-2.3595,-2.3377,-2.2754,-2.2133,-2.1455,-2.0858,-2.0458,-2.0244,-2.0105,-1.9991,-1.9927,-4.0113,-4.0113,-4.0113,-4.0113,-4.0028,-3.9292,-3.8751,-3.8176,-3.7212,-3.6432,-3.5826,-3.5265,-3.4937,-3.4582,-3.3751,-3.3444,-3.3518,-3.3145,-3.2321,-3.1206,-3.0324,-2.9342,-2.8234,-2.775,-2.742,-2.7001,-2.6731,-2.6048,-2.5008,-2.4709,-2.4246,-2.3714,-2.3595,-2.3595,-2.3595,-2.3595,-2.3595,-2.3595,-2.3595,-2.3595,-2.3595,-2.3595,-2.3415,-2.3107,-2.3047,-2.2823,-2.2428,-2.2398,-2.2188,-2.1859,-2.1924,-2.2388,-2.3002,-2.337,-2.3595,-2.3595,-2.3595,-2.3595,-2.3595,-2.3595,-2.3595,-2.3714,-2.4216,-2.459,-2.4694,-2.5069,-2.5467,-2.5578,-2.5908,-2.5833,-2.4934,-2.4792,-2.4575,-2.3684,-2.3595,-2.3819,-2.4163,-2.4343,-2.4044,-2.4014,-2.438,-2.5315,-2.6048,-2.6063,-2.6123,-2.6228,-2.6123,-2.6019,-2.5076,-2.4717,-2.4627,-2.4597,-2.4732,-2.4732,-2.4462,-2.4433,-2.4418,-2.4223,-2.4014,-2.3759,-2.3595,-2.3595,-2.3595,-2.3595,-2.3595,-2.3595,-2.3091,-2.2549,-2.1931,-2.1407,-2.0883,-2.061,-2.0409,-2.0144,-2.0067,-4.0113,-4.0113,-4.0113,-4.0113,-4.0028,-3.9394,-3.9056,-3.8734,-3.7493,-3.6636,-3.6107,-3.5042,-3.439,-3.3948,-3.3115,-3.2971,-3.3339,-3.2914,-3.2355,-3.1738,-3.0881,-2.9587,-2.8101,-2.7715,-2.754,-2.7435,-2.6961,-2.6288,-2.5486,-2.5008,-2.4291,-2.367,-2.3595,-2.3595,-2.3595,-2.3595,-2.3595,-2.3595,-2.3595,-2.3595,-2.3595,-2.3595,-2.358,-2.3535,-2.352,-2.349,-2.3415,-2.337,-2.2951,-2.2104,-2.2478,-2.2987,-2.3445,-2.3595,-2.3595,-2.3595,-2.3595,-2.3595,-2.3595,-2.3595,-2.3684,-2.3849,-2.438,-2.4709,-2.4978,-2.5818,-2.6381,-2.6357,-2.6447,-2.6357,-2.6102,-2.5854,-2.5091,-2.4014,-2.3729,-2.4133,-2.5285,-2.5555,-2.5211,-2.4388,-2.4896,-2.6093,-2.721,-2.6941,-2.7001,-2.7165,-2.6971,-2.6851,-2.6851,-2.6393,-2.6452,-2.6288,-2.6004,-2.5659,-2.5375,-2.5001,-2.4971,-2.4837,-2.4597,-2.4328,-2.3864,-2.3774,-2.361,-2.3595,-2.3984,-2.3864,-2.3495,-2.3006,-2.2505,-2.2006,-2.1492,-2.1055,-2.0709,-2.0472,-2.0511,-4.0113,-4.0113,-4.0113,-4.0113,-4.0096,-3.9876,-3.9429,-3.8789,-3.7782,-3.6743,-3.5754,-3.4593,-3.385,-3.3449,-3.2946,-3.2845,-3.2866,-3.2771,-3.2263,-3.1543,-3.0711,-2.9347,-2.8001,-2.765,-2.7585,-2.7555,-2.7345,-2.6761,-2.5674,-2.542,-2.4709,-2.3625,-2.361,-2.3595,-2.3595,-2.3595,-2.3595,-2.3595,-2.3595,-2.3595,-2.3595,-2.3595,-2.3595,-2.3595,-2.3595,-2.3595,-2.3595,-2.3595,-2.3505,-2.3191,-2.3251,-2.3415,-2.358,-2.3595,-2.3595,-2.3595,-2.3595,-2.361,-2.361,-2.3625,-2.3931,-2.459,-2.5046,-2.5555,-2.6048,-2.6791,-2.7195,-2.7255,-2.724,-2.6971,-2.6477,-2.6318,-2.5869,-2.5151,-2.4276,-2.4156,-2.5219,-2.6267,-2.6566,-2.548,-2.5884,-2.6701,-2.7255,-2.745,-2.736,-2.7495,-2.7435,-2.7315,-2.7375,-2.7405,-2.7081,-2.724,-2.7046,-2.6656,-2.6267,-2.5794,-2.554,-2.5465,-2.53,-2.5166,-2.4612,-2.4133,-2.3849,-2.3595,-2.4852,-2.5136,-2.4306,-2.3591,-2.3082,-2.2751,-2.2215,-2.1803,-2.1271,-2.0947,-2.116,-4.0113,-4.0113,-4.0113,-4.0113,-4.0113,-4.0113,-3.975,-3.8992,-3.7761,-3.6678,-3.5568,-3.4042,-3.314,-3.2765,-3.241,-3.2256,-3.2244,-3.2272,-3.1962,-3.1396,-3.0418,-2.9094,-2.792,-2.7585,-2.7585,-2.7585,-2.7585,-2.7016,-2.6138,-2.5764,-2.5016,-2.4156,-2.3729,-2.361,-2.3595,-2.3595,-2.3595,-2.3595,-2.3595,-2.3595,-2.3595,-2.3595,-2.3595,-2.3595,-2.3595,-2.3595,-2.3595,-2.3595,-2.3595,-2.358,-2.3595,-2.3595,-2.3595,-2.3595,-2.3595,-2.3595,-2.3595,-2.3699,-2.3984,-2.4007,-2.4403,-2.5159,-2.5704,-2.6153,-2.6587,-2.721,-2.7585,-2.7555,-2.7585,-2.733,-2.6991,-2.6808,-2.6425,-2.5689,-2.4995,-2.4983,-2.5971,-2.6986,-2.718,-2.6776,-2.6752,-2.7121,-2.757,-2.7585,-2.7585,-2.7585,-2.7585,-2.754,-2.757,-2.7585,-2.7585,-2.7585,-2.7585,-2.7195,-2.6986,-2.6617,-2.6422,-2.6303,-2.6183,-2.6019,-2.545,-2.4881,-2.5001,-2.5106,-2.5914,-2.6204,-2.5437,-2.4743,-2.4233,-2.3818,-2.3165,-2.2766,-2.2432,-2.1498,-2.1708,-4.0113,-4.0113,-4.0113,-4.0113,-4.0087,-4.0062,-3.9825,-3.9256,-3.7522,-3.6372,-3.5412,-3.3501,-3.2523,-3.2122,-3.1824,-3.1553,-3.1553,-3.164,-3.1387,-3.0863,-2.9978,-2.8753,-2.773,-2.7585,-2.7585,-2.7585,-2.7585,-2.718,-2.6527,-2.5974,-2.5307,-2.459,-2.3984,-2.3684,-2.3625,-2.3595,-2.3595,-2.3595,-2.3595,-2.3595,-2.3595,-2.3595,-2.3595,-2.3595,-2.3595,-2.3595,-2.3595,-2.3595,-2.3595,-2.3595,-2.3595,-2.3595,-2.3595,-2.3595,-2.3595,-2.3595,-2.3625,-2.3879,-2.4425,-2.4515,-2.4903,-2.563,-2.6282,-2.6671,-2.6866,-2.7315,-2.7585,-2.7585,-2.7585,-2.754,-2.747,-2.7225,-2.6672,-2.5985,-2.5762,-2.6252,-2.7074,-2.7484,-2.7585,-2.7585,-2.757,-2.7585,-2.7585,-2.7585,-2.7585,-2.7585,-2.7585,-2.7585,-2.7585,-2.7585,-2.7585,-2.7585,-2.7585,-2.7585,-2.751,-2.7465,-2.7375,-2.727,-2.7165,-2.6941,-2.6363,-2.6078,-2.6512,-2.6871,-2.6901,-2.7061,-2.7021,-2.635,-2.5607,-2.4876,-2.4211,-2.42,-2.4095,-2.2627,-2.2156,-4.0113,-4.0113,-4.0113,-4.0037,-3.9935,-3.9833,-3.9478,-3.8821,-3.6987,-3.5764,-3.4816,-3.3123,-3.2181,-3.187,-3.1626,-3.1496,-3.1481,-3.1421,-3.1017,-2.9924,-2.922,-2.8397,-2.772,-2.7585,-2.7585,-2.7585,-2.7585,-2.724,-2.6701,-2.6378,-2.5779,-2.4754,-2.447,-2.4133,-2.3699,-2.3625,-2.3595,-2.3595,-2.3595,-2.3595,-2.3595,-2.3595,-2.3595,-2.3595,-2.3595,-2.3595,-2.3595,-2.3595,-2.3595,-2.3595,-2.3595,-2.3595,-2.3595,-2.3595,-2.3595,-2.3595,-2.361,-2.3909,-2.4455,-2.4724,-2.5128,-2.6243,-2.6581,-2.6811,-2.7345,-2.7465,-2.7585,-2.7585,-2.7585,-2.7585,-2.7575,-2.7346,-2.6814,-2.619,-2.5605,-2.53,-2.5687,-2.6785,-2.7509,-2.7585,-2.7585,-2.7585,-2.7585,-2.7585,-2.7585,-2.7585,-2.7585,-2.7585,-2.7585,-2.7585,-2.7585,-2.7585,-2.7585,-2.7585,-2.7585,-2.7585,-2.7585,-2.7585,-2.7585,-2.757,-2.6991,-2.6856,-2.7136,-2.733,-2.7465,-2.7585,-2.757,-2.7465,-2.6613,-2.5942,-2.5305,-2.5159,-2.4708,-2.3453,-2.2745,-4.0113,-4.0113,-4.0113,-3.9986,-3.9738,-3.9461,-3.9017,-3.8135,-3.6266,-3.5087,-3.4264,-3.2642,-3.1813,-3.167,-3.1568,-3.1496,-3.1406,-3.1122,-3.0357,-2.9325,-2.8712,-2.8259,-2.772,-2.7585,-2.7585,-2.7585,-2.7585,-2.7345,-2.7091,-2.6731,-2.6243,-2.551,-2.4948,-2.4455,-2.4022,-2.3789,-2.361,-2.3595,-2.3595,-2.3595,-2.3595,-2.3595,-2.3595,-2.3595,-2.3595,-2.3595,-2.3595,-2.3595,-2.3595,-2.3595,-2.3595,-2.3595,-2.3595,-2.3595,-2.361,-2.3595,-2.361,-2.4118,-2.4754,-2.5143,-2.5674,-2.6941,-2.7061,-2.7255,-2.751,-2.7585,-2.7585,-2.7585,-2.7585,-2.76,-2.7575,-2.7346,-2.6881,-2.6244,-2.5619,-2.4963,-2.4723,-2.6147,-2.7585,-2.7585,-2.7585,-2.7585,-2.7585,-2.7585,-2.7585,-2.7585,-2.7585,-2.7585,-2.7585,-2.7585,-2.7585,-2.7585,-2.7585,-2.7585,-2.7585,-2.7585,-2.7585,-2.7585,-2.7585,-2.7585,-2.7375,-2.7405,-2.7525,-2.7585,-2.7585,-2.7585,-2.757,-2.7525,-2.751,-2.6991,-2.6421,-2.6029,-2.5499,-2.4703,-2.4082,-4.0113,-4.0113,-4.0113,-3.9935,-3.9609,-3.9076,-3.8432,-3.7527,-3.5569,-3.4394,-3.3737,-3.2193,-3.1553,-3.1496,-3.1511,-3.1466,-3.1152,-3.0627,-2.9714,-2.8801,-2.8442,-2.8079,-2.7675,-2.7585,-2.7585,-2.7585,-2.7585,-2.754,-2.739,-2.7076,-2.6716,-2.6393,-2.5555,-2.4874,-2.4545,-2.4103,-2.3744,-2.364,-2.3595,-2.3595,-2.3595,-2.3595,-2.3595,-2.3595,-2.3595,-2.3595,-2.3595,-2.3595,-2.3595,-2.3595,-2.3595,-2.3595,-2.3625,-2.3729,-2.3849,-2.3909,-2.4073,-2.4657,-2.551,-2.5824,-2.6288,-2.7495,-2.757,-2.7555,-2.7585,-2.7585,-2.7575,-2.7524,-2.7473,-2.7423,-2.7448,-2.7178,-2.6733,-2.6283,-2.5866,-2.5104,-2.4467,-2.5972,-2.7163,-2.7585,-2.7585,-2.7585,-2.7585,-2.7585,-2.7585,-2.7585,-2.7585,-2.7585,-2.7585,-2.7585,-2.7585,-2.7585,-2.7585,-2.7585,-2.7585,-2.8094,-2.8034,-2.7869,-2.7824,-2.7645,-2.763,-2.7585,-2.7585,-2.7585,-2.7585,-2.7585,-2.7585,-2.757,-2.757,-2.7585,-2.7354,-2.6775,-2.635,-2.5984,-2.5218,-4.0113,-4.0113,-4.0113,-3.9884,-3.9441,-3.8838,-3.787,-3.6552,-3.5002,-3.3798,-3.2972,-3.1971,-3.1496,-3.1496,-3.1496,-3.1212,-3.0672,-3.0058,-2.934,-2.8517,-2.8083,-2.769,-2.7645,-2.7585,-2.7585,-2.7585,-2.7585,-2.7585,-2.7585,-2.745,-2.7121,-2.6662,-2.6303,-2.5749,-2.4933,-2.444,-2.4081,-2.3752,-2.364,-2.3595,-2.3595,-2.3595,-2.3595,-2.3595,-2.3595,-2.3595,-2.3595,-2.3595,-2.3595,-2.3595,-2.3595,-2.3625,-2.3812,-2.4164,-2.4724,-2.5121,-2.5098,-2.542,-2.6153,-2.6408,-2.6821,-2.739,-2.7585,-2.7585,-2.7585,-2.756,-2.7458,-2.7244,-2.713,-2.7026,-2.6867,-2.6669,-2.6457,-2.6285,-2.6418,-2.6418,-2.596,-2.6283,-2.6956,-2.7071,-2.7291,-2.7575,-2.7524,-2.7524,-2.7575,-2.7575,-2.7585,-2.7585,-2.7585,-2.7585,-2.7585,-2.7585,-2.7585,-2.7585,-2.7585,-2.8319,-2.8663,-2.8423,-2.8229,-2.7794,-2.7735,-2.763,-2.7585,-2.7585,-2.7585,-2.7585,-2.7585,-2.7585,-2.7585,-2.7585,-2.7509,-2.7408,-2.6733,-2.6068,-2.5329,-3.9774,-4.0096,-4.0113,-3.979,-3.9249,-3.8446,-3.7364,-3.6034,-3.4513,-3.3382,-3.2586,-3.1854,-3.1496,-3.1496,-3.1496,-3.1001,-3.0148,-2.9759,-2.9037,-2.8188,-2.775,-2.7585,-2.7585,-2.7585,-2.7585,-2.7585,-2.7585,-2.7585,-2.7585,-2.7585,-2.7405,-2.7136,-2.6821,-2.6243,-2.5585,-2.4918,-2.4515,-2.4096,-2.3804,-2.361,-2.3595,-2.3595,-2.3595,-2.3595,-2.3595,-2.3595,-2.3595,-2.3595,-2.3595,-2.367,-2.3939,-2.4119,-2.4372,-2.4936,-2.5762,-2.6275,-2.5995,-2.589,-2.6467,-2.6617,-2.6886,-2.7465,-2.756,-2.7585,-2.7585,-2.7534,-2.724,-2.6707,-2.6604,-2.6392,-2.6068,-2.5987,-2.5906,-2.5946,-2.6457,-2.6551,-2.6312,-2.6258,-2.6176,-2.6295,-2.6753,-2.7055,-2.7372,-2.7397,-2.7499,-2.7549,-2.7585,-2.7585,-2.7585,-2.7585,-2.76,-2.7764,-2.7809,-2.7884,-2.8109,-2.8876,-2.928,-2.9056,-2.8861,-2.8453,-2.8034,-2.8019,-2.7779,-2.7585,-2.7585,-2.8064,-2.7585,-2.7585,-2.7585,-2.7585,-2.7534,-2.7357,-2.6747,-2.6068,-2.5356,-3.9411,-4.0113,-4.0113,-3.9747,-3.9109,-3.8193,-3.7025,-3.5615,-3.4152,-3.3066,-3.2258,-3.1765,-3.1496,-3.1496,-3.1346,-3.0823,-2.9681,-2.9621,-2.8873,-2.7869,-2.7615,-2.7585,-2.7585,-2.7585,-2.7585,-2.7585,-2.7585,-2.7585,-2.7585,-2.7585,-2.7585,-2.742,-2.7001,-2.6677,-2.6318,-2.5615,-2.5053,-2.447,-2.4111,-2.3804,-2.364,-2.3595,-2.3595,-2.3595,-2.3595,-2.3655,-2.3864,-2.3872,-2.4014,-2.4201,-2.4507,-2.4827,-2.5012,-2.5634,-2.6384,-2.6853,-2.6243,-2.6267,-2.6421,-2.6629,-2.6846,-2.7261,-2.7382,-2.7408,-2.7382,-2.7203,-2.6811,-2.5959,-2.5632,-2.5618,-2.5315,-2.5245,-2.5315,-2.5481,-2.5837,-2.6136,-2.5838,-2.5508,-2.4823,-2.516,-2.5992,-2.659,-2.6922,-2.7203,-2.7291,-2.7549,-2.7585,-2.7585,-2.7585,-2.7585,-2.766,-2.7959,-2.8109,-2.8203,-2.8682,-2.9654,-2.9894,-2.9759,-2.9699,-2.9475,-2.8963,-2.8513,-2.8408,-2.8562,-2.8876,-2.919,-2.8397,-2.763,-2.7585,-2.7585,-2.7585,-2.7357,-2.6855,-2.6149,-2.5412,-3.9411,-4.0113,-4.0113,-3.9747,-3.9125,-3.8193,-3.6771,-3.5143,-3.4016,-3.2781,-3.1795,-3.1555,-3.1496,-3.1496,-3.1496,-3.0776,-2.9924,-2.9547,-2.8888,-2.775,-2.7585,-2.7585,-2.7585,-2.7585,-2.7585,-2.7585,-2.7585,-2.7585,-2.7585,-2.7585,-2.7585,-2.7525,-2.745,-2.7225,-2.6707,-2.6273,-2.5764,-2.4829,-2.453,-2.4171,-2.3678,-2.3595,-2.3595,-2.3595,-2.3684,-2.3894,-2.4321,-2.4425,-2.4664,-2.5173,-2.5375,-2.55,-2.557,-2.5546,-2.56,-2.5905,-2.6179,-2.6611,-2.6585,-2.653,-2.653,-2.6718,-2.6774,-2.6893,-2.6841,-2.6551,-2.6001,-2.5203,-2.4851,-2.4639,-2.4595,-2.4607,-2.4765,-2.478,-2.4851,-2.5273,-2.5355,-2.5601,-2.4788,-2.4732,-2.5788,-2.6174,-2.6505,-2.6814,-2.7097,-2.7367,-2.76,-2.759,-2.7869,-2.8094,-2.8528,-2.8996,-2.8652,-2.8652,-2.9059,-3.0054,-3.0352,-3.0306,-3.0334,-3.0362,-3.0073,-2.9729,-3.0058,-3.0253,-3.0419,-3.0043,-2.9101,-2.8393,-2.7854,-2.7914,-2.8334,-2.7832,-2.7055,-2.634,-2.5828,-3.9056,-4.0096,-4.0113,-3.9764,-3.9109,-3.8177,-3.6933,-3.5459,-3.4061,-3.2961,-3.2093,-3.163,-3.1496,-3.1496,-3.1496,-3.0778,-2.9819,-2.9621,-2.8873,-2.7854,-2.76,-2.7585,-2.7585,-2.7585,-2.7585,-2.7585,-2.7585,-2.7585,-2.7585,-2.7585,-2.7585,-2.7585,-2.7585,-2.7495,-2.7051,-2.6752,-2.6318,-2.5674,-2.5023,-2.4276,-2.3789,-2.361,-2.361,-2.364,-2.3984,-2.4321,-2.4619,-2.5038,-2.5247,-2.5651,-2.5884,-2.6098,-2.6046,-2.5999,-2.5999,-2.574,-2.5687,-2.5783,-2.5919,-2.596,-2.5987,-2.5946,-2.5973,-2.6,-2.6014,-2.5632,-2.4936,-2.4002,-2.4147,-2.4086,-2.3981,-2.403,-2.3999,-2.4007,-2.4138,-2.4295,-2.48,-2.5445,-2.5443,-2.5451,-2.5531,-2.6003,-2.6526,-2.7004,-2.7366,-2.7657,-2.7741,-2.7694,-2.8442,-2.9385,-2.9909,-3.0552,-2.9851,-2.9134,-2.9601,-3.0275,-3.0601,-3.0644,-3.0687,-3.0774,-3.1123,-3.1137,-3.1036,-3.1065,-3.1034,-3.0494,-2.9687,-2.9654,-2.9624,-2.943,-2.9235,-2.8649,-2.8042,-2.7766,-2.7004,-3.865,-3.9825,-4.0028,-3.9747,-3.9125,-3.8222,-3.7076,-3.577,-3.4167,-3.3125,-3.2437,-3.1809,-3.1496,-3.1496,-3.1421,-3.0883,-2.9864,-2.9681,-2.8903,-2.8154,-2.7675,-2.76,-2.7585,-2.7585,-2.7585,-2.7585,-2.7585,-2.7585,-2.7585,-2.7585,-2.7585,-2.7585,-2.7585,-2.757,-2.7465,-2.7165,-2.6737,-2.6363,-2.5187,-2.4515,-2.4223,-2.3984,-2.4044,-2.4238,-2.4545,-2.4933,-2.5158,-2.5531,-2.5854,-2.6273,-2.6572,-2.6733,-2.6552,-2.6416,-2.6171,-2.5756,-2.5314,-2.4921,-2.5035,-2.5078,-2.5147,-2.5189,-2.5189,-2.5231,-2.5203,-2.4696,-2.4353,-2.3816,-2.4072,-2.4012,-2.3775,-2.4035,-2.4103,-2.3995,-2.3813,-2.3753,-2.3998,-2.5184,-2.5959,-2.5988,-2.6054,-2.6301,-2.6807,-2.7319,-2.7706,-2.7983,-2.7959,-2.7815,-2.8687,-2.9894,-3.0662,-3.1154,-3.0838,-2.9993,-3.0041,-3.047,-3.0733,-3.0732,-3.0792,-3.1058,-3.1291,-3.1248,-3.1028,-3.1146,-3.1102,-3.114,-3.0485,-3.099,-3.1391,-3.0524,-2.9821,-2.9637,-2.9269,-2.8951,-2.8211,-3.8362,-3.9123,-3.9825,-3.9747,-3.9109,-3.8177,-3.7076,-3.5848,-3.4197,-3.311,-3.2348,-3.1824,-3.1496,-3.1496,-3.1436,-3.1092,-3.0387,-2.9834,-2.9205,-2.8532,-2.7949,-2.7809,-2.7764,-2.7735,-2.7645,-2.7585,-2.7585,-2.7585,-2.7585,-2.7585,-2.7585,-2.7585,-2.7585,-2.7585,-2.757,-2.7435,-2.7021,-2.6527,-2.5442,-2.5098,-2.4993,-2.4889,-2.4784,-2.5217,-2.5486,-2.5824,-2.6378,-2.6443,-2.6618,-2.7106,-2.7175,-2.7149,-2.6832,-2.657,-2.6204,-2.5591,-2.4893,-2.4423,-2.4266,-2.4352,-2.4509,-2.4538,-2.4538,-2.4481,-2.4467,-2.4538,-2.44,-2.4412,-2.4644,-2.4716,-2.4632,-2.4687,-2.4625,-2.4487,-2.4519,-2.4983,-2.5222,-2.5695,-2.6348,-2.6449,-2.6523,-2.6582,-2.6711,-2.7136,-2.7552,-2.7801,-2.801,-2.7847,-2.8547,-2.9638,-3.069,-3.1247,-3.1407,-3.0995,-3.0587,-3.0493,-2.9962,-3.0023,-3.0237,-3.0762,-3.1307,-3.1146,-3.0881,-3.0023,-2.9825,-3.0583,-3.1322,-3.1409,-3.1287,-3.0765,-3.0378,-3.0335,-3.0147,-2.9833,-2.903,-3.8058,-3.843,-3.958,-3.9747,-3.9109,-3.8193,-3.7329,-3.6254,-3.4395,-3.2841,-3.1884,-3.163,-3.1496,-3.1496,-3.1466,-3.1137,-3.0552,-3.0313,-2.9759,-2.934,-2.8948,-2.8618,-2.8397,-2.8139,-2.8049,-2.7705,-2.76,-2.7585,-2.7585,-2.7585,-2.7585,-2.7585,-2.7585,-2.7585,-2.7585,-2.7555,-2.7225,-2.6692,-2.6093,-2.5869,-2.5465,-2.5435,-2.5337,-2.5555,-2.6108,-2.624,-2.648,-2.6807,-2.7028,-2.7119,-2.71,-2.6919,-2.6777,-2.6392,-2.5947,-2.5398,-2.4666,-2.4134,-2.3708,-2.3708,-2.3619,-2.3619,-2.3619,-2.3717,-2.3841,-2.3704,-2.391,-2.4298,-2.5259,-2.5511,-2.4876,-2.5039,-2.5222,-2.5134,-2.5372,-2.5925,-2.6235,-2.6424,-2.6487,-2.6487,-2.6521,-2.6561,-2.6663,-2.682,-2.7229,-2.7608,-2.7784,-2.8007,-2.8461,-2.9103,-3.0038,-3.0925,-3.1131,-3.0644,-3.0162,-2.9563,-2.8985,-2.9251,-2.9608,-3.0176,-3.0703,-3.0896,-3.0463,-2.9404,-2.8817,-2.9716,-3.0523,-3.1205,-3.1274,-3.0962,-3.099,-3.1138,-3.0918,-3.0566,-2.9958,-3.7567,-3.7719,-3.892,-3.9361,-3.9092,-3.8193,-3.7316,-3.6316,-3.4425,-3.2766,-3.1525,-3.1496,-3.1496,-3.1496,-3.1481,-3.1316,-3.0881,-3.0582,-3.0253,-2.9894,-2.9579,-2.9325,-2.8981,-2.8637,-2.8308,-2.7914,-2.763,-2.7585,-2.7585,-2.7585,-2.7585,-2.7585,-2.7585,-2.7585,-2.7585,-2.7555,-2.7345,-2.7001,-2.6602,-2.6611,-2.6168,-2.6019,-2.6123,-2.6243,-2.6731,-2.6773,-2.6762,-2.685,-2.6779,-2.6642,-2.6472,-2.6283,-2.6136,-2.5947,-2.5619,-2.5118,-2.4609,-2.4089,-2.3691,-2.3348,-2.3226,-2.3505,-2.3513,-2.3576,-2.3509,-2.3384,-2.3581,-2.4645,-2.5707,-2.616,-2.5285,-2.5661,-2.5799,-2.5724,-2.5921,-2.6361,-2.6373,-2.6487,-2.6487,-2.6487,-2.6521,-2.6533,-2.6555,-2.6658,-2.6828,-2.7083,-2.7142,-2.7181,-2.7306,-2.8059,-2.9071,-2.9962,-3.0688,-3.0025,-2.93,-2.8907,-2.8602,-2.8436,-2.8821,-2.9341,-2.9822,-3.0068,-2.9532,-2.8111,-2.796,-2.8931,-2.9761,-3.0538,-3.0984,-3.1277,-3.1292,-3.1233,-3.1174,-3.0835,-3.1026,-3.6863,-3.6914,-3.7686,-3.8422,-3.8884,-3.8145,-3.7044,-3.5786,-3.4152,-3.2706,-3.1585,-3.1496,-3.1496,-3.1496,-3.1496,-3.1406,-3.1256,-3.0823,-3.0552,-3.0432,-3.0148,-2.9744,-2.9442,-2.9101,-2.8846,-2.8487,-2.8188,-2.7944,-2.769,-2.7764,-2.772,-2.76,-2.7585,-2.7585,-2.7585,-2.7585,-2.757,-2.7465,-2.6926,-2.7016,-2.7056,-2.6772,-2.6837,-2.7026,-2.7165,-2.7073,-2.685,-2.6541,-2.6365,-2.6082,-2.5687,-2.5508,-2.5425,-2.5439,-2.5203,-2.4852,-2.4481,-2.4118,-2.3822,-2.336,-2.347,-2.3816,-2.3853,-2.4104,-2.4299,-2.4036,-2.3822,-2.5084,-2.6013,-2.6436,-2.6373,-2.6386,-2.6298,-2.6298,-2.6436,-2.6487,-2.6487,-2.6487,-2.6487,-2.6487,-2.6487,-2.6487,-2.6487,-2.6521,-2.6521,-2.6586,-2.6543,-2.6521,-2.6589,-2.7053,-2.8072,-2.8853,-2.9687,-2.93,-2.8634,-2.846,-2.8214,-2.798,-2.8026,-2.8481,-2.8899,-2.917,-2.8306,-2.685,-2.7087,-2.7993,-2.8962,-2.9884,-3.0282,-3.0687,-3.0969,-3.0999,-3.1014,-3.1073,-3.1146,-3.6749,-3.6706,-3.7352,-3.7553,-3.7331,-3.6706,-3.595,-3.5041,-3.3575,-3.2318,-3.1645,-3.1496,-3.1496,-3.1496,-3.1496,-3.1496,-3.1436,-3.1406,-3.1167,-3.1092,-3.0851,-3.0582,-3.0223,-2.9879,-2.9594,-2.9295,-2.8948,-2.8558,-2.8278,-2.8274,-2.7944,-2.7735,-2.772,-2.7585,-2.7585,-2.7585,-2.7585,-2.7555,-2.7365,-2.734,-2.7418,-2.7164,-2.7033,-2.7181,-2.7049,-2.6814,-2.6472,-2.6082,-2.5715,-2.5356,-2.4964,-2.4781,-2.4753,-2.4766,-2.4652,-2.4381,-2.4102,-2.4003,-2.3905,-2.3759,-2.3778,-2.4067,-2.4368,-2.4619,-2.472,-2.4512,-2.487,-2.5435,-2.616,-2.6436,-2.6461,-2.6461,-2.6411,-2.6411,-2.6487,-2.6487,-2.6487,-2.6487,-2.6487,-2.6487,-2.6487,-2.66,-2.6637,-2.6826,-2.6851,-2.665,-2.6625,-2.6524,-2.6521,-2.6533,-2.7134,-2.7743,-2.8338,-2.8208,-2.7993,-2.7789,-2.763,-2.741,-2.7343,-2.753,-2.7881,-2.8274,-2.7796,-2.6692,-2.6794,-2.7053,-2.7993,-2.8867,-2.9526,-2.996,-3.0235,-3.0538,-3.0583,-3.0718,-3.0911,-3.6291,-3.6179,-3.6384,-3.6166,-3.5646,-3.5556,-3.5033,-3.3998,-3.2718,-3.1884,-3.1555,-3.1496,-3.1496,-3.1496,-3.1496,-3.1496,-3.1496,-3.1496,-3.1496,-3.1496,-3.1481,-3.1167,-3.0883,-3.0597,-3.0193,-2.9924,-2.9651,-2.9307,-2.8951,-2.8936,-2.8742,-2.8453,-2.8064,-2.8049,-2.7944,-2.7824,-2.7585,-2.7585,-2.75,-2.7454,-2.7335,-2.706,-2.6811,-2.663,-2.6377,-2.6068,-2.5701,-2.5328,-2.4964,-2.4595,-2.4279,-2.4047,-2.406,-2.4002,-2.3943,-2.375,-2.3889,-2.3882,-2.3959,-2.4538,-2.4582,-2.4669,-2.4933,-2.5172,-2.5322,-2.541,-2.5548,-2.5971,-2.6298,-2.6411,-2.6487,-2.6487,-2.6587,-2.66,-2.6625,-2.6637,-2.66,-2.6612,-2.6964,-2.6914,-2.6977,-2.7002,-2.6989,-2.7128,-2.7268,-2.704,-2.6776,-2.6675,-2.6625,-2.6751,-2.6964,-2.7639,-2.778,-2.7616,-2.7441,-2.708,-2.6952,-2.6854,-2.6897,-2.6973,-2.6985,-2.7343,-2.6952,-2.6726,-2.6726,-2.6829,-2.7154,-2.7809,-2.8739,-2.9261,-2.9481,-2.9777,-3.004,-3.0328,-3.0539,-3.5498,-3.5228,-3.4793,-3.4374,-3.4105,-3.4698,-3.4048,-3.2496,-3.1839,-3.1525,-3.1496,-3.1496,-3.1496,-3.1496,-3.1496,-3.1496,-3.1496,-3.1496,-3.1496,-3.1496,-3.1496,-3.1406,-3.1241,-3.0883,-3.0702,-3.0402,-3.0133,-2.9953,-2.9666,-2.9415,-2.9412,-2.9322,-2.8816,-2.8693,-2.8483,-2.8139,-2.7769,-2.7609,-2.7499,-2.7321,-2.7037,-2.6657,-2.6324,-2.6028,-2.566,-2.5301,-2.4951,-2.461,-2.4237,-2.3842,-2.3442,-2.3245,-2.3155,-2.3125,-2.3095,-2.3314,-2.3759,-2.3947,-2.4362,-2.5059,-2.541,-2.5448,-2.5573,-2.5984,-2.616,-2.6185,-2.6197,-2.6248,-2.6449,-2.6461,-2.6487,-2.665,-2.6813,-2.6839,-2.6876,-2.6851,-2.6813,-2.704,-2.7494,-2.7682,-2.7821,-2.7846,-2.7758,-2.7821,-2.772,-2.7532,-2.7293,-2.7128,-2.714,-2.7417,-2.7731,-2.8347,-2.8185,-2.7366,-2.6989,-2.6722,-2.6656,-2.6671,-2.6636,-2.6645,-2.6589,-2.6624,-2.6589,-2.6589,-2.6521,-2.6658,-2.6884,-2.7443,-2.8241,-2.8661,-2.9153,-2.931,-2.9701,-2.987,-3.016,-3.5435,-3.5111,-3.4553,-3.396,-3.3372,-3.298,-3.2408,-3.1779,-3.1555,-3.1496,-3.1496,-3.1496,-3.1496,-3.1496,-3.1496,-3.1496,-3.1496,-3.1496,-3.1496,-3.1496,-3.1496,-3.1496,-3.1406,-3.1256,-3.1182,-3.1122,-3.0913,-3.0597,-3.0193,-2.9924,-2.9669,-2.9517,-2.943,-2.9352,-2.9071,-2.8652,-2.8081,-2.7616,-2.7465,-2.6997,-2.6563,-2.6095,-2.5715,-2.53,-2.4922,-2.4582,-2.4308,-2.4063,-2.3783,-2.3484,-2.3245,-2.3095,-2.3095,-2.312,-2.3195,-2.3715,-2.4004,-2.428,-2.4996,-2.5423,-2.5749,-2.6097,-2.6185,-2.6285,-2.6449,-2.6487,-2.6487,-2.6487,-2.6499,-2.6512,-2.6675,-2.6864,-2.714,-2.7354,-2.7454,-2.757,-2.762,-2.8097,-2.8536,-2.8599,-2.8725,-2.8436,-2.8373,-2.8298,-2.8185,-2.8047,-2.7908,-2.7733,-2.7781,-2.8108,-2.8334,-2.8913,-2.8435,-2.7517,-2.6939,-2.6587,-2.6537,-2.6487,-2.6487,-2.6487,-2.6521,-2.6521,-2.6487,-2.6487,-2.6487,-2.6487,-2.6555,-2.7229,-2.8045,-2.868,-2.917,-2.9202,-2.9265,-2.9432,-2.9775,-3.5373,-3.4947,-3.426,-3.3407,-3.252,-3.1925,-3.1612,-3.1496,-3.1496,-3.1496,-3.1496,-3.1496,-3.1496,-3.1496,-3.1496,-3.1496,-3.1496,-3.1496,-3.1496,-3.1496,-3.1496,-3.1496,-3.1496,-3.1496,-3.1451,-3.1496,-3.1466,-3.1182,-3.0836,-3.0627,-3.0402,-3.0402,-3.0163,-2.9968,-2.9759,-2.9298,-2.8687,-2.7986,-2.7366,-2.665,-2.6084,-2.5481,-2.495,-2.4605,-2.4245,-2.3966,-2.3819,-2.3628,-2.348,-2.33,-2.3138,-2.3095,-2.3183,-2.3308,-2.354,-2.4029,-2.4544,-2.4908,-2.5448,-2.5833,-2.6147,-2.6373,-2.6487,-2.6487,-2.6474,-2.6487,-2.6487,-2.6487,-2.6524,-2.6587,-2.6851,-2.714,-2.7555,-2.7908,-2.8172,-2.8448,-2.8875,-2.9365,-2.9515,-2.9553,-2.9352,-2.9001,-2.8825,-2.875,-2.8787,-2.8875,-2.8913,-2.885,-2.885,-2.9038,-2.9063,-2.9289,-2.8561,-2.7643,-2.714,-2.6738,-2.6637,-2.66,-2.6487,-2.6487,-2.6487,-2.6487,-2.6487,-2.6487,-2.6487,-2.6487,-2.6487,-2.7188,-2.7941,-2.861,-2.9449,-2.9894,-2.9585,-2.8835,-2.9331,-3.5327,-3.4811,-3.3919,-3.2772,-3.1596,-3.1524,-3.1511,-3.1496,-3.1496,-3.1496,-3.1496,-3.1496,-3.1496,-3.1496,-3.1496,-3.1496,-3.1496,-3.1496,-3.1496,-3.1496,-3.1496,-3.1496,-3.1496,-3.1496,-3.1496,-3.1496,-3.1481,-3.1436,-3.1466,-3.1256,-3.1167,-3.1451,-3.0883,-3.0612,-3.0507,-2.9953,-2.9359,-2.8713,-2.7531,-2.6507,-2.5799,-2.501,-2.4207,-2.4003,-2.3683,-2.3394,-2.3369,-2.3314,-2.3246,-2.3258,-2.3283,-2.3358,-2.3547,-2.376,-2.4042,-2.4393,-2.5008,-2.5423,-2.582,-2.6147,-2.6336,-2.6461,-2.6487,-2.6487,-2.6487,-2.6487,-2.6487,-2.6637,-2.6713,-2.6927,-2.7178,-2.7607,-2.8059,-2.8436,-2.875,-2.9013,-2.9377,-2.9666,-2.9679,-2.9716,-2.9654,-2.9352,-2.9352,-2.9289,-2.9239,-2.9553,-2.9603,-2.9566,-2.9603,-2.9716,-2.9666,-2.9578,-2.9026,-2.8284,-2.7681,-2.7291,-2.6914,-2.6751,-2.6663,-2.6499,-2.6512,-2.6512,-2.6487,-2.6487,-2.6487,-2.6487,-2.6624,-2.7255,-2.7954,-2.8826,-2.9666,-3.0619,-3.0305,-2.9559,-2.8763,-3.5327,-3.4787,-3.3511,-3.2407,-3.1568,-3.1496,-3.1496,-3.1496,-3.1496,-3.1496,-3.1496,-3.1496,-3.1496,-3.1496,-3.1496,-3.1496,-3.1496,-3.1496,-3.1496,-3.1496,-3.1496,-3.1496,-3.1496,-3.1496,-3.1496,-3.1496,-3.1496,-3.1496,-3.1496,-3.1496,-3.1496,-3.1481,-3.1197,-3.1152,-3.1107,-3.0567,-3.0017,-2.942,-2.8053,-2.6983,-2.6412,-2.572,-2.504,-2.4721,-2.4394,-2.428,-2.4261,-2.4311,-2.4349,-2.4399,-2.4387,-2.4399,-2.4424,-2.4525,-2.4788,-2.5172,-2.5448,-2.5812,-2.6135,-2.6361,-2.6449,-2.6487,-2.6487,-2.6487,-2.6487,-2.6487,-2.6587,-2.6788,-2.704,-2.7256,-2.7582,-2.8109,-2.8586,-2.8938,-2.9252,-2.9528,-2.9779,-2.9779,-2.9779,-2.9779,-2.9779,-2.9779,-2.9779,-2.9779,-2.9779,-2.9767,-2.9754,-2.9729,-2.9704,-2.9767,-2.9754,-2.9691,-2.9716,-2.9101,-2.846,-2.7832,-2.7454,-2.719,-2.709,-2.6864,-2.6575,-2.6512,-2.6487,-2.6487,-2.6487,-2.6487,-2.6658,-2.7121,-2.7901,-2.8858,-3.0122,-3.1136,-3.1988,-3.164,-2.9941,-3.5327,-3.4723,-3.3397,-3.2284,-3.1582,-3.1496,-3.1496,-3.1496,-3.1496,-3.1496,-3.1496,-3.1496,-3.1496,-3.1496,-3.1496,-3.1496,-3.1496,-3.1496,-3.1496,-3.1496,-3.1496,-3.1496,-3.1496,-3.1496,-3.1496,-3.1496,-3.1496,-3.1496,-3.1496,-3.1496,-3.1496,-3.1496,-3.1496,-3.1481,-3.1451,-3.1063,-3.0641,-3.0016,-2.8607,-2.7783,-2.7104,-2.6087,-2.5231,-2.4904,-2.4865,-2.4825,-2.48,-2.48,-2.4788,-2.4788,-2.4725,-2.4725,-2.4775,-2.4976,-2.5272,-2.5548,-2.5845,-2.616,-2.6386,-2.6487,-2.6487,-2.6487,-2.6512,-2.6512,-2.6487,-2.6512,-2.6738,-2.6977,-2.7507,-2.7795,-2.8172,-2.8624,-2.9001,-2.934,-2.9503,-2.9691,-2.9779,-2.9779,-2.9779,-2.9779,-2.9779,-2.9779,-2.9779,-2.9779,-2.9779,-2.9779,-2.9779,-2.9779,-2.9779,-2.9779,-2.9779,-2.9779,-2.9779,-2.9729,-2.9202,-2.8549,-2.7971,-2.7733,-2.7532,-2.704,-2.6663,-2.6549,-2.6487,-2.6512,-2.6512,-2.6487,-2.6726,-2.7288,-2.7934,-2.8835,-3.0267,-3.1685,-3.2542,-3.329,-3.2174,-3.5241,-3.4578,-3.3345,-3.2284,-3.1553,-3.1496,-3.1496,-3.1496,-3.1496,-3.1496,-3.1496,-3.1496,-3.1496,-3.1496,-3.1496,-3.1496,-3.1496,-3.1496,-3.1496,-3.1496,-3.1496,-3.1496,-3.1496,-3.1496,-3.1496,-3.1496,-3.1496,-3.1496,-3.1496,-3.1496,-3.1496,-3.1496,-3.1496,-3.1496,-3.1496,-3.1423,-3.1101,-3.0363,-2.9355,-2.8575,-2.7417,-2.6121,-2.5481,-2.5096,-2.5021,-2.5021,-2.5046,-2.5059,-2.5059,-2.5109,-2.5222,-2.5247,-2.5322,-2.5561,-2.5661,-2.5946,-2.6172,-2.6373,-2.6487,-2.6487,-2.6487,-2.6499,-2.6537,-2.66,-2.6612,-2.6776,-2.6989,-2.7419,-2.7984,-2.8386,-2.8762,-2.9038,-2.9402,-2.9591,-2.9704,-2.9779,-2.9779,-2.9779,-2.9779,-2.9779,-2.9779,-2.9779,-2.9779,-2.9779,-2.9779,-2.9779,-2.9779,-2.9779,-2.9779,-2.9779,-2.9779,-2.9779,-2.9779,-2.9716,-2.9641,-2.9252,-2.8586,-2.8285,-2.7996,-2.7316,-2.6751,-2.6587,-2.6512,-2.6549,-2.6537,-2.6901,-2.7161,-2.761,-2.8245,-2.8998,-3.0504,-3.2013,-3.2829,-3.3529,-3.4026,-3.4911,-3.3777,-3.3066,-3.2299,-3.1582,-3.1496,-3.1496,-3.1496,-3.1496,-3.1496,-3.1496,-3.1496,-3.1496,-3.1496,-3.1496,-3.1496,-3.1496,-3.1496,-3.1496,-3.1496,-3.1496,-3.1496,-3.1496,-3.1496,-3.1496,-3.1496,-3.1496,-3.1496,-3.1438,-3.1467,-3.1467,-3.1453,-3.1438,-3.1467,-3.1482,-3.1351,-3.1073,-3.0342,-2.9501,-2.8602,-2.7881,-2.6884,-2.6396,-2.6185,-2.6172,-2.6172,-2.6185,-2.6185,-2.6185,-2.6185,-2.6097,-2.6047,-2.6059,-2.6109,-2.6185,-2.6197,-2.6424,-2.6449,-2.6487,-2.6487,-2.6499,-2.6688,-2.6813,-2.7102,-2.7178,-2.7341,-2.7693,-2.8185,-2.8637,-2.8875,-2.9202,-2.944,-2.9716,-2.9716,-2.9779,-2.9779,-2.9779,-2.9779,-2.9779,-2.9779,-2.9779,-2.9779,-2.9779,-2.9779,-2.9779,-2.9779,-2.9779,-2.9779,-2.9779,-2.9779,-2.9779,-2.9779,-2.9779,-2.9779,-2.9754,-2.9716,-2.9252,-2.8925,-2.8511,-2.7896,-2.7291,-2.6612,-2.6562,-2.719,-2.753,-2.7846,-2.8048,-2.8157,-2.873,-2.9599,-3.0985,-3.2255,-3.3035,-3.3464,-3.3713]},{"header":{"parameterUnit":"m.s-1","parameterCategory":1,"la1":31.0,"la2":29.5877,"lo1":-88.7671,"lo2":-86.6584,"dy":0.0162,"dx":0.0185,"nx":115,"ny":88,"refTime":"2026-05-19T00:00:00:Z","depth":0,"parameterNumber":3,"parameterNumberName":"V-component_of_WINDS"},"data":[0.0,0.0,0.0,0.0,0.0,0.0,0.0,0.0,0.0,0.0,0.0,0.0,0.0,0.0,0.0,0.0,0.0,0.0,0.0,0.0,0.0,0.0,0.0,0.0,0.0,0.0,0.0,0.0,0.0,0.0,0.0,0.0,0.0,0.0,0.0,0.0,0.0,0.0,0.0,0.0,0.0,0.0,0.0,0.0,0.0,0.0,0.0,0.0,0.0,0.0,0.0,0.0,0.0,0.0,0.0,0.0,0.0,0.0,0.0,0.0,0.0,0.0,0.0,0.0,0.0,0.0,0.0,0.0,0.0,0.0,0.0,0.0,0.0,0.0,0.0,0.0,0.0,0.0,0.0,0.0,0.0,0.0,0.0,0.0,0.0,0.0,0.0,0.0,0.0,0.0,0.0,0.0,0.0,0.0,0.0,0.0,0.0,0.0,0.0,0.0,0.0,0.0,0.0,0.0,0.0,0.0,0.0,0.0,0.0,0.0,0.0,0.0,0.0,0.0,0.0,0.0,0.0,0.0,0.0,0.0,0.0,0.0,0.0,0.0,0.0,0.0,0.0,0.0,0.0,0.0,0.0,0.0,0.0,0.0,0.0,0.0,0.0,0.0,0.0,0.0,0.0,0.0,0.0,0.0,0.0,0.0,0.0,0.0,0.0,0.0,0.0,0.0,0.0,0.0,0.0,0.0,0.0,0.0,0.0,0.0,0.0,0.0,0.0,0.0,0.0,0.0,0.0,0.0,0.0,0.0,0.0,0.0,0.0,0.0,0.0,0.0,0.0,0.0,0.0,0.0,0.0,0.0,0.0,0.0,0.0,0.0,0.0,0.0,0.0,0.0,0.0,0.0,0.0,0.0,0.0,0.0,0.0,0.0,0.0,0.0,0.0,0.0,0.0,0.0,0.0,0.0,0.0,0.0,0.0,0.0,0.0,0.0,0.0,0.0,0.0,0.0,0.0,0.0,0.0,0.0,0.0,0.0,0.0,0.0,0.0,0.0,0.0,0.0,0.0,0.0,0.0,0.0,0.0,0.0,0.0,0.0,0.0,0.0,0.0,0.0,0.0,0.0,0.0,0.0,0.0,0.0,0.0,0.0,0.0,0.0,0.0,0.0,0.0,0.0,0.0,0.0,0.0,0.0,0.0,0.0,0.0,0.0,0.0,0.0,0.0,0.0,0.0,0.0,0.0,0.0,0.0,0.0,0.0,0.0,0.0,0.0,0.0,0.0,0.0,0.0,0.0,0.0,0.0,0.0,0.0,0.0,0.0,0.0,0.0,0.0,0.0,0.0,0.0,0.0,0.0,0.0,0.0,0.0,0.0,0.0,0.0,0.0,0.0,0.0,0.0,0.0,0.0,0.0,0.0,0.0,0.0,0.0,0.0,0.0,0.0,0.0,0.0,0.0,0.0,0.0,0.0,0.0,0.0,0.0,0.0,0.0,0.0,0.0,0.0,0.0,0.0,0.0,0.0,0.0,0.0,0.0,0.0,0.0,0.0,0.0,0.0,0.0,0.0,0.0,0.0,0.0,0.0,0.0,0.0,0.0,0.0,0.0,0.0,0.0,0.0,0.0,0.0,0.0,0.0,0.0,0.0,0.0,0.0,0.0,0.0,0.0,0.0,0.0,0.0,0.0,0.0,0.0,0.0,0.0,0.0,0.0,0.0,0.0,0.0,0.0,0.0,0.0,0.0,0.0,0.0,0.0,0.0,0.0,0.0,0.0,0.0,0.0,0.0,0.0,0.0,0.0,0.0,0.0,0.0,0.0,0.0,0.0,0.0,0.0,0.0,0.0,0.0,0.0,0.0,0.0,0.0,0.0,0.0,0.0,0.0,0.0,0.0,0.0,0.0,0.0,0.0,0.0,0.0,0.0,0.0,0.0,0.0,0.0,0.0,0.0,0.0,0.0,0.0,0.0,0.0,0.0,0.0,0.0,0.0,0.0,0.0,0.0,0.0,0.0,0.0,0.0,0.0,0.0,0.0,0.0,0.0,0.0,0.0,0.0,0.0,0.0,0.0,0.0,0.0,0.0,0.0,0.0,0.0,0.0,0.0,0.0,0.0,0.0,0.0,0.0,0.0,0.0,0.0,0.0,0.0,0.0,0.0,0.0,0.0,0.0,0.0,0.0,0.0,0.0,0.0,0.0,0.0,0.0,0.0,0.0,0.0,0.0,0.0,0.0,0.0,0.0,0.0,0.0,0.0,0.0,0.0,0.0,0.0,0.0,0.0,0.0,0.0,0.0,0.0,0.0,0.0,0.0,0.0,0.0,0.0,0.0,0.0,0.0,0.0,0.0,0.0,0.0,0.0,0.0,0.0,0.0,0.0,0.0,0.0,0.0,0.0,0.0,0.0,0.0,0.0,0.0,0.0,0.0,0.0,0.0,0.0,0.0,0.0,0.0,0.0,0.0,0.0,0.0,0.0,0.0,0.0,0.0,0.0,0.0,0.0,0.0,0.0,0.0,0.0,0.0,0.0,0.0,0.0,0.0,0.0,0.0,0.0,0.0,0.0,0.0,0.0,0.0,0.0,0.0,0.0,0.0,0.0,0.0,0.0,0.0,0.0,0.0,0.0,0.0,0.0,0.0,0.0,0.0,0.0,0.0,0.0,0.0,0.0,0.0,0.0,0.0,0.0,0.0,0.0,0.0,0.0,0.0,0.0,0.0,0.0,0.0,0.0,0.0,0.0,0.0,0.0,0.0,0.0,0.0,0.0,0.0,0.0,0.0,0.0,0.0,0.0,0.0,0.0,0.0,0.0,0.0,0.0,0.0,0.0,0.0,0.0,0.0,0.0,0.0,0.0,0.0,0.0,0.0,0.0,0.0,0.0,0.0,0.0,0.0,0.0,0.0,0.0,0.0,0.0,0.0,0.0,0.0,0.0,0.0,0.0,0.0,0.0,0.0,0.0,0.0,0.0,0.0,0.0,0.0,0.0,0.0,0.0,0.0,0.0,0.0,0.0,0.0,0.0,0.0,0.0,0.0,0.0,0.0,0.0,0.0,0.0,0.0,0.0,0.0,0.0,0.0,0.0,0.0,0.0,0.0,0.0,0.0,0.0,0.0,0.0,0.0,0.0,0.0,0.0,0.0,0.0,0.0,0.0,0.0,0.0,0.0,0.0,0.0,0.0,0.0,0.0,0.0,0.0,0.0,0.0,0.0,0.0,0.0,0.0,0.0,0.0,0.0,0.0,0.0,0.0,0.0,0.0,0.0,0.0,0.0,0.0,0.0,0.0,0.0,0.0,0.0,0.0,0.0,0.0,0.0,0.0,0.0,0.0,0.0,0.0,0.0,0.0,0.0,0.0,0.0,0.0,0.0,0.0,0.0,0.0,0.0,0.0,0.0,0.0,0.0,0.0,0.0,0.0,0.0,0.0,0.0,0.0,0.0,0.0,0.0,0.0,0.0,0.0,0.0,0.0,0.0,0.0,0.0,0.0,0.0,0.0,0.0,0.0,0.0,0.0,0.0,0.0,0.0,0.0,0.0,0.0,0.0,0.0,0.0,0.0,0.0,0.0,0.0,0.0,0.0,0.0,0.0,0.0,0.0,0.0,0.0,0.0,0.0,0.0,0.0,0.0,0.0,0.0,0.0,0.0,0.0,0.0,0.0,0.0,0.0,0.0,0.0,0.0,0.0,0.0,0.0,0.0,0.0,0.0,0.0,0.0,0.0,0.0,0.0,0.0,0.0,0.0,0.0,0.0,0.0,0.0,0.0,0.0,0.0,0.0,0.0,0.0,0.0,0.0,0.0,0.0,0.0,0.0,0.0,0.0,0.0,0.0,0.0,0.0,0.0,0.0,0.0,0.0,0.0,0.0,0.0,0.0,0.0,0.0,0.0,0.0,0.0,0.0,0.0,0.0,0.0,0.0,0.0,0.0,0.0,0.0,0.0,0.0,0.0,0.0,0.0,0.0,0.0,0.0,0.0,0.0,0.0,0.0,0.0,0.0,0.0,0.0,0.0,0.0,0.0,0.0,0.0,0.0,0.0,0.0,0.0,0.0,0.0,0.0,0.0,0.0,0.0,0.0,0.0,0.0,0.0,0.0,0.0,0.0,0.0,0.0,0.0,0.0,0.0,0.0,0.0,0.0,0.0,0.0,0.0,0.0,0.0,0.0,0.0,0.0,0.0,0.0,0.0,0.0,0.0,0.0,0.0,0.0,0.0,0.0,0.0,0.0,0.0,0.0,0.0,0.0,0.0,0.0,0.0,0.0,0.0,0.0,0.0,0.0,0.0,0.0,0.0,0.0,0.0,0.0,0.0,0.8181,0.0,0.0,0.0,0.0,0.0,0.0,0.0,0.0,0.0,0.0,0.0,0.0,0.0,0.0,0.0,0.0,0.0,0.0,0.0,0.0,0.0,0.0,0.0,0.0,0.0,0.0,0.0,0.0,0.0,0.0,0.0,0.0,0.0,0.0,0.0,0.0,0.0,0.0,0.0,0.0,0.0,0.0,0.0,0.0,0.0,0.0,0.0,0.0,0.0,0.0,0.0,0.0,0.0,0.0,0.0,0.0,0.0,0.0,0.0,0.0,0.0,0.0,0.0,0.0,0.0,0.0,0.0,0.0,0.0,0.0,0.0,0.0,0.0,0.0,0.0,0.0,0.0,0.0,0.0,0.0,0.0,0.0,0.0,0.0,0.0,0.0,0.0,0.0,0.0,0.0,0.0,0.0,0.0,0.0,0.0,0.0,0.0,0.0,0.0,0.0,0.0,0.0,0.0,0.0,0.0,0.0,0.0,0.0,0.0,0.0,0.8057,0.8144,0.8152,0.8152,0.8144,0.0,0.0,0.0,0.0,0.0,0.0,0.0,0.0,0.0,0.0,0.0,0.0,0.0,0.0,0.0,0.0,0.0,0.0,0.0,0.0,0.0,0.0,0.0,0.0,0.0,0.0,0.0,0.0,0.0,0.0,0.0,0.0,0.0,0.0,0.0,0.0,0.0,0.0,0.0,0.0,0.0,0.0,0.0,0.0,0.0,0.0,0.0,0.0,0.0,0.0,0.0,0.0,0.0,0.0,0.0,0.0,0.0,0.0,0.0,0.0,0.0,0.0,0.0,0.0,0.0,0.0,0.0,0.0,0.0,0.0,0.0,0.0,0.0,0.0,0.0,0.0,0.0,0.0,0.0,0.0,0.0,0.0,0.0,0.0,0.0,0.0,0.0,0.0,0.0,0.0,0.0,0.0,0.0,0.0,0.0,0.0,0.0,0.0,0.0,0.0,0.0,0.0,0.0,0.0,0.0,0.0,0.0,0.0,0.0,0.0,0.0,0.0,0.8363,0.8272,0.8056,0.0,0.0,0.0,0.0,0.0,0.0,0.0,0.0,0.0,0.0,0.0,0.0,0.0,0.0,0.0,0.0,0.0,0.0,0.0,0.0,0.0,0.0,0.0,0.0,0.0,0.0,0.0,0.0,0.0,0.0,0.0,0.0,0.0,0.0,0.0,0.0,0.0,0.0,0.0,0.0,0.0,0.0,0.0,0.0,0.0,0.0,0.0,0.0,0.0,0.0,0.0,0.0,0.0,0.0,0.0,0.0,0.0,0.0,0.0,0.0,0.0,0.0,0.0,0.0,0.0,0.0,0.0,0.0,0.0,0.0,0.0,0.0,0.0,0.0,0.0,0.0,0.0,0.0,0.0,0.0,0.0,0.0,0.0,0.0,0.0,0.0,0.0,0.0,0.0,0.0,0.0,0.0,0.0,0.0,0.0,0.0,0.0,0.0,0.0,0.0,0.0,0.0,0.0,0.0,0.0,0.0,0.0,0.0,0.0,0.0,0.884,0.8926,0.8918,0.0,0.7979,0.0,0.0,0.0,0.0,0.0,0.0,0.0,0.0,0.0,0.0,0.0,0.0,0.0,0.0,0.0,0.0,0.0,0.0,0.0,0.0,0.0,0.0,0.0,0.0,0.0,0.0,0.0,0.0,0.0,0.0,0.0,0.0,0.0,0.0,0.0,0.0,0.0,0.0,0.0,0.0,0.0,0.0,0.0,0.0,0.0,0.0,0.0,0.0,0.0,0.0,0.0,0.0,0.0,0.0,0.0,0.0,0.0,0.0,0.0,0.0,0.0,0.0,0.0,0.0,0.0,0.0,0.0,0.0,0.0,0.0,0.0,0.0,0.0,0.0,0.0,0.0,0.0,0.0,0.0,0.0,0.0,0.0,0.0,0.0,0.0,0.0,0.0,0.0,0.0,0.0,0.0,0.0,0.0,0.0,0.0,0.0,0.0,0.0,0.0,0.0,0.0,0.0,0.0,0.0,0.0,0.0,0.0,0.0,0.0,0.0,0.9093,0.9525,0.9531,0.9215,0.0,0.0,0.0,0.0,0.0,0.0,0.0,0.0,0.0,0.0,0.0,0.0,0.0,0.0,0.0,0.0,0.0,0.0,0.0,0.0,0.0,0.0,0.0,0.0,0.0,0.0,0.0,0.0,0.0,0.0,0.0,0.0,0.0,0.0,0.0,0.0,0.0,0.0,0.0,0.0,0.0,0.0,0.0,0.0,0.0,0.0,0.0,0.0,0.0,0.0,0.0,0.0,0.0,0.0,0.0,0.0,0.0,0.0,0.0,0.0,0.0,0.0,0.0,0.0,0.0,0.0,0.0,0.0,0.0,0.0,0.0,0.0,0.0,0.0,0.0,0.0,0.0,0.0,0.0,0.0,0.0,0.0,0.0,0.0,0.0,0.0,0.0,0.0,0.0,0.0,0.0,0.0,0.0,0.0,0.0,0.0,0.0,0.0,0.0,0.0,0.0,0.0,0.0,0.0,0.0,0.0,0.0,0.0,0.0,0.0,0.8559,0.0,0.9608,0.9809,0.9503,0.8657,0.0,0.0,0.0,0.0,0.0,0.0,0.0,0.0,0.0,0.0,0.0,0.0,0.0,0.0,0.0,0.0,0.0,0.0,0.0,0.0,0.0,0.0,0.0,0.0,0.0,0.0,0.0,0.0,0.0,0.0,0.0,0.0,0.0,0.0,0.0,0.0,0.0,0.0,0.0,0.0,0.0,0.0,0.0,0.0,0.0,0.0,0.0,0.0,0.0,0.0,0.0,0.0,0.0,0.0,0.0,0.0,0.0,0.0,0.0,0.0,0.0,0.0,0.0,0.0,0.0,0.0,0.0,0.0,0.0,0.0,0.0,0.0,0.0,0.0,0.0,0.0,0.0,0.0,0.0,0.0,0.0,0.0,0.0,0.0,0.0,0.0,0.0,0.0,0.0,0.0,0.0,0.0,0.0,0.0,0.0,0.0,0.0,0.0,0.0,0.0,0.0,0.0,0.0,0.0,0.0,0.0,0.0,0.0,0.0,0.8574,0.892,0.9003,0.9563,0.9287,0.0,0.0,0.0,0.0,0.0,0.0,0.0,0.0,0.0,0.0,0.0,0.0,0.0,0.0,0.0,0.0,0.0,0.0,0.0,0.0,0.0,0.0,0.0,0.0,0.0,0.0,0.0,0.0,0.0,0.0,0.0,0.0,0.0,0.0,0.0,0.0,0.0,0.0,0.0,0.0,0.0,0.0,0.0,0.0,0.0,0.0,0.0,0.0,0.0,0.0,0.0,0.0,0.0,0.0,0.0,0.0,0.0,0.0,0.0,0.0,0.0,0.0,0.0,0.0,0.0,0.0,0.0,0.0,0.0,0.0,0.0,0.0,0.0,0.0,0.0,0.0,0.0,0.0,0.0,0.0,0.0,0.0,0.0,0.0,0.0,0.0,0.0,0.0,0.0,0.0,0.0,0.0,0.0,0.0,0.0,0.0,0.0,0.0,0.0,0.0,0.0,0.0,0.0,0.0,0.0,0.0,0.0,0.0,0.0,0.7944,0.8978,0.9539,0.9557,0.9779,0.949,0.0,0.0,0.0,0.0,0.0,0.0,0.0,0.0,0.0,0.0,0.0,0.0,0.0,0.0,0.0,0.0,0.0,0.0,0.0,0.0,0.0,0.0,0.0,0.0,0.0,0.0,0.0,0.0,0.0,0.0,0.0,0.0,0.0,0.0,0.0,0.0,0.0,0.0,0.0,0.0,0.0,0.0,0.0,0.0,0.0,0.0,0.0,0.0,0.0,0.0,0.0,0.0,0.0,0.0,0.0,0.0,0.0,0.0,0.0,0.0,0.0,0.0,0.0,0.0,0.0,0.0,0.0,0.0,0.0,0.0,0.0,0.0,0.0,0.0,0.0,0.0,0.0,0.0,0.0,0.0,0.0,0.0,0.0,0.0,0.0,0.0,0.0,0.0,0.0,0.0,0.0,0.0,0.0,0.0,0.0,0.0,0.0,0.0,0.0,0.0,0.0,0.0,0.0,0.0,0.0,0.0,0.0,0.0,0.0,0.8267,0.0,0.9994,0.0,0.9779,0.9514,0.0,0.0,0.0,0.0,0.0,0.0,0.0,0.0,0.0,0.0,0.0,0.0,0.0,0.0,0.0,0.0,0.0,0.0,0.0,0.0,0.0,0.0,0.0,0.0,0.0,0.0,0.0,0.0,0.0,0.0,0.0,0.0,0.0,0.0,0.0,0.0,0.0,0.0,0.0,0.0,0.0,0.0,0.0,0.0,0.0,0.0,0.0,0.0,0.0,0.0,0.0,0.0,0.0,0.0,0.0,0.0,0.0,0.0,0.0,0.0,0.0,0.0,0.0,0.0,0.0,0.0,0.0,0.0,0.0,0.0,0.0,0.0,0.0,0.0,0.0,0.0,0.0,0.0,0.0,0.0,0.0,0.0,0.0,0.0,0.0,0.0,0.0,0.0,0.0,0.0,0.0,0.0,0.0,0.0,0.0,0.0,0.0,0.0,0.0,0.0,0.0,0.0,0.0,0.0,0.0,0.0,0.0,0.0,0.8267,0.892,1.0135,1.018,0.9003,0.9548,0.9304,0.0,0.0,0.0,0.0,0.0,0.0,0.0,0.0,0.0,0.0,0.0,0.0,0.0,0.0,0.0,0.0,0.0,0.0,0.0,0.0,0.0,0.0,0.0,0.0,0.0,0.0,0.0,0.0,0.0,0.0,0.0,0.0,0.0,0.0,0.0,0.0,0.0,0.0,0.0,0.0,0.0,0.0,0.0,0.0,0.0,0.0,0.0,0.0,0.0,0.0,0.0,0.0,0.0,0.0,0.0,0.0,0.0,0.0,0.0,0.0,0.0,0.0,0.0,0.0,0.0,0.0,0.0,0.0,0.0,0.0,0.0,0.0,0.0,0.0,0.0,0.0,0.0,0.0,0.0,0.0,0.0,0.0,0.0,0.0,0.0,0.0,0.0,0.0,0.0,0.0,0.0,0.0,0.0,0.0,0.0,0.0,0.0,0.0,0.0,0.0,0.0,0.0,0.0,0.0,0.0,0.0,0.0,0.0,0.0,0.9605,1.0398,1.0419,0.9629,0.933,0.9049,0.0,0.0,0.0,0.0,0.0,0.0,0.0,0.0,0.0,0.0,0.0,0.0,0.0,0.0,0.0,0.0,0.0,0.0,0.0,0.0,0.0,0.0,0.0,0.0,0.0,0.0,0.0,0.0,0.0,0.0,0.0,0.0,0.0,0.0,0.0,0.0,0.0,0.0,0.0,0.0,0.0,0.0,0.0,0.0,0.0,0.0,0.0,0.0,0.0,0.0,0.0,0.0,0.0,0.0,0.0,0.0,0.0,0.0,0.0,0.0,0.0,0.0,0.0,0.0,0.0,0.0,0.0,0.0,0.0,0.0,0.0,0.0,0.0,0.0,0.0,0.0,0.0,0.0,0.0,0.0,0.0,0.0,0.0,0.0,0.0,0.0,0.0,0.0,0.0,0.0,0.0,0.0,0.0,0.0,0.0,0.0,0.0,0.0,0.0,0.0,0.0,0.0,0.0,0.0,0.0,0.0,0.0,0.0,0.0,1.071,1.1445,1.1432,1.0599,0.994,0.9409,0.8946,0.0,0.0,0.0,0.0,0.0,0.0,0.0,0.0,0.0,0.0,0.0,0.0,0.0,0.0,0.0,0.0,0.0,0.0,0.0,0.0,0.0,0.0,0.0,0.0,0.0,0.0,0.0,0.0,0.0,0.0,0.0,0.0,0.0,0.0,0.0,0.0,0.0,0.0,0.0,0.0,0.0,0.0,0.0,0.0,0.0,0.0,0.0,0.0,0.0,0.0,0.0,0.0,0.0,0.0,0.0,0.0,0.0,0.0,0.0,0.0,0.0,0.0,0.0,0.0,0.0,0.0,0.0,0.0,0.0,0.0,0.0,0.0,0.0,0.0,0.0,0.0,0.0,0.0,0.0,0.0,0.0,0.0,0.0,0.0,0.0,0.0,0.0,0.0,0.0,0.0,0.0,0.0,0.0,0.0,0.0,0.0,0.0,0.0,0.0,0.0,0.0,0.0,0.0,0.0,0.0,0.0,0.0,0.0,1.2029,1.311,1.302,1.1767,1.1159,1.0269,0.0,0.0,0.0,0.0,0.0,0.0,0.0,0.0,0.0,0.0,0.0,0.0,0.0,0.0,0.0,0.0,0.0,0.0,0.0,0.0,0.0,0.0,0.0,0.0,0.0,0.0,0.0,0.0,0.0,0.0,0.0,0.0,0.0,0.0,0.0,0.0,0.0,0.0,0.0,0.0,0.0,0.0,0.0,0.0,0.0,0.0,0.0,0.0,0.0,0.0,0.0,0.0,0.0,0.0,0.0,0.0,0.0,0.0,0.0,0.0,0.0,0.0,0.0,0.0,0.0,0.0,0.0,0.0,0.0,0.0,0.0,0.0,0.0,0.0,0.0,0.0,0.0,0.0,0.0,0.0,0.0,0.0,0.0,0.0,0.0,0.0,0.0,0.0,0.0,0.0,0.0,0.0,0.0,0.0,0.0,0.0,0.0,0.0,0.0,0.0,0.0,0.0,0.0,0.0,0.0,0.0,0.0,0.0,0.0,1.2348,1.3668,1.3656,1.2278,1.177,1.1161,0.0,0.0,0.0,0.0,0.0,0.0,0.0,0.0,0.0,0.0,0.0,0.0,0.0,0.0,0.0,0.0,0.0,0.0,0.0,0.0,0.0,0.0,0.0,0.0,0.0,0.0,0.0,0.0,0.0,0.0,0.0,0.0,0.0,0.0,0.0,0.0,0.0,0.0,0.0,0.0,0.0,0.0,0.0,0.0,0.0,0.0,0.0,0.0,0.0,0.0,0.0,0.0,0.0,0.0,0.0,0.0,0.0,0.0,0.0,0.0,0.0,0.0,0.0,0.0,0.0,0.0,0.0,0.0,0.0,0.0,0.0,0.0,0.0,0.0,0.0,0.0,0.0,0.0,0.0,0.0,0.0,0.0,0.0,0.0,0.0,0.0,0.0,0.0,0.0,0.0,0.0,0.0,0.0,0.0,0.0,0.0,0.0,0.0,0.0,0.0,0.0,0.0,0.0,0.0,0.0,0.0,0.0,0.0,1.1226,1.2557,1.3724,1.3834,1.2852,1.2381,1.1848,0.0,0.0,0.0,0.0,0.0,0.0,0.0,0.0,0.0,0.0,0.0,0.0,0.0,0.0,0.0,0.0,0.0,0.0,0.0,0.0,0.0,0.0,0.0,0.0,0.0,0.0,0.0,0.0,0.0,0.0,0.0,0.0,0.0,0.0,0.0,0.0,0.0,0.0,0.0,0.0,0.0,0.0,0.0,0.0,0.0,0.0,0.0,0.0,0.0,0.0,0.0,0.0,0.0,0.0,0.0,0.0,0.0,0.0,0.0,0.0,0.0,0.0,0.0,0.0,0.0,0.0,0.0,0.0,0.0,0.0,0.0,0.0,0.0,0.0,0.0,0.0,0.0,0.0,0.0,0.0,0.0,0.0,0.0,0.0,0.0,0.0,0.0,0.0,0.0,0.0,0.0,0.0,0.0,0.0,0.0,0.0,0.0,0.0,0.0,0.0,0.0,0.0,0.0,0.0,0.0,0.0,0.0,0.0,1.1334,1.2653,1.3448,1.373,1.3461,1.3,1.245,0.0,0.0,0.0,0.0,0.0,0.0,0.0,0.0,0.0,0.0,0.0,0.0,0.0,0.0,0.0,0.0,0.0,0.0,0.0,0.0,0.0,0.0,0.0,0.0,0.0,0.0,0.0,0.0,0.0,0.0,0.0,0.0,0.0,0.0,0.0,0.0,0.0,0.0,0.0,0.0,0.0,0.0,0.0,0.0,0.0,0.0,0.0,0.0,0.0,0.0,0.0,0.0,0.0,0.0,0.0,0.0,0.0,0.0,0.0,0.0,0.0,0.0,0.0,0.0,0.0,0.0,0.0,0.0,0.0,0.0,0.0,0.0,0.0,0.0,0.0,0.0,0.0,0.0,0.0,0.0,0.0,0.0,0.0,0.0,0.0,0.0,0.0,0.0,0.0,0.0,0.0,0.0,0.0,0.0,0.0,0.0,0.0,0.0,0.0,0.0,0.0,0.0,0.0,0.0,0.0,0.0,0.0,0.0,1.1303,1.251,1.3268,1.3733,1.3864,1.3811,1.3299,0.0,0.0,0.0,0.0,0.0,0.0,0.0,0.0,0.0,0.0,0.0,0.0,0.0,0.0,0.0,0.0,0.0,0.0,0.0,0.0,0.0,0.0,0.0,0.0,0.0,0.0,0.0,0.0,0.0,0.0,0.0,0.0,0.0,0.0,0.0,0.0,0.0,0.0,0.0,0.0,0.0,0.0,0.0,0.0,0.0,0.0,0.0,0.0,0.9522,0.0,0.0,0.0,0.0,0.0,0.0,0.0,0.0,0.0,0.0,0.0,0.0,0.0,0.0,0.0,0.0,0.0,0.0,0.0,0.0,0.0,0.0,0.0,0.0,0.0,0.0,0.0,0.0,0.0,0.0,0.0,0.0,0.0,0.0,0.0,0.0,0.0,0.0,0.0,0.0,0.0,0.0,0.0,0.0,0.0,0.0,0.0,0.0,0.0,0.0,0.0,0.0,0.0,0.0,0.0,0.0,0.0,0.0,0.0,1.1676,1.2776,1.3217,1.3531,1.3769,1.392,1.3598,0.0,0.0,0.0,0.0,0.0,0.0,0.0,0.0,0.0,0.0,0.0,0.0,0.0,0.0,0.0,0.0,0.0,0.0,0.0,0.0,0.0,0.0,0.0,0.0,0.0,0.0,0.0,0.0,0.0,0.0,0.0,0.0,0.0,0.0,0.0,0.0,0.0,0.0,0.0,0.0,0.0,0.0,0.0,0.0,0.0,0.0,0.0,0.0,0.0,0.0,0.0,0.0,0.0,0.0,0.0,0.0,0.0,0.0,0.0,0.0,0.0,0.0,0.0,0.0,0.0,0.0,0.0,0.0,0.0,0.0,0.0,0.0,0.0,0.0,0.0,0.0,0.0,0.0,0.0,0.0,0.0,0.0,0.0,0.0,0.0,0.0,0.0,0.0,0.0,0.0,0.0,0.0,0.0,0.0,0.0,0.0,0.0,0.0,0.0,0.0,0.0,0.0,0.0,0.0,0.0,0.0,0.0,1.1023,1.2128,1.3148,1.321,1.3301,1.348,1.364,1.344,1.2858,0.0,0.0,0.0,0.0,0.0,0.0,0.0,0.0,0.0,0.0,0.0,0.0,0.0,0.0,0.0,0.0,0.0,0.0,0.0,0.0,0.0,0.0,0.0,0.0,0.0,0.0,0.0,0.0,0.0,0.0,0.0,0.0,0.0,0.0,0.0,0.0,0.0,0.0,0.6726,0.7908,0.0,0.0,0.0,0.0,0.0,0.0,0.0,0.0,0.7983,0.0,0.0,0.0,0.0,0.0,0.0,0.0,0.0,0.0,0.0,0.0,0.0,0.0,0.0,0.0,0.0,0.0,0.0,0.0,0.0,0.0,0.0,0.0,0.0,0.0,0.0,0.0,0.0,0.0,0.0,0.0,0.0,0.0,0.0,0.0,0.0,0.0,0.0,0.0,0.0,0.0,0.0,0.0,0.0,0.0,0.0,0.0,0.0,0.0,0.0,0.0,0.0,0.0,0.0,0.0,0.0,0.9905,1.1037,1.2115,1.319,1.321,1.3271,1.3395,1.3133,1.2716,1.2168,0.0,0.0,0.0,0.0,0.0,0.0,0.0,0.0,0.0,0.0,0.0,0.0,0.0,0.0,0.0,0.0,0.0,0.0,0.0,0.0,0.0,0.0,0.0,0.0,0.0,0.0,0.0,0.0,0.0,0.0,0.0,0.0,0.0,0.0,0.0,0.0,0.0,0.0,0.0,0.7768,0.8696,0.0,0.0,0.0,0.0,0.0,0.0,0.0,0.0,0.7611,0.0,0.0,0.0,0.0,0.0,0.0,0.0,0.0,0.0,0.0,0.0,0.0,0.0,0.0,0.0,0.0,0.0,0.0,0.0,0.0,0.0,0.0,0.0,0.0,0.0,0.0,0.0,0.0,0.0,0.0,0.0,0.0,0.0,0.0,0.0,0.0,0.0,0.0,0.0,0.0,0.0,0.0,0.0,0.0,0.0,0.0,0.0,0.0,0.0,0.0,0.0,0.0,0.0,0.0,0.0,1.0319,1.145,1.2388,1.3173,1.321,1.3232,1.3293,1.284,1.2204,0.0,0.0,0.0,0.0,0.0,0.0,0.0,0.0,0.0,0.0,0.0,0.0,0.0,0.0,0.0,0.0,0.0,0.0,0.0,0.0,0.0,0.0,0.0,0.0,0.0,0.0,0.0,0.0,0.0,0.0,0.0,0.0,0.0,0.0,0.0,0.0,0.0,0.0,0.0,0.0,0.8217,0.9041,0.9916,0.0,0.0,0.0,0.0,0.0,0.0,0.7966,0.7677,0.0,0.0,0.0,0.0,0.0,0.0,0.0,0.0,0.0,0.0,0.0,0.0,0.0,0.0,0.0,0.0,0.0,0.0,0.0,0.0,0.0,0.0,0.0,0.0,0.0,0.0,0.0,0.0,0.0,0.0,0.0,0.0,0.0,0.0,0.0,0.0,0.0,0.0,0.0,0.0,0.0,0.0,0.0,0.0,0.0,0.0,0.0,0.0,0.0,0.0,0.0,0.0,0.0,0.0,0.0,1.068,1.1823,1.2663,1.3185,1.321,1.321,1.3198,1.2588,1.1748,0.0,0.0,0.0,0.0,0.0,0.0,0.0,0.0,0.0,0.0,0.0,0.0,0.0,0.0,0.0,0.0,0.0,0.0,0.0,0.0,0.0,0.0,0.0,0.0,0.0,0.0,0.0,0.0,0.0,0.0,0.0,0.0,0.0,0.0,0.0,0.0,0.0,0.0,0.0,0.0,0.0,0.9578,0.9854,0.9288,0.0,0.0,0.0,0.0,0.9011,0.8667,0.0,0.0,0.0,0.0,0.0,0.0,0.0,0.0,0.0,0.0,0.0,0.0,0.0,0.0,0.0,0.0,0.0,0.0,0.0,0.0,0.0,0.0,0.0,0.0,0.0,0.0,0.0,0.0,0.0,0.0,0.0,0.0,0.0,0.0,0.0,0.0,0.0,0.0,0.0,0.0,0.0,0.0,0.0,0.0,0.0,0.0,0.0,0.0,0.0,0.0,0.0,0.0,0.0,0.0,0.0,0.0,1.061,1.1793,1.2663,1.3173,1.321,1.321,1.3198,1.2212,1.1374,0.0,0.0,0.0,0.0,0.0,0.0,0.0,0.0,0.0,0.0,0.0,0.0,0.0,0.0,0.0,0.0,0.0,0.0,0.0,0.0,0.0,0.0,0.0,0.0,0.0,0.0,0.0,0.0,0.0,0.0,0.0,0.0,0.0,0.0,0.0,0.0,0.0,0.0,0.0,0.0,0.0,1.0234,0.9935,1.0762,1.0572,0.0,0.0,1.0314,1.1379,1.0223,0.0,0.0,0.0,0.0,0.0,0.0,0.0,0.0,0.0,0.0,0.0,0.0,0.0,0.0,0.0,0.0,0.0,0.0,0.0,0.0,0.0,0.0,0.0,0.0,0.0,0.0,0.0,0.0,0.0,0.0,0.0,0.0,0.0,0.0,0.0,0.0,0.0,0.0,0.0,0.0,0.0,0.0,0.0,0.0,0.0,0.0,0.0,0.0,0.0,0.0,0.0,0.0,0.0,0.0,0.0,0.9882,1.0993,1.2207,1.2977,1.3185,1.321,1.321,1.321,1.245,1.1635,0.0,0.0,0.0,0.0,0.0,0.0,0.0,0.0,0.0,0.0,0.0,0.0,0.0,0.0,0.0,0.0,0.0,0.0,0.0,0.0,0.0,0.0,0.0,0.0,0.0,0.0,0.0,0.0,0.0,0.0,0.0,0.0,0.0,0.0,0.0,0.0,0.0,0.0,0.0,0.0,0.0,0.0,1.1022,1.1446,0.0,0.0,0.0,1.2055,1.1915,0.0,0.0,0.0,0.0,0.0,0.0,0.0,0.0,0.0,0.0,0.0,0.0,0.0,0.0,0.0,0.0,0.0,0.0,0.0,0.0,0.0,0.0,0.0,0.0,0.0,0.0,0.0,0.0,0.0,0.0,0.0,0.0,0.0,0.0,0.0,0.0,0.0,0.0,0.0,0.0,0.0,0.0,0.0,0.0,0.0,0.0,0.0,0.0,0.0,0.0,0.0,0.0,0.0,0.0,0.0,0.0,0.0,1.1155,1.2423,1.3077,1.3077,1.3077,1.3094,1.3082,1.2593,0.0,0.0,0.0,0.0,0.0,0.0,0.0,0.0,0.0,0.0,0.0,0.0,0.0,0.0,0.0,0.0,0.0,0.0,0.0,0.0,0.0,0.0,0.0,0.0,0.0,0.0,0.0,0.3994,0.0,0.0,0.0,0.0,0.0,0.0,0.0,0.0,0.0,0.0,0.0,0.0,0.0,0.0,1.1925,1.2254,1.2014,1.1816,0.0,0.0,1.3453,1.2463,1.2171,1.153,0.0,0.0,0.0,0.0,0.0,0.0,0.0,0.0,0.0,0.0,0.0,0.0,0.0,0.0,0.0,0.0,0.0,0.0,0.0,0.0,0.0,0.0,0.0,0.0,0.0,0.0,0.0,0.0,0.0,0.0,0.0,0.0,0.0,0.0,0.0,0.0,0.0,0.0,0.0,0.0,0.0,0.0,0.0,0.0,0.0,0.0,0.0,0.0,0.0,0.0,0.0,0.0,0.0,0.0,0.0,1.0841,1.2099,1.2745,1.2727,1.2727,1.2762,1.2808,1.2364,1.1659,0.0,0.0,0.0,0.0,0.0,0.0,0.0,0.0,0.0,0.0,0.0,0.0,0.0,0.0,0.0,0.0,0.0,0.0,0.0,0.0,0.0,0.0,0.0,0.0,0.0,0.0,0.0,0.0,0.0,0.0,0.0,0.0,0.0,0.0,0.0,0.0,0.0,0.0,0.0,0.0,0.0,1.2254,1.3483,1.2598,1.1831,0.0,0.0,1.3767,1.3663,1.2731,1.1764,1.1086,0.0,0.0,0.0,0.0,0.0,0.0,0.0,0.0,0.0,0.0,0.0,0.0,0.0,0.0,0.0,0.0,0.0,0.0,0.0,0.0,0.0,0.0,0.0,0.0,0.0,0.0,0.0,0.0,0.0,0.0,0.0,0.0,0.0,0.0,0.0,0.0,0.0,0.0,0.0,0.0,0.0,0.0,0.0,0.0,0.0,0.0,0.0,0.0,0.0,0.0,0.0,0.0,0.0,0.9259,1.0295,1.1526,1.2131,1.215,1.215,1.2222,1.2365,1.2358,1.1894,0.0,0.0,0.0,0.0,0.0,0.0,0.0,0.0,0.0,0.0,0.0,0.0,0.0,0.0,0.0,0.0,0.0,0.0,0.0,0.0,0.0,0.0,0.0,0.0,0.0,0.0,0.0,0.0,0.4762,0.4533,0.3976,0.0,0.0,0.0,0.0,0.0,0.0,0.0,0.0,0.0,0.0,1.369,1.3782,1.4049,0.0,0.0,1.4691,1.4646,1.354,1.3232,1.2607,1.1142,1.0512,0.0,0.0,0.0,0.0,0.0,0.0,0.0,0.0,0.0,0.0,0.0,0.0,0.0,0.0,0.0,0.0,0.0,0.0,0.0,0.0,0.0,0.0,0.0,0.0,0.0,0.0,0.0,0.0,0.0,0.0,0.0,0.0,0.0,0.0,0.0,0.0,0.0,0.0,0.0,0.0,0.0,0.0,0.0,0.0,0.0,0.0,0.0,0.0,0.0,0.0,0.0,0.0,0.8891,0.9874,1.1023,1.1608,1.1638,1.1627,1.1737,1.1957,1.2228,1.1992,0.0,0.0,0.0,0.0,0.0,0.0,0.0,0.0,0.0,0.0,0.0,0.0,0.0,0.0,0.0,0.0,0.0,0.0,0.0,0.0,0.0,0.0,0.0,0.0,0.0,0.0,0.0,0.0,0.5696,0.5226,0.4025,0.0,0.0,0.0,0.0,0.0,0.0,0.0,0.0,0.0,0.0,1.4558,1.3929,1.4946,1.5814,1.5814,1.5814,1.526,1.3735,1.3795,1.3418,1.1674,0.0,0.0,0.0,0.0,0.0,0.0,0.0,0.0,0.0,0.0,0.0,0.0,0.0,0.0,0.0,0.0,0.0,0.0,0.0,0.0,0.0,0.0,0.0,0.0,0.0,0.0,0.0,0.0,0.0,0.0,0.8239,0.0,0.0,0.0,0.0,0.0,0.0,0.0,0.0,0.0,0.0,0.0,0.0,0.0,0.0,0.0,0.0,0.0,0.0,0.0,0.0,0.0,0.0,0.8662,0.9594,1.0647,1.1217,1.1217,1.1207,1.1319,1.1597,1.1982,1.1826,1.1028,0.0,0.0,0.0,0.0,0.0,0.0,0.0,0.0,0.0,0.0,0.0,0.0,0.0,0.0,0.0,0.0,0.0,0.0,0.0,0.0,0.0,0.0,0.0,0.0,0.0,0.0,0.6535,0.6556,0.5881,0.0,0.0,0.0,0.0,0.0,0.0,0.0,0.0,0.0,0.0,1.4363,1.4558,1.3932,1.496,1.5814,1.5814,1.5814,1.5455,1.4513,1.4421,1.409,0.0,0.0,0.0,0.0,0.0,0.0,0.0,0.0,0.0,0.0,0.0,0.0,0.0,0.0,0.0,0.0,0.0,0.0,0.0,0.0,0.0,0.0,0.0,0.0,0.0,0.0,0.0,0.9372,0.9056,0.0,0.0,0.0,0.0,0.0,0.0,0.0,0.0,0.0,0.0,0.0,1.3698,1.304,0.0,0.0,0.0,0.0,0.0,0.0,0.0,0.0,0.0,0.0,0.0,0.0,0.8313,0.9197,1.013,1.0602,1.0602,1.0602,1.0774,1.1113,1.1664,1.1577,1.0819,0.0,0.0,0.0,0.0,0.0,0.0,0.0,0.0,0.0,0.0,0.0,0.0,0.0,0.0,0.0,0.0,0.0,0.0,0.0,0.0,0.0,0.0,0.0,0.0,0.0,0.7293,0.0,0.0,0.0,0.0,0.0,0.0,0.0,0.0,0.0,0.0,0.0,1.3466,1.4361,1.5035,1.5394,1.5155,1.5499,1.5814,0.0,0.0,0.0,0.0,0.0,0.0,0.0,0.0,0.0,0.0,0.0,0.0,0.0,0.0,1.4914,1.5239,1.4605,1.3729,1.2784,0.0,0.0,0.0,0.0,0.0,0.0,0.0,0.0,0.0,0.0,0.0,0.0,0.0,0.0,1.0875,0.0,1.0364,0.0,0.0,0.0,0.0,0.0,0.0,0.0,0.0,1.4393,1.4833,1.4832,1.3898,1.328,0.0,1.2568,1.1411,0.0,0.0,0.0,0.0,0.0,0.0,0.0,0.0,0.8363,0.9192,0.9922,1.0322,1.0322,1.0322,1.0486,1.0897,1.1424,1.1568,1.1305,1.0394,0.9378,0.0,0.0,0.0,0.0,0.0,0.0,0.0,0.0,0.0,0.0,0.0,0.0,0.0,0.0,0.0,0.0,0.0,0.0,0.0,0.0,0.0,0.0,0.0,0.8154,0.0,0.0,0.0,0.0,0.0,0.0,0.0,0.0,0.0,1.4296,1.4405,1.4629,1.5238,1.5787,1.604,1.5829,0.0,0.0,0.0,0.0,0.0,0.0,0.0,1.4779,1.4229,1.3825,1.364,1.3895,1.3467,1.3728,1.5729,0.0,0.0,1.5814,1.5445,1.4916,1.4236,1.4732,1.5036,1.4264,1.4842,1.5358,0.0,0.0,0.0,0.0,0.0,0.0,0.0,0.0,1.2539,1.27,0.0,1.2237,0.0,0.0,0.0,0.0,0.0,1.2789,0.0,0.0,1.5311,1.5545,1.5668,1.4383,1.3641,1.344,1.3172,1.2676,1.1914,1.0023,0.0,0.0,0.0,0.0,0.0,0.0,0.8828,0.9592,1.0088,1.0322,1.0351,1.0312,1.0505,1.0924,1.1321,1.1802,1.2293,1.0845,0.9981,0.988,0.8377,0.0,0.0,0.0,0.0,0.0,0.0,0.0,0.0,0.0,0.0,0.0,0.0,0.0,0.0,0.0,0.0,0.0,0.0,0.0,0.0,0.8942,0.0,0.0,0.0,0.0,0.0,0.0,0.0,0.0,0.0,0.0,1.5536,1.5566,1.5726,1.6234,0.0,0.0,0.0,0.0,1.6817,1.9288,1.7551,1.6129,1.6637,1.6234,1.5634,1.5005,0.0,0.0,1.3947,1.3973,1.4446,1.5588,1.5799,1.5814,1.5814,1.5784,1.5769,1.5828,1.6428,1.6743,1.6143,1.6683,1.7207,1.3989,0.0,0.0,0.0,0.0,1.3227,1.328,1.329,1.3428,1.348,1.348,1.3343,0.0,0.0,0.0,0.0,0.0,0.0,1.4767,1.5054,1.5738,1.5926,1.5711,1.5138,1.4711,1.4451,1.4006,1.3443,1.2762,1.1484,1.0254,0.9048,0.0,0.0,0.0,0.0,0.9541,1.0088,1.0518,1.0732,1.0732,1.0459,1.0687,1.1516,1.1928,1.2236,1.2397,1.1924,1.1312,1.0493,0.9654,0.0,0.0,0.0,0.0,0.0,0.0,0.0,0.0,0.0,0.0,0.0,0.0,0.0,0.0,0.0,0.0,0.0,0.0,0.0,0.9372,0.9899,0.9556,0.0,0.0,0.0,0.0,0.0,0.0,0.0,0.0,0.0,1.6276,1.6453,1.6496,0.0,0.0,1.6926,1.6746,1.7554,1.8508,1.9567,1.9064,0.0,1.7518,1.7026,1.6758,1.6846,1.6802,1.6413,1.541,1.5243,1.5392,1.5769,1.5814,1.5814,1.5814,1.5814,1.6038,1.6578,1.6953,1.7132,1.7191,1.7474,1.7593,1.5782,1.4875,1.4463,1.431,1.446,1.4633,1.4714,1.4724,1.4881,1.4935,1.4941,1.4785,1.4307,1.3581,1.3298,0.0,0.0,0.0,1.5598,1.562,1.6109,1.6159,1.5828,1.5328,1.5005,1.4841,1.4339,1.3905,1.3495,1.2557,1.1699,1.0889,0.0,0.0,0.9385,0.9864,1.0352,1.0792,1.1056,1.1183,1.1183,1.0914,1.1177,1.2009,1.2272,1.2488,1.2705,1.2513,1.2074,1.141,1.0419,0.9278,0.0,0.0,0.0,0.0,0.0,0.0,0.0,0.0,0.0,0.0,0.0,0.4313,0.4888,0.0,0.0,0.0,0.8401,0.9384,0.9913,1.0766,0.0,0.0,0.0,0.0,0.0,0.0,0.0,1.5859,1.5992,1.6103,1.6708,1.6945,1.6969,1.6747,1.7023,1.725,1.7264,0.0,1.8836,1.9365,1.9453,1.9072,1.7979,1.7495,1.7319,1.7652,1.7699,1.7474,1.6727,1.6563,1.6743,1.7087,1.6518,1.6128,1.7163,1.7357,1.7476,1.8,1.8135,1.815,1.8132,1.8296,1.8508,1.7168,1.7465,1.6221,1.5664,1.5605,1.5997,1.6134,1.6173,1.6543,1.6697,1.6668,1.6299,1.5909,1.5439,1.5059,0.0,1.5305,1.6136,1.6503,1.6553,1.6472,1.6337,1.6077,1.5228,1.4834,1.4824,1.4358,1.4163,1.4114,1.3394,1.3003,1.2964,1.1369,1.0684,1.0957,1.0996,1.1232,1.1655,1.1655,1.1614,1.1596,1.1529,1.1793,1.2393,1.2385,1.2662,1.3151,1.271,1.2463,1.2413,1.0946,1.0094,1.0031,0.0,0.0,0.0,0.0,0.0,0.0,0.0,0.0,0.0,0.0,0.0,0.0,0.0,0.0,0.0,0.9965,0.0,1.0608,1.1613,0.0,0.0,0.0,1.0965,1.1235,1.1978,1.3081,1.4737,0.0,0.0,1.6927,1.7196,1.7255,1.692,1.719,1.7434,1.7434,1.7659,1.8095,1.8822,1.8955,1.8751,1.8171,1.7841,1.7772,1.7949,1.7847,1.7908,1.7878,1.7848,1.8371,1.9301,1.7732,1.6833,1.9273,1.9528,1.9708,1.9618,1.9648,1.9468,1.8942,1.9211,1.9573,1.874,1.8844,1.8496,1.7803,1.6894,1.667,1.6572,1.6582,1.6658,1.6697,1.6687,1.659,1.6328,1.5928,1.5831,1.5881,1.6088,1.6809,1.7114,1.7022,1.6817,1.6545,1.6218,1.5585,1.5264,1.5234,1.4824,1.4629,1.46,1.4092,1.3812,1.3773,1.3096,1.2295,1.1477,1.1748,1.194,1.2047,1.2047,1.1904,1.1606,1.1529,1.1793,1.2382,1.2385,1.2662,1.3163,1.3073,1.2998,1.2998,1.2237,1.1738,1.1563,1.0131,0.0,0.0,0.0,0.0,0.0,0.0,0.0,0.0,0.0,0.589,0.6463,0.0,0.7538,0.0,0.9938,1.1519,1.265,1.3066,0.0,0.0,1.2585,1.2956,1.2733,1.3258,1.4283,1.5911,1.6033,1.6275,1.705,1.7684,1.7735,1.687,1.6744,1.6723,1.6757,1.7115,1.7475,1.7821,1.7888,1.8005,1.8408,1.8877,1.9113,1.9211,1.9211,1.9226,1.9211,1.9243,1.9348,1.9633,1.9258,1.9094,1.9588,1.9723,1.9723,1.9723,1.9723,1.9645,1.9498,1.9603,1.9723,1.9394,1.9551,1.9365,1.8984,1.8457,1.7808,1.7555,1.7535,1.735,1.7369,1.7545,1.7545,1.7344,1.6966,1.6934,1.6998,1.7081,1.7501,1.7543,1.73,1.7146,1.6864,1.6471,1.5968,1.5723,1.5693,1.5264,1.5059,1.5039,1.4629,1.4424,1.4377,1.3977,1.3428,1.2734,1.2588,1.252,1.252,1.2496,1.2402,1.2184,1.1945,1.2078,1.2633,1.25,1.2662,1.3193,1.321,1.321,1.3198,1.2689,1.2366,1.2215,1.0759,0.9704,0.0,0.0,0.0,0.0,0.0,0.0,0.0,0.0,0.0,0.0,0.0,0.9242,1.0443,1.1467,1.2604,1.3878,1.4262,1.4188,1.3536,1.3972,1.4008,1.3283,1.4033,1.5241,1.6928,1.7032,1.7125,1.7599,1.799,1.806,1.7415,1.687,1.6513,1.6522,1.6735,1.6913,1.7026,1.706,1.74,1.8311,1.9016,1.9435,1.9435,1.9472,1.9548,1.969,1.9723,1.9723,1.9723,1.9723,1.9723,1.9723,1.9723,1.9723,1.9723,1.9723,1.9723,1.9723,1.9723,1.9723,1.9668,1.9961,1.96,1.9658,1.9941,1.9104,1.8705,1.8578,1.8311,1.8379,1.8676,1.8627,1.8403,1.8086,1.8037,1.8008,1.8008,1.8008,1.7812,1.7461,1.7445,1.7178,1.6775,1.6357,1.6153,1.6075,1.5674,1.5439,1.54,1.5039,1.4873,1.4882,1.4397,1.4192,1.4153,1.3379,1.2964,1.2915,1.2915,1.2876,1.2807,1.2408,1.2436,1.288,1.2585,1.2632,1.3163,1.321,1.321,1.3185,1.2735,1.25,1.2463,1.106,1.0194,0.0,0.9165,0.0,0.0,0.0,0.0,0.0,0.0,0.0,0.0,1.0069,1.1071,1.3313,1.3693,1.4077,1.4709,1.533,1.5539,1.5203,1.521,1.4814,1.383,1.4669,1.6114,1.8023,1.8487,1.8594,1.8325,1.8366,1.8405,1.8141,1.7589,1.6964,1.655,1.6522,1.6543,1.6513,1.6513,1.6934,1.7841,1.8495,1.8879,1.8955,1.9082,1.9306,1.9599,1.969,1.9723,1.9723,1.9723,1.9723,1.9723,1.9723,1.9723,1.9723,1.9723,1.9723,1.9723,1.9723,1.9723,2.041,2.0468,2.039,2.041,2.0429,1.9893,1.9231,1.8627,1.8936,1.9092,1.9131,1.8754,1.8559,1.8461,1.812,1.8008,1.8008,1.8008,1.7969,1.7881,1.7539,1.7376,1.7236,1.6816,1.6416,1.6095,1.6007,1.5752,1.542,1.5332,1.5293,1.5283,1.4863,1.4658,1.4619,0.0,0.0,0.0,1.2915,1.2705,1.2353,1.2246,1.232,1.2507,1.2431,0.0,1.3163,1.321,1.321,1.3198,1.3115,0.0,0.0,0.0,0.0,0.0,0.0,0.0,0.0,0.0,0.0,0.0,1.2533,1.2307,1.0733,1.0983,1.1875,1.3306,1.4936,1.5858,1.5761,1.6278,1.6607,1.6553,1.6849,1.6773,1.5999,1.6116,1.7255,1.9819,1.9796,1.9358,1.8963,1.9232,1.9145,1.8442,1.8769,1.8405,1.6776,1.6563,1.6513,1.6513,1.6513,1.6629,1.7023,1.7529,1.7954,1.8198,1.8486,1.8841,1.9321,1.9599,1.9675,1.9708,1.9723,1.9723,1.9723,1.9723,1.9723,1.9723,1.9723,1.9723,1.9723,1.9723,1.9723,2.0615,0.0,2.0615,2.0615,0.0,2.037,1.9863,1.9231,1.9277,1.9277,1.9287,1.9268,1.8997,1.8598,1.8383,1.8213,1.8008,1.8008,1.8008,1.7998,1.7793,1.7686,1.7676,1.7256,1.6934,1.6741,1.63,1.5987,1.5762,1.5518,1.542,1.5381,1.5195,1.5088,1.5068,1.4356,1.3684,1.3055,1.3128,1.3066,1.2896,1.2901,1.3033,1.3313,1.3046,0.0,0.0,0.0,0.0,0.0,0.0,0.0,0.0,0.0,0.0,1.2375,1.1848,1.1535,1.156,1.2344,1.2948,1.3242,1.4009,1.4009,1.2856,1.2538,1.2986,1.4417,1.5751,1.6543,1.6688,1.6981,1.7333,1.772,1.7682,1.7702,1.7953,1.714,1.7503,1.9734,2.0131,1.9826,1.9434,1.9623,1.9585,1.9095,1.9196,1.9108,1.8218,1.7165,1.6513,1.6513,1.6513,1.6543,1.6641,1.682,1.7206,1.7693,1.8054,1.8378,1.8755,1.9213,1.9596,1.9672,1.9723,1.9723,1.9723,1.9723,1.9723,1.9723,1.9723,1.9723,1.9723,1.9723,1.9723,2.0615,2.0615,2.0615,2.0615,2.0615,2.0615,2.04,2.0,0.0,0.0,0.0,1.9795,1.9485,1.8822,1.8676,1.8412,1.8125,1.8047,1.8008,1.8008,1.8008,1.8008,1.7998,1.7656,1.7461,1.7353,1.6604,1.6173,1.6075,1.5615,1.542,1.542,1.542,1.5361,1.5204,1.4847,1.4251,1.3484,1.3481,1.3592,1.3674,1.3726,1.3914,1.4276,1.3816,1.3802,1.4223,1.376,1.3735,1.4186,1.376,1.3722,1.416,1.335,1.3044,1.3441,1.3077,1.3044,1.3478,1.4054,1.4425,1.4513,1.4921,1.5097,1.4909,1.4048,1.4143,1.5718,1.6434,1.7024,1.7476,1.7626,1.7953,1.8631,1.8279,1.8505,1.9484,1.8267,1.7903,1.9459,1.9991,2.0042,1.9825,1.9786,1.9798,1.9736,1.9434,1.9271,1.9472,1.8292,1.7089,1.6613,1.6513,1.6513,1.65,1.6522,1.6723,1.7214,1.7618,1.7882,1.8095,1.8721,1.9325,1.9654,1.9708,1.9723,1.9723,1.9723,1.9723,1.9723,1.9723,1.9723,1.9723,1.9723,1.9723,2.0615,2.0615,2.0615,2.0615,2.0615,2.0615,2.0566,2.0478,2.001,2.0039,2.041,2.0049,1.9853,1.9697,1.8929,1.8568,1.849,1.813,1.8008,1.8008,1.8008,1.8008,1.8008,1.7949,1.7734,1.7363,1.6843,1.6436,1.6085,1.5625,1.542,1.542,1.542,1.5162,1.469,1.5002,1.4889,1.4314,1.4176,1.4063,1.4038,1.42,1.4215,1.4141,1.4273,1.4486,1.4783,1.4683,1.4695,1.479,1.4695,1.4695,1.4758,1.4607,1.4582,1.4657,1.4595,1.4582,1.467,1.5173,1.5668,1.612,1.6224,1.5894,1.4984,1.4758,1.5148,1.6287,1.7363,1.799,1.8116,1.8469,1.8719,1.8781,1.9183,1.9597,1.9798,1.9497,1.9334,1.9736,1.9824,1.9914,1.9926,1.9862,1.9798,1.9798,1.9685,1.971,1.971,1.956,1.853,1.7014,1.6513,1.6513,1.6663,1.6525,1.664,1.6629,1.7099,1.7425,1.7427,1.826,1.9068,1.9603,1.9708,1.969,1.969,1.9723,1.9672,1.9654,1.9672,1.9672,1.9672,1.969,1.9708,2.1064,2.124,2.1025,2.0928,2.0908,2.0703,2.0615,2.0595,2.0361,2.0371,2.0566,2.04,2.0137,1.9863,1.9268,1.8857,1.8578,1.8169,1.8008,1.8008,1.8008,1.8008,1.8008,1.8008,1.791,1.7695,1.7009,1.6631,1.6387,1.5742,1.542,1.542,1.5594,1.5375,1.4907,1.5345,1.5449,1.5119,1.4812,1.4733,1.4874,1.505,1.5138,1.5109,1.5086,1.5129,1.5316,1.5047,1.5035,1.5324,1.506,1.5022,1.5311,1.506,1.5035,1.5311,1.5336,1.5454,1.5776,1.6296,1.671,1.6974,1.7262,1.7237,1.6722,1.6128,1.6245,1.7315,1.843,1.8957,1.8669,1.8857,1.907,1.9296,1.961,1.9798,1.9798,1.9798,1.9798,1.9798,1.9798,1.9837,1.9888,1.9837,1.9798,1.9798,1.9798,1.9798,1.9798,1.9798,1.9484,1.8406,1.7303,1.6986,1.7488,1.7516,1.7325,1.7049,1.7324,1.744,1.7366,1.8088,1.8936,1.9563,1.9723,1.9617,1.9435,1.938,1.9365,1.9365,1.9435,1.9472,1.9527,1.9617,1.9708,2.1531,2.1846,2.1523,2.1328,2.1161,2.0752,2.0615,2.0615,2.0605,2.0615,2.0615,2.0615,2.0371,2.0029,1.9521,1.9102,1.875,1.8242,1.8008,1.8008,1.8008,1.8008,1.8008,1.8008,1.7969,1.7793,1.7058,1.6648,1.6473,1.5761,1.5439,1.5555,1.5912,1.5821,1.5299,1.5833,1.5976,1.5693,1.5501,1.5479,1.5736,1.5869,1.6001,1.6073,1.5867,1.579,1.5856,1.5467,1.5429,1.5831,1.5467,1.5462,1.5831,1.55,1.5449,1.5819,1.5881,1.612,1.6672,1.7124,1.7448,1.7599,1.7965,1.8254,1.8268,1.7466,1.7277,1.8317,1.9208,1.9584,1.9259,1.9183,1.9346,1.9748,1.9798,1.9798,1.9798,1.9798,1.9798,1.9798,1.9798,1.9798,1.9798,1.9798,1.9798,1.9798,1.9798,1.9798,1.9798,1.9798,1.9798,1.9497,1.8317,1.7616,1.8481,1.8618,1.8216,1.7599,1.7607,1.7544,1.7424,1.7982,1.8745,1.9269,1.9398,1.9161,1.8841,1.8726,1.8765,1.8808,1.8974,1.9172,1.9358,1.9545,1.969,2.1855,2.1885,2.1855,2.1602,2.1151,2.0762,2.0625,2.0615,2.0615,2.0615,2.0615,2.0615,2.0586,2.0429,1.9658,1.9248,1.9131,1.8379,1.8008,1.8008,1.8008,1.8008,1.8008,1.8008,1.7812,1.7441,1.6921,1.6533,1.6173,1.5684,1.5555,1.5902,1.6428,1.6411,1.5968,1.6478,1.6527,1.5991,1.6163,1.6315,1.6414,1.6436,1.6457,1.6457,1.6429,1.6412,1.6387,1.6375,1.6362,1.6412,1.6362,1.6371,1.6387,1.6384,1.6362,1.64,1.6412,1.6697,1.7225,1.7373,1.7649,1.8066,1.8204,1.8468,1.8857,1.8417,1.8268,1.8895,1.9472,1.9748,1.971,1.971,1.971,1.9773,1.9798,1.9798,1.9798,1.9798,1.9798,1.9798,1.9798,1.9798,1.9798,1.9798,1.9798,1.9798,1.9798,1.9798,1.9798,1.9798,1.9798,1.9798,1.9484,1.9058,1.8682,1.9095,1.8894,1.7813,1.7616,1.7507,1.7359,1.7591,1.8327,1.8358,1.8562,1.8313,1.8085,1.7646,1.7882,1.8436,1.8657,1.8793,1.9128,1.946,1.9672,2.2402,2.2588,2.2363,2.1865,2.121,2.1035,2.081,2.0615,2.0615,2.0615,2.0615,2.0615,2.0615,2.0546,1.9705,1.9277,1.9219,1.8398,1.8008,1.8008,1.8008,1.8008,1.8008,1.8008,1.7793,1.7373,1.6943,1.6504,1.6115,1.5821,1.5874,1.6265,1.687,1.6975,1.6671,1.7034,1.6941,1.6309,1.6402,1.6479,1.65,1.6513,1.6513,1.6513,1.6513,1.6513,1.6513,1.6513,1.6513,1.6513,1.6513,1.6513,1.6513,1.6513,1.6513,1.6513,1.6848,1.7137,1.7375,1.7978,1.8418,1.8657,1.8982,1.9258,1.9447,1.9271,1.9258,1.9459,1.9685,1.9798,1.9798,1.9798,1.9798,1.9798,1.9798,1.9798,1.9798,1.9798,1.9798,1.9798,1.9798,1.9798,1.9798,1.9798,1.9798,1.9798,1.9798,1.9798,1.9798,1.9798,1.9798,1.9798,1.9798,1.9648,1.9246,1.9447,1.9284,1.868,1.8485,1.8274,1.7113,1.7057,1.7427,1.7425,1.7586,1.7946,1.8468,1.7747,1.7562,1.831,1.9047,1.9358,1.9342,1.9527,1.9672,2.2818,2.3003,2.2643,2.2158,2.1531,2.1288,2.1055,2.0752,2.0654,2.0615,2.0615,2.0615,2.0615,2.0488,1.9705,1.9323,1.9262,1.8503,1.8178,1.8212,1.8269,1.8313,1.8303,1.8313,1.8085,1.7658,1.7211,1.6673,1.6248,1.6219,1.6389,1.6793,1.7407,1.763,1.7503,1.7727,1.7588,1.7042,1.6964,1.6951,1.6986,1.6814,1.6672,1.6525,1.6513,1.6513,1.6513,1.6513,1.6513,1.6513,1.6513,1.6513,1.6513,1.6513,1.6563,1.6773,1.7137,1.7549,1.7802,1.8556,1.907,1.9221,1.9584,1.9798,1.9798,1.9798,1.9798,1.9786,1.9798,1.9798,1.9798,1.9798,1.9798,1.9798,1.9798,1.9798,1.9798,1.9798,1.9798,1.9798,1.9798,1.9798,1.9798,1.9798,1.9798,1.9798,1.9798,1.9798,1.9798,1.9798,1.9798,1.9798,1.9798,1.9786,1.9798,1.9773,1.956,1.9221,1.9018,1.8589,1.7338,1.7327,1.7572,1.8205,1.7566,1.8029,1.9656,1.9295,1.8461,1.9218,1.9812,2.0116,2.0094,1.9927,1.9731,2.3081,2.3023,2.2695,2.249,2.2383,2.1551,2.119,2.1133,2.0742,2.0615,2.0615,2.0615,2.0615,2.0546,1.9715,1.9406,1.9489,1.8824,1.8617,1.8774,1.8965,1.9075,1.9075,1.9075,1.8827,1.8403,1.7947,1.7213,1.6417,1.6751,1.7084,1.7418,1.8131,1.8474,1.8346,1.8561,1.8522,1.8055,1.798,1.8066,1.8028,1.7589,1.7087,1.6613,1.6513,1.6513,1.6513,1.6513,1.6513,1.6513,1.6513,1.6513,1.6534,1.6538,1.6835,1.7275,1.74,1.7877,1.8694,1.897,1.9221,1.966,1.9761,1.9798,1.9798,1.9798,1.9798,1.9798,1.9798,1.9798,1.9798,1.9798,1.9798,1.9798,1.9798,1.9798,1.9798,1.9798,1.9798,1.9798,1.9798,1.9798,1.9798,1.9798,1.9798,1.9798,1.9798,1.9798,1.9798,1.9798,1.9798,1.9798,1.9798,1.9798,1.9798,1.9798,1.9572,1.9321,1.9158,1.897,1.8681,1.8505,1.8832,1.9108,1.9083,1.9775,2.1325,2.1664,2.0998,2.094,2.0726,2.0814,2.0764,2.0209,1.9986,2.3101,2.3081,2.2935,2.2721,2.2451,2.1894,2.1494,2.1151,2.0791,2.0615,2.0615,2.0615,2.0615,2.0566,1.9705,1.9469,1.9689,1.924,1.9144,1.9452,1.9857,2.0053,2.0053,2.0063,1.9823,1.9353,1.8842,1.8082,1.7283,1.7518,1.7902,1.8232,1.8724,1.8931,1.8833,1.8884,1.8695,1.8243,1.8204,1.8204,1.8216,1.8016,1.7639,1.7099,1.6688,1.6513,1.6513,1.6513,1.6513,1.6513,1.6513,1.6663,1.7061,1.7413,1.7677,1.7903,1.8242,1.8531,1.8807,1.9246,1.9597,1.9761,1.9798,1.9798,1.9798,1.9798,1.9798,1.9798,1.9798,1.9798,1.9798,1.9798,1.9798,1.9798,1.9798,1.9798,1.9798,1.9798,1.9798,1.9798,1.9798,1.9798,1.9836,1.9798,1.9798,1.9798,1.9798,1.9798,1.9798,1.9798,1.9798,1.9798,1.9798,1.9798,1.9798,1.9798,1.9723,1.9623,1.951,1.9497,1.9309,1.9233,1.9447,1.9434,1.9748,2.0333,2.1421,2.1828,2.1549,2.1406,2.1259,2.1606,2.1453,2.1382,2.0912,2.3101,2.3101,2.3101,2.2978,2.2656,2.2129,2.1719,2.1387,2.0869,2.0615,2.0615,2.0615,2.0615,2.0468,1.9668,1.9594,1.9968,1.9706,1.9689,1.9955,2.0661,2.0973,2.0869,2.091,2.076,2.0372,1.9745,1.8976,1.8281,1.8321,1.8563,1.8859,1.9174,1.9314,1.9283,1.9246,1.907,1.8769,1.8719,1.8731,1.8694,1.8543,1.8281,1.7903,1.735,1.6839,1.6538,1.6513,1.6513,1.6525,1.6697,1.7061,1.7614,1.8003,1.8292,1.8493,1.8782,1.9033,1.9108,1.9522,1.9798,1.9798,1.9798,1.9798,1.9798,1.9798,1.9798,1.9798,1.9798,1.9798,1.9798,1.9798,1.9798,1.9798,1.9798,1.9798,1.9798,1.9798,1.9798,1.9798,1.9798,1.9899,2.0073,2.0112,2.02,2.0288,2.0087,1.9811,1.9798,1.9798,1.9798,1.9798,1.9798,1.9798,1.9798,1.9798,1.9798,1.9723,1.9698,1.9773,1.9798,1.9798,1.9798,1.9798,2.0067,2.0597,2.1102,2.1565,2.1695,2.1571,2.208,2.26,2.267,2.2927,2.2288,2.3101,2.3101,2.3101,2.3081,2.2935,2.2275,2.1904,2.1699,2.1006,2.0654,2.0664,2.0654,2.0683,2.0477,1.9913,1.9836,2.038,2.0298,2.0206,2.0282,2.1324,2.1689,2.1431,2.1596,2.1631,2.1478,2.0611,1.9922,1.9388,1.918,1.9153,1.9251,1.9474,1.9619,1.9773,1.9723,1.9748,1.966,1.9635,1.9685,1.9723,1.9233,1.8958,1.8845,1.8405,1.7654,1.6651,1.6613,1.6663,1.6688,1.7112,1.7662,1.8116,1.8304,1.8505,1.8907,1.9033,1.9271,1.9685,1.9773,1.9798,1.9823,1.9823,1.9886,1.9924,1.9911,1.9924,1.9949,1.9999,1.9936,1.9861,1.9861,1.9861,1.9798,1.9798,1.9798,1.9798,1.9798,1.9798,1.9811,1.9861,2.0124,2.0625,2.0765,2.0842,2.1018,2.0577,1.9936,1.9849,1.9798,1.9798,1.9798,1.9798,1.9798,1.9798,1.9798,1.9798,1.9786,1.9773,1.9798,1.9798,1.9798,1.9798,1.9798,1.9798,2.0295,2.0981,2.1488,2.2227,2.238,2.3018,2.3264,2.3308,2.3329,2.3439,2.3101,2.3101,2.3101,2.3101,2.3023,2.2549,2.2168,2.1846,2.126,2.0948,2.0858,2.0974,2.1089,2.1113,2.0768,2.0806,2.113,2.1335,2.1222,2.0997,2.1834,2.2229,2.2171,2.2457,2.2419,2.2088,2.1785,2.1133,2.0397,2.017,2.0014,1.9705,1.9682,1.9747,1.9798,1.9798,1.9798,1.9798,1.9798,1.9798,1.9798,1.9648,1.9397,1.9033,1.8832,1.8381,1.7716,1.7654,1.7654,1.7664,1.7852,1.8191,1.8669,1.9108,1.9371,1.9535,1.956,1.9597,1.9748,1.9798,1.9798,1.9874,2.015,2.0402,2.044,2.0514,2.055,2.0625,2.0976,2.0989,2.0125,2.0214,2.0239,1.9836,1.9798,1.9811,1.9899,1.9861,1.9798,1.9849,2.0176,2.0652,2.1142,2.1255,2.1345,2.1493,2.1167,2.0765,2.0075,1.9974,1.9798,1.9798,1.9798,1.9974,2.0062,2.015,2.0137,2.0037,1.9949,1.9811,1.9798,1.9798,1.9798,1.9798,1.9798,2.0055,2.0759,2.142,2.2072,2.2663,2.2921,2.3135,2.3334,2.3458,2.3486,2.3101,2.3101,2.3101,2.3101,2.3052,2.2685,2.2373,2.2041,2.1484,2.1194,2.1261,2.1399,2.1672,2.1872,2.1866,2.1979,2.2185,2.2357,2.2214,2.2003,2.249,2.2719,2.261,2.2927,2.2957,2.2606,2.238,2.1857,2.1031,2.0779,2.039,1.9899,1.9798,1.9798,1.9798,1.9798,1.9798,1.9798,1.9798,1.9798,1.9798,1.9798,1.9648,1.9346,1.9296,1.9108,1.8819,1.8794,1.8618,1.8342,1.8356,1.8744,1.9259,1.961,1.9798,1.9798,1.9798,1.9798,1.9798,1.9798,1.9798,1.9899,2.0365,2.0679,2.0767,2.0989,2.1274,2.1415,2.1691,2.1628,2.0876,2.0803,2.0666,1.9874,1.9798,1.9987,2.0275,2.0426,2.0175,2.015,2.0503,2.1242,2.1857,2.187,2.192,2.2008,2.192,2.1832,2.1041,2.074,2.0665,2.0639,2.0752,2.0752,2.0526,2.0501,2.0489,2.0326,2.015,1.9936,1.9798,1.9798,1.9798,1.9798,1.9798,1.9798,2.0384,2.0981,2.1599,2.2119,2.264,2.2889,2.3068,2.3326,2.3392,2.3101,2.3101,2.3101,2.3101,2.3052,2.2744,2.2549,2.2363,2.1701,2.158,2.1856,2.2057,2.2387,2.2737,2.292,2.3194,2.3453,2.3208,2.3185,2.3271,2.3376,2.3168,2.2807,2.3,2.3058,2.297,2.2623,2.2058,2.1433,2.1031,2.0427,1.9861,1.9798,1.9798,1.9798,1.9798,1.9798,1.9798,1.9798,1.9798,1.9798,1.9798,1.9786,1.9748,1.9736,1.971,1.9648,1.961,1.9258,1.8506,1.882,1.9246,1.9673,1.9798,1.9798,1.9798,1.9798,1.9798,1.9798,1.9798,1.9874,2.0012,2.0503,2.0779,2.1006,2.1616,2.2038,2.2067,2.2142,2.2067,2.1854,2.1694,2.1054,2.015,1.9911,2.025,2.1217,2.1443,2.1154,2.0464,2.0891,2.1895,2.2782,2.2556,2.2606,2.2744,2.2581,2.2481,2.2481,2.2146,2.2196,2.2058,2.182,2.1531,2.1292,2.0978,2.0953,2.084,2.0639,2.0413,2.0024,1.9949,1.9811,1.9798,2.0125,2.0024,2.0067,2.0714,2.1171,2.1578,2.2063,2.248,2.2799,2.3038,2.3031,2.3101,2.3101,2.3101,2.3101,2.3091,2.2964,2.2879,2.2735,2.2367,2.2351,2.2723,2.2897,2.3265,2.3804,2.4101,2.4304,2.4375,2.4305,2.4202,2.415,2.3886,2.3501,2.3083,2.3047,2.3095,2.307,2.2895,2.2406,2.1543,2.133,2.0779,1.9823,1.9811,1.9798,1.9798,1.9798,1.9798,1.9798,1.9798,1.9798,1.9798,1.9798,1.9798,1.9798,1.9798,1.9798,1.9798,1.9798,1.9723,1.9459,1.951,1.9648,1.9786,1.9798,1.9798,1.9798,1.9798,1.9811,1.9811,1.9823,2.0036,2.0588,2.1016,2.1443,2.1857,2.2431,2.2769,2.2819,2.2807,2.2581,2.2167,2.2083,2.1707,2.1104,2.0596,2.0405,2.1114,2.1992,2.2243,2.138,2.1719,2.2355,2.2819,2.2982,2.2907,2.302,2.297,2.2869,2.292,2.2945,2.2723,2.2807,2.2644,2.2318,2.1992,2.1644,2.143,2.1368,2.123,2.1117,2.0652,2.025,2.0012,1.9798,2.0853,2.1091,2.0622,2.0643,2.0921,2.1309,2.1783,2.2333,2.2464,2.2661,2.2543,2.3101,2.3101,2.3101,2.3101,2.3101,2.3101,2.3181,2.3198,2.2971,2.3198,2.3654,2.3947,2.4299,2.4802,2.5264,2.5429,2.5476,2.5441,2.5423,2.5255,2.4632,2.3876,2.3273,2.3095,2.3095,2.3095,2.3095,2.2619,2.1933,2.1619,2.0991,2.0314,1.9911,1.9811,1.9798,1.9798,1.9798,1.9798,1.9798,1.9798,1.9798,1.9798,1.9798,1.9798,1.9798,1.9798,1.9798,1.9798,1.9798,1.9786,1.9798,1.9798,1.9798,1.9798,1.9798,1.9798,1.9798,1.9886,2.0125,2.0189,2.0476,2.1064,2.1568,2.1945,2.2309,2.2782,2.3095,2.307,2.3095,2.2882,2.2648,2.2744,2.292,2.2929,2.2358,2.1958,2.1889,2.2594,2.2757,2.2418,2.2447,2.2706,2.3083,2.3095,2.3095,2.3095,2.3095,2.3058,2.3083,2.3095,2.3095,2.3095,2.3095,2.2769,2.2594,2.2334,2.2171,2.2071,2.197,2.1832,2.1355,2.0878,2.0978,2.1066,2.1744,2.2036,2.1582,2.1132,2.1066,2.1446,2.1839,2.2226,2.2481,2.2654,2.2479,2.3101,2.3101,2.3101,2.3101,2.3144,2.3188,2.3517,2.3821,2.3617,2.396,2.4681,2.496,2.5182,2.5723,2.606,2.6418,2.6418,2.6314,2.6221,2.5782,2.5043,2.4073,2.3165,2.3095,2.3095,2.3095,2.3095,2.2757,2.2259,2.1794,2.1282,2.0679,2.0125,1.9874,1.9823,1.9798,1.9798,1.9798,1.9798,1.9798,1.9798,1.9798,1.9798,1.9798,1.9798,1.9798,1.9798,1.9798,1.9798,1.9798,1.9798,1.9798,1.9798,1.9798,1.9798,1.9798,1.9823,2.0037,2.0541,2.0616,2.0943,2.1506,2.2004,2.233,2.2493,2.2869,2.3095,2.3095,2.3095,2.3058,2.305,2.3458,2.391,2.4285,2.4662,2.4427,2.3691,2.3215,2.3095,2.3095,2.3083,2.3095,2.3095,2.3095,2.3095,2.3095,2.3095,2.3095,2.3095,2.3095,2.3095,2.3095,2.3095,2.3095,2.3032,2.2995,2.292,2.2832,2.2744,2.2556,2.2121,2.1882,2.2246,2.2548,2.2573,2.2656,2.2673,2.2257,2.1774,2.1577,2.1944,2.2419,2.2816,2.2975,2.2943,2.3101,2.3101,2.3101,2.3232,2.3406,2.358,2.4133,2.4851,2.4481,2.4926,2.5645,2.5588,2.5712,2.6097,2.6361,2.6487,2.6474,2.6424,2.6084,2.5109,2.4519,2.3828,2.3208,2.3095,2.3095,2.3095,2.3095,2.2807,2.2355,2.2133,2.1631,2.0817,2.0578,2.025,1.9886,1.9823,1.9798,1.9798,1.9798,1.9798,1.9798,1.9798,1.9798,1.9798,1.9798,1.9798,1.9798,1.9798,1.9798,1.9798,1.9798,1.9798,1.9798,1.9798,1.9798,1.9798,1.9811,2.0062,2.0566,2.0792,2.1131,2.202,2.2255,2.2498,2.2895,2.2995,2.3095,2.3095,2.3095,2.3095,2.3138,2.3407,2.3985,2.4637,2.5217,2.5522,2.5133,2.3959,2.3185,2.3095,2.3095,2.3095,2.3095,2.3095,2.3095,2.3095,2.3095,2.3095,2.3095,2.3095,2.3095,2.3095,2.3095,2.3095,2.3095,2.3095,2.3095,2.3095,2.3095,2.3083,2.2648,2.2535,2.2719,2.2882,2.2995,2.3095,2.3083,2.2995,2.243,2.2255,2.2095,2.2554,2.299,2.3199,2.3812,2.3101,2.3101,2.3101,2.3319,2.3701,2.4122,2.4797,2.5541,2.5571,2.5904,2.6411,2.6198,2.6166,2.6339,2.643,2.6487,2.6411,2.6172,2.5473,2.4607,2.4092,2.3659,2.3208,2.3095,2.3095,2.3095,2.3095,2.2895,2.2681,2.238,2.202,2.1405,2.0981,2.0566,2.0201,1.9962,1.9811,1.9798,1.9798,1.9798,1.9798,1.9798,1.9798,1.9798,1.9798,1.9798,1.9798,1.9798,1.9798,1.9798,1.9798,1.9798,1.9798,1.9798,1.9811,1.9798,1.9811,2.0238,2.0817,2.1144,2.1543,2.2556,2.2656,2.2819,2.3032,2.3095,2.3095,2.3095,2.3095,2.3108,2.3138,2.3407,2.394,2.458,2.5231,2.5907,2.6109,2.4597,2.3095,2.3095,2.3095,2.3095,2.3095,2.3095,2.3095,2.3095,2.3095,2.3095,2.3095,2.3095,2.3095,2.3095,2.3095,2.3095,2.3095,2.3095,2.3095,2.3095,2.3095,2.3095,2.292,2.2945,2.3045,2.3095,2.3095,2.3095,2.3083,2.3045,2.3032,2.2799,2.2716,2.2928,2.3314,2.396,2.4667,2.3101,2.3101,2.3101,2.3406,2.3917,2.4595,2.5377,2.6155,2.65,2.669,2.6956,2.6656,2.6418,2.6487,2.6499,2.6461,2.6197,2.5699,2.4933,2.4167,2.3866,2.3509,2.317,2.3095,2.3095,2.3095,2.3095,2.3058,2.2932,2.2669,2.2368,2.2146,2.1443,2.0918,2.0641,2.0225,1.9924,1.9836,1.9798,1.9798,1.9798,1.9798,1.9798,1.9798,1.9798,1.9798,1.9798,1.9798,1.9798,1.9798,1.9798,1.9798,1.9823,1.9911,2.0012,2.0062,2.02,2.069,2.1405,2.1669,2.2058,2.302,2.3083,2.307,2.3095,2.3095,2.3138,2.3198,2.3258,2.3318,2.3288,2.3573,2.4018,2.4509,2.5033,2.577,2.6295,2.4754,2.356,2.3095,2.3095,2.3095,2.3095,2.3095,2.3095,2.3095,2.3095,2.3095,2.3095,2.3095,2.3095,2.3095,2.3095,2.3095,2.3095,2.3521,2.3471,2.3333,2.3296,2.3145,2.3133,2.3095,2.3095,2.3095,2.3095,2.3095,2.3095,2.3083,2.3083,2.3095,2.3157,2.3173,2.383,2.4712,2.5384,2.3101,2.3101,2.3101,2.3493,2.4229,2.5041,2.5725,2.6314,2.6797,2.7005,2.6939,2.6649,2.6487,2.6487,2.6487,2.6248,2.5737,2.5222,2.4619,2.3929,2.3565,2.3183,2.3145,2.3095,2.3095,2.3095,2.3095,2.3095,2.3095,2.2982,2.2706,2.2372,2.2071,2.1606,2.0968,2.0553,2.0251,1.9975,1.9836,1.9798,1.9798,1.9798,1.9798,1.9798,1.9798,1.9798,1.9798,1.9798,1.9798,1.9798,1.9798,1.9823,2.0025,2.0366,2.0792,2.1079,2.1106,2.133,2.1945,2.2159,2.2456,2.2932,2.3095,2.3095,2.3095,2.3125,2.3245,2.3526,2.3688,2.3806,2.3927,2.4118,2.435,2.4565,2.4421,2.4421,2.4851,2.4509,2.3796,2.3636,2.3412,2.3138,2.3198,2.3198,2.3138,2.3138,2.3095,2.3095,2.3095,2.3095,2.3095,2.3095,2.3095,2.3095,2.3095,2.371,2.3998,2.3797,2.3634,2.3271,2.3221,2.3133,2.3095,2.3095,2.3095,2.3095,2.3095,2.3095,2.3095,2.3095,2.3185,2.3305,2.4018,2.4738,2.5439,2.2906,2.3091,2.3101,2.3614,2.4466,2.5568,2.6285,2.6725,2.733,2.7457,2.7101,2.6728,2.6487,2.6487,2.6487,2.6013,2.5297,2.4971,2.4311,2.3653,2.3233,2.3095,2.3095,2.3095,2.3095,2.3095,2.3095,2.3095,2.3095,2.3095,2.2945,2.2719,2.2456,2.202,2.1468,2.0955,2.0616,2.0264,1.9974,1.9811,1.9798,1.9798,1.9798,1.9798,1.9798,1.9798,1.9798,1.9798,1.9798,1.9861,2.0087,2.0328,2.0724,2.1297,2.1954,2.2194,2.186,2.1773,2.2209,2.2334,2.256,2.2995,2.3125,2.3095,2.3095,2.3155,2.3471,2.4047,2.4218,2.445,2.4738,2.4823,2.4908,2.4838,2.435,2.4276,2.4536,2.4593,2.4624,2.4467,2.4141,2.3832,2.3378,2.3348,2.3228,2.3168,2.3095,2.3095,2.3095,2.3095,2.3108,2.3246,2.3283,2.3346,2.3534,2.423,2.4569,2.4381,2.4217,2.3822,2.3471,2.3459,2.3258,2.3095,2.3095,2.3496,2.3095,2.3095,2.3095,2.3095,2.3155,2.3365,2.4031,2.4738,2.5412,2.2754,2.3101,2.3101,2.3647,2.4616,2.5944,2.6593,2.696,2.7717,2.7684,2.7128,2.6713,2.6487,2.6487,2.6361,2.5921,2.485,2.48,2.4173,2.3333,2.312,2.3095,2.3095,2.3095,2.3095,2.3095,2.3095,2.3095,2.3095,2.3095,2.3095,2.2957,2.2606,2.2385,2.2083,2.1493,2.1069,2.0578,2.0277,1.9974,1.9836,1.9798,1.9798,1.9798,1.9798,1.9849,2.0024,2.0075,2.015,2.0352,2.0655,2.1064,2.1599,2.2431,2.3087,2.3292,2.2563,2.2385,2.2566,2.2743,2.303,2.3386,2.3335,2.3305,2.3335,2.3543,2.393,2.4796,2.5134,2.5175,2.5481,2.5577,2.5481,2.5315,2.4951,2.4694,2.5006,2.5342,2.5987,2.5715,2.51,2.458,2.4187,2.3543,2.3412,2.3168,2.3095,2.3095,2.3095,2.3095,2.3158,2.3409,2.3534,2.3665,2.4067,2.4883,2.5084,2.4971,2.4921,2.4732,2.4249,2.3873,2.3785,2.3966,2.423,2.4494,2.3828,2.3133,2.3095,2.3095,2.3095,2.3365,2.3969,2.4652,2.5356,2.2754,2.3101,2.3101,2.3647,2.4627,2.5944,2.6411,2.6482,2.7607,2.7507,2.6738,2.6537,2.6487,2.6487,2.6487,2.5824,2.5109,2.4738,2.4186,2.3233,2.3095,2.3095,2.3095,2.3095,2.3095,2.3095,2.3095,2.3095,2.3095,2.3095,2.3095,2.3045,2.2982,2.2794,2.241,2.2046,2.1619,2.088,2.0629,2.0327,1.9912,1.9798,1.9798,1.9798,1.9874,2.0049,2.0453,2.0541,2.0742,2.1169,2.1292,2.1779,2.2474,2.3001,2.3924,2.4369,2.4306,2.3803,2.3832,2.3835,2.3835,2.4005,2.4002,2.3897,2.3956,2.4276,2.4836,2.5646,2.596,2.6135,2.6203,2.6272,2.6096,2.6055,2.596,2.555,2.5578,2.7214,2.7773,2.7771,2.7413,2.6003,2.5043,2.4249,2.3607,2.3322,2.3108,2.315,2.3333,2.3521,2.3885,2.433,2.4042,2.4042,2.4709,2.5499,2.5752,2.5656,2.5623,2.5589,2.5234,2.4946,2.5222,2.5385,2.5581,2.5209,2.4418,2.3772,2.3321,2.3371,2.3722,2.3771,2.3832,2.4563,2.5436,2.2549,2.3091,2.3101,2.3657,2.4616,2.5933,2.6588,2.6842,2.7644,2.7657,2.6989,2.66,2.6487,2.6487,2.6487,2.5883,2.5021,2.48,2.4173,2.3321,2.3108,2.3095,2.3095,2.3095,2.3095,2.3095,2.3095,2.3095,2.3095,2.3095,2.3095,2.3095,2.3095,2.302,2.2698,2.2447,2.2083,2.1543,2.1043,2.0415,1.9962,1.9811,1.9811,1.9836,2.0125,2.0453,2.0704,2.1056,2.1232,2.1571,2.1719,2.2192,2.2791,2.3461,2.4298,2.4911,2.5133,2.5007,2.4866,2.4851,2.4823,2.4838,2.4809,2.4781,2.4794,2.5189,2.5878,2.6774,2.6642,2.675,2.7106,2.7401,2.7246,2.7135,2.7045,2.6982,2.7184,2.8887,2.9922,2.9865,2.9564,2.8068,2.67,2.602,2.5352,2.4684,2.4115,2.3601,2.4078,2.4657,2.5096,2.5636,2.5104,2.45,2.5338,2.6202,2.6542,2.6521,2.6442,2.64,2.6231,2.6185,2.6274,2.624,2.6156,2.5644,2.4965,2.4883,2.4858,2.4695,2.4531,2.4468,2.4484,2.5001,2.5738,2.2314,2.2935,2.3052,2.3647,2.4627,2.5902,2.6691,2.7077,2.7792,2.7795,2.7278,2.6751,2.6487,2.6487,2.6424,2.5971,2.5059,2.485,2.4199,2.3572,2.317,2.3108,2.3095,2.3095,2.3095,2.3095,2.3095,2.3095,2.3095,2.3095,2.3095,2.3095,2.3095,2.3083,2.2995,2.2744,2.2435,2.2121,2.1182,2.0616,2.0326,2.0125,2.0175,2.0338,2.0641,2.0968,2.1157,2.1471,2.1694,2.2046,2.2297,2.2681,2.3132,2.3785,2.4458,2.509,2.5536,2.592,2.5755,2.5687,2.5646,2.5632,2.5632,2.5563,2.5591,2.6081,2.6693,2.7458,2.7753,2.7805,2.8085,2.8581,2.8472,2.8282,2.8129,2.8308,2.8663,3.0013,3.0868,3.0766,3.0505,3.0189,2.9,2.8166,2.7286,2.6266,2.5341,2.4447,2.4992,2.5986,2.59,2.6316,2.5933,2.5391,2.6114,2.684,2.7191,2.7369,2.7242,2.6939,2.6607,2.6688,2.6794,2.6778,2.6918,2.6362,2.5807,2.6177,2.6399,2.5669,2.5079,2.5145,2.5275,2.5727,2.6078,2.2148,2.2588,2.2935,2.3647,2.4616,2.5933,2.6691,2.7136,2.7816,2.7783,2.7203,2.6763,2.6487,2.6487,2.6436,2.6147,2.5498,2.5034,2.4506,2.3941,2.3452,2.3283,2.3246,2.3221,2.3145,2.3095,2.3095,2.3095,2.3095,2.3095,2.3095,2.3095,2.3095,2.3095,2.3083,2.297,2.2673,2.2259,2.1395,2.1106,2.1018,2.093,2.0842,2.1207,2.1433,2.1669,2.2133,2.2238,2.2484,2.2845,2.3005,2.3187,2.3583,2.4082,2.465,2.5258,2.5947,2.6363,2.6481,2.6402,2.6283,2.6256,2.6256,2.631,2.6295,2.6256,2.6862,2.7898,2.8601,2.9131,2.9355,2.9487,2.9412,2.9247,2.922,2.9774,3.0058,3.0554,3.1331,3.1451,3.1261,3.085,3.066,2.9679,2.8782,2.7801,2.7646,2.6833,2.709,2.7699,2.6796,2.6629,2.6471,2.6473,2.7002,2.7577,2.8124,2.8059,2.7829,2.7276,2.6679,2.6897,2.7201,2.8059,2.8241,2.7477,2.6692,2.6589,2.637,2.5929,2.566,2.5681,2.5691,2.5877,2.6369,2.1973,2.2187,2.2852,2.3647,2.4616,2.5944,2.6873,2.7506,2.7914,2.7618,2.6813,2.66,2.6487,2.6487,2.6461,2.6185,2.5636,2.5435,2.4971,2.4619,2.4236,2.396,2.3828,2.3559,2.3484,2.3195,2.3108,2.3095,2.3095,2.3095,2.3095,2.3095,2.3095,2.3095,2.3095,2.307,2.2794,2.2397,2.1895,2.1707,2.1368,2.1343,2.1307,2.1443,2.1907,2.2115,2.2467,2.2896,2.3238,2.3522,2.3662,2.3868,2.4057,2.445,2.4893,2.5453,2.6163,2.6628,2.7034,2.7034,2.7111,2.7111,2.7111,2.7104,2.7125,2.7089,2.7506,2.8512,2.9771,3.0402,2.9711,2.9906,3.0058,2.9953,3.0238,3.0896,3.1197,3.1421,3.1496,3.1496,3.1467,3.1305,3.1218,3.1057,3.0175,2.9348,2.9343,2.932,2.9344,2.904,2.8072,2.7121,2.6884,2.7351,2.7881,2.8487,2.9048,2.8807,2.8468,2.7894,2.7343,2.7154,2.761,2.8707,2.9324,2.8384,2.7543,2.6829,2.6417,2.6211,2.6177,2.6244,2.6232,2.6163,2.6505,2.1689,2.1777,2.2471,2.3418,2.4606,2.5944,2.6925,2.7553,2.7939,2.7494,2.6512,2.6487,2.6487,2.6487,2.6474,2.6336,2.5912,2.5661,2.5385,2.5084,2.482,2.4607,2.4318,2.4029,2.3753,2.3371,2.3133,2.3095,2.3095,2.3095,2.3095,2.3095,2.3095,2.3095,2.3095,2.307,2.2895,2.2606,2.2322,2.228,2.1958,2.1832,2.192,2.202,2.238,2.2665,2.3009,2.3443,2.3849,2.4147,2.4363,2.4509,2.4694,2.4893,2.5231,2.5729,2.6217,2.6695,2.7074,2.7397,2.7679,2.7827,2.7897,2.7972,2.8079,2.7929,2.7916,2.9241,3.0569,3.1107,3.0133,3.0582,3.0746,3.0657,3.0823,3.1346,3.1361,3.1496,3.1496,3.1496,3.1467,3.1482,3.1438,3.1351,3.0999,3.0411,3.0411,3.0454,3.0526,3.0023,2.9071,2.8124,2.733,2.7999,2.873,2.9097,2.9425,2.9639,2.9265,2.8771,2.83,2.8039,2.8519,2.9948,3.0115,2.9184,2.8365,2.7556,2.7053,2.6654,2.6667,2.6676,2.6625,2.6569,2.6557,2.1229,2.1259,2.1758,2.2972,2.4534,2.5911,2.6668,2.7089,2.7717,2.7444,2.6562,2.6487,2.6487,2.6487,2.6487,2.6411,2.6285,2.5921,2.5636,2.5536,2.5297,2.4958,2.465,2.4418,2.4205,2.3904,2.3653,2.3396,2.3183,2.3246,2.3208,2.3108,2.3095,2.3095,2.3095,2.3095,2.3083,2.2995,2.2543,2.2619,2.2753,2.2514,2.2619,2.2879,2.3048,2.3276,2.3651,2.4055,2.4478,2.4751,2.5133,2.5287,2.537,2.5384,2.5591,2.5905,2.631,2.6669,2.6985,2.7412,2.7908,2.8382,2.8427,2.8727,2.9022,2.8708,2.8453,2.9894,3.1001,3.1436,3.1361,3.1376,3.1271,3.1271,3.1436,3.1496,3.1496,3.1496,3.1496,3.1496,3.1496,3.1496,3.1496,3.1467,3.1467,3.1335,3.1423,3.1467,3.1409,3.0984,3.0038,2.9233,2.8357,2.873,2.9393,2.9535,2.9797,3.007,3.0054,2.9623,2.9216,2.8917,2.9763,3.1161,3.0955,3.0085,2.9153,2.8235,2.7809,2.739,2.71,2.7066,2.7019,2.6952,2.6897,2.1271,2.146,2.2057,2.3012,2.4243,2.511,2.588,2.6585,2.7189,2.7178,2.6612,2.6487,2.6487,2.6487,2.6487,2.6487,2.6436,2.6411,2.621,2.6147,2.5887,2.5661,2.536,2.5071,2.4833,2.4582,2.4236,2.391,2.3728,2.3672,2.3396,2.3221,2.3208,2.3095,2.3095,2.3095,2.3095,2.307,2.2962,2.2992,2.3263,2.32,2.3293,2.3628,2.3721,2.3985,2.4363,2.4751,2.5105,2.5467,2.5851,2.6,2.6027,2.6041,2.6149,2.6375,2.6709,2.719,2.7743,2.8252,2.8338,2.8682,2.9041,2.934,2.946,2.9277,2.9639,3.0313,3.1107,3.1436,3.1466,3.1466,3.1406,3.1406,3.1496,3.1496,3.1496,3.1496,3.1496,3.1496,3.1496,3.163,3.1675,3.1899,3.1929,3.169,3.166,3.154,3.1467,3.1482,3.094,3.0342,2.9732,2.9856,3.0085,3.0326,3.0418,3.0643,3.0703,3.0509,3.0162,2.9794,3.0267,3.1322,3.1234,3.0984,3.0085,2.9247,2.8638,2.8183,2.7888,2.7556,2.7477,2.7297,2.7108,2.1164,2.1471,2.2078,2.2874,2.3818,2.4781,2.5746,2.6562,2.6911,2.6813,2.6537,2.6487,2.6487,2.6487,2.6487,2.6487,2.6487,2.6487,2.6487,2.6487,2.6474,2.621,2.5971,2.5674,2.5335,2.5109,2.4825,2.4537,2.4293,2.428,2.4117,2.3822,2.3496,2.3484,2.3396,2.3296,2.3095,2.3095,2.3075,2.319,2.345,2.3679,2.393,2.4189,2.4436,2.4738,2.5147,2.5495,2.5851,2.6203,2.6496,2.6707,2.6721,2.6774,2.6826,2.7023,2.7421,2.7839,2.8364,2.9179,2.9295,2.94,2.9714,2.9998,3.0178,3.0283,3.0447,3.0883,3.1271,3.1406,3.1496,3.1496,3.1615,3.163,3.166,3.1675,3.163,3.1645,3.2064,3.2004,3.2079,3.2108,3.2093,3.2258,3.2497,3.2153,3.1839,3.172,3.166,3.1809,3.2064,3.1795,3.1125,3.1009,3.1085,3.122,3.1279,3.1234,3.1146,3.1029,3.1043,3.0703,3.1073,3.1292,3.1292,3.1205,3.0896,3.0282,2.9373,2.8881,2.8656,2.832,2.8012,2.7729,2.7497,2.0858,2.1272,2.1794,2.259,2.3549,2.4979,2.6244,2.7147,2.6716,2.6512,2.6487,2.6487,2.6487,2.6487,2.6487,2.6487,2.6487,2.6487,2.6487,2.6487,2.6487,2.6411,2.6273,2.5971,2.5762,2.5511,2.5285,2.5134,2.4838,2.4682,2.4625,2.455,2.418,2.4023,2.3847,2.3559,2.3301,2.3218,2.3228,2.3437,2.3763,2.416,2.4494,2.4808,2.5161,2.5467,2.5837,2.6162,2.6508,2.689,2.7265,2.7458,2.7534,2.756,2.7585,2.7784,2.8252,2.8476,2.8969,2.9864,3.0283,3.0328,3.0477,3.0898,3.1107,3.1137,3.1152,3.1212,3.1451,3.1466,3.1496,3.169,3.1884,3.1914,3.1959,3.1929,3.1884,3.2153,3.2766,3.2991,3.3155,3.3185,3.308,3.3155,3.3036,3.2811,3.2527,3.2258,3.2273,3.2602,3.2975,3.3708,3.3,3.2184,3.2093,3.1706,3.1557,3.1366,3.1395,3.1336,3.1409,3.138,3.1409,3.1409,3.1467,3.1351,3.1131,3.0613,2.9825,2.9421,2.8962,2.8803,2.8371,2.8222,2.7941,2.0925,2.1464,2.2172,2.3069,2.408,2.5421,2.6302,2.6666,2.6537,2.6487,2.6487,2.6487,2.6487,2.6487,2.6487,2.6487,2.6487,2.6487,2.6487,2.6487,2.6487,2.6487,2.6411,2.6285,2.6223,2.6172,2.5996,2.5674,2.5335,2.5109,2.4895,2.4713,2.4695,2.4575,2.4393,2.4042,2.3719,2.3482,2.3509,2.378,2.4234,2.4709,2.5105,2.5522,2.5864,2.6188,2.6469,2.6666,2.6941,2.7255,2.7458,2.7585,2.7585,2.7615,2.7705,2.8263,2.8607,2.8936,2.9789,3.0298,3.0687,3.1032,3.1137,3.1256,3.1451,3.1496,3.1496,3.1496,3.1511,3.1525,3.172,3.1944,3.2273,3.2527,3.2647,3.2856,3.2916,3.3484,3.4008,3.4083,3.4233,3.3888,3.3814,3.3724,3.3589,3.3425,3.326,3.3051,3.3035,3.3424,3.3693,3.4457,3.3813,3.2721,3.2034,3.1615,3.1555,3.1496,3.1496,3.1496,3.1467,3.1467,3.1496,3.1496,3.1496,3.1496,3.1438,3.0777,3.0009,2.9376,2.8917,2.8885,2.8821,2.8734,2.8379,2.0992,2.1731,2.2622,2.3829,2.5123,2.5968,2.6408,2.6487,2.6487,2.6487,2.6487,2.6487,2.6487,2.6487,2.6487,2.6487,2.6487,2.6487,2.6487,2.6487,2.6487,2.6487,2.6487,2.6487,2.6449,2.6487,2.6461,2.6223,2.5875,2.5699,2.5511,2.5511,2.531,2.5146,2.4971,2.4639,2.4393,2.4221,2.4158,2.4313,2.4806,2.5425,2.5892,2.6328,2.6633,2.691,2.7041,2.7181,2.731,2.7463,2.7575,2.7585,2.769,2.7839,2.8053,2.8637,2.925,2.9684,3.0328,3.0718,3.1092,3.1361,3.1496,3.1496,3.1481,3.1496,3.1496,3.1496,3.154,3.1615,3.1929,3.2273,3.2766,3.326,3.3574,3.3903,3.4412,3.4996,3.5175,3.522,3.4981,3.4562,3.4352,3.4262,3.4307,3.4412,3.4457,3.4382,3.4382,3.4607,3.4637,3.4906,3.3962,3.2871,3.2273,3.1795,3.1675,3.163,3.1496,3.1496,3.1496,3.1496,3.1496,3.1496,3.1496,3.1496,3.1496,3.0866,3.016,2.9498,2.894,2.8931,2.9136,2.9471,2.8949,2.1069,2.1911,2.3095,2.4696,2.6336,2.6452,2.6499,2.6487,2.6487,2.6487,2.6487,2.6487,2.6487,2.6487,2.6487,2.6487,2.6487,2.6487,2.6487,2.6487,2.6487,2.6487,2.6487,2.6487,2.6487,2.6487,2.6474,2.6436,2.6461,2.6285,2.621,2.6449,2.5971,2.5686,2.5598,2.5134,2.502,2.5347,2.5173,2.5154,2.5687,2.624,2.6825,2.719,2.7547,2.7818,2.7788,2.7784,2.7764,2.7779,2.7809,2.7899,2.8124,2.8378,2.8652,2.9071,2.9804,3.0298,3.0703,3.1092,3.1316,3.1466,3.1496,3.1496,3.1496,3.1496,3.1496,3.1675,3.1765,3.2019,3.2318,3.2901,3.344,3.3888,3.4262,3.4577,3.5011,3.5355,3.537,3.5415,3.534,3.4981,3.4981,3.4906,3.4846,3.522,3.528,3.5235,3.528,3.5415,3.5355,3.525,3.4592,3.3633,3.2916,3.2452,3.2004,3.1809,3.1705,3.1511,3.1525,3.1525,3.1496,3.1496,3.1496,3.1496,3.138,3.0807,3.0174,2.9397,2.9026,2.8993,2.9265,2.9688,2.9785,2.1069,2.1949,2.3683,2.5205,2.643,2.6487,2.6487,2.6487,2.6487,2.6487,2.6487,2.6487,2.6487,2.6487,2.6487,2.6487,2.6487,2.6487,2.6487,2.6487,2.6487,2.6487,2.6487,2.6487,2.6487,2.6487,2.6487,2.6487,2.6487,2.6487,2.6487,2.6474,2.6235,2.6197,2.616,2.5649,2.5694,2.6258,2.6505,2.6574,2.7113,2.7824,2.849,2.869,2.8943,2.8936,2.8978,2.9037,2.9082,2.9142,2.9127,2.9142,2.9172,2.9292,2.9606,2.9998,3.0328,3.0761,3.1077,3.1346,3.1451,3.1496,3.1496,3.1496,3.1496,3.1496,3.1615,3.1854,3.2153,3.2482,3.2871,3.3499,3.4068,3.4487,3.4861,3.519,3.5489,3.5489,3.5489,3.5489,3.5489,3.5489,3.5489,3.5489,3.5489,3.5474,3.5459,3.5429,3.54,3.5474,3.5459,3.5385,3.5415,3.4681,3.3842,3.3095,3.2647,3.2333,3.2213,3.1944,3.16,3.1525,3.1496,3.1496,3.1496,3.1496,3.1351,3.0925,3.0249,2.9366,2.9089,2.9099,2.9184,2.9504,2.9941,2.1069,2.2014,2.3877,2.5394,2.6383,2.6487,2.6487,2.6487,2.6487,2.6487,2.6487,2.6487,2.6487,2.6487,2.6487,2.6487,2.6487,2.6487,2.6487,2.6487,2.6487,2.6487,2.6487,2.6487,2.6487,2.6487,2.6487,2.6487,2.6487,2.6487,2.6487,2.6487,2.6487,2.6474,2.6449,2.6181,2.6286,2.6968,2.7565,2.8149,2.8562,2.9101,2.9282,2.9483,2.9567,2.9651,2.9621,2.9621,2.9606,2.9606,2.9532,2.9532,2.9592,2.9831,3.0118,3.0447,3.0733,3.1107,3.1376,3.1496,3.1496,3.1496,3.1525,3.1525,3.1496,3.1525,3.1795,3.2079,3.2781,3.3125,3.3574,3.4189,3.4562,3.4966,3.516,3.5385,3.5489,3.5489,3.5489,3.5489,3.5489,3.5489,3.5489,3.5489,3.5489,3.5489,3.5489,3.5489,3.5489,3.5489,3.5489,3.5489,3.5489,3.5429,3.4801,3.4023,3.3335,3.3051,3.2811,3.2153,3.1705,3.157,3.1496,3.1525,3.1525,3.1496,3.1292,3.1116,3.0219,2.9279,2.9164,2.9225,2.9301,2.9518,3.0134,2.1175,2.2241,2.395,2.5394,2.6418,2.6487,2.6487,2.6487,2.6487,2.6487,2.6487,2.6487,2.6487,2.6487,2.6487,2.6487,2.6487,2.6487,2.6487,2.6487,2.6487,2.6487,2.6487,2.6487,2.6487,2.6487,2.6487,2.6487,2.6487,2.6487,2.6487,2.6487,2.6487,2.6487,2.6487,2.6543,2.6739,2.7459,2.8224,2.9205,2.966,2.9983,2.9967,2.9909,2.9819,2.9819,2.9849,2.9864,2.9864,2.9924,3.0058,3.0088,3.0178,3.0462,3.0582,3.0853,3.1122,3.1361,3.1496,3.1496,3.1496,3.1511,3.1555,3.163,3.1645,3.1839,3.2093,3.2677,3.335,3.3829,3.4277,3.4683,3.504,3.5265,3.54,3.5489,3.5489,3.5489,3.5489,3.5489,3.5489,3.5489,3.5489,3.5489,3.5489,3.5489,3.5489,3.5489,3.5489,3.5489,3.5489,3.5489,3.5489,3.5415,3.5325,3.4861,3.4068,3.3709,3.3365,3.2482,3.1809,3.1615,3.1525,3.157,3.1555,3.1989,3.1872,3.1691,3.0623,2.9638,2.9845,3.0049,2.9624,2.9926,3.057,2.1603,2.3268,2.4301,2.5406,2.6383,2.6487,2.6487,2.6487,2.6487,2.6487,2.6487,2.6487,2.6487,2.6487,2.6487,2.6487,2.6487,2.6487,2.6487,2.6487,2.6487,2.6487,2.6487,2.6487,2.6487,2.6487,2.6487,2.6487,2.6555,2.6521,2.6521,2.6568,2.6555,2.6521,2.6533,2.6658,2.6952,2.7743,2.8551,2.9425,3.0162,3.0588,3.1112,3.1137,3.1122,3.1122,3.1137,3.1137,3.1137,3.1137,3.1032,3.0972,3.0987,3.1047,3.1137,3.1152,3.1421,3.1451,3.1496,3.1496,3.1511,3.1735,3.1884,3.2228,3.2318,3.2512,3.2931,3.3589,3.4128,3.4412,3.4801,3.5085,3.5415,3.5415,3.5489,3.5489,3.5489,3.5489,3.5489,3.5489,3.5489,3.5489,3.5489,3.5489,3.5489,3.5489,3.5489,3.5489,3.5489,3.5489,3.5489,3.5489,3.5489,3.5489,3.5459,3.5415,3.4861,3.4472,3.3978,3.3245,3.2452,3.1645,3.1585,3.2333,3.2736,3.3185,3.2912,3.2535,3.1768,3.0987,3.1053,3.1013,3.047,3.0464,3.1232]}]]